<?xml version="1.0" encoding="UTF-8"?>
<gpx version="1.1" creator="2bulu-scraper" xmlns="http://www.topografix.com/GPX/1/1">
  <metadata><name>2026年峨眉山全程徒步，报国寺到金顶</name><desc>source: 2bulu.com trackId=84343057; exported 2026-09-01T16:19:11.567Z</desc>
    <bounds minlat="29.522773" minlon="103.326791" maxlat="29.574135" maxlon="103.441463"/>
    <link href="https://www.2bulu.com/track/t-jZjQgNHpWPvp%252FR2KBg5Tzw%253D%253D.htm"><text>2bulu 源页面</text></link>
  </metadata>
  <wpt lat="29.565622" lon="103.434258"><ele>510</ele><name></name></wpt>
  <wpt lat="29.56562" lon="103.43438"><ele>590</ele><name></name></wpt>
  <wpt lat="29.565388" lon="103.43142"><ele>616</ele><name></name></wpt>
  <wpt lat="29.56503" lon="103.426925"><ele>513</ele><name></name></wpt>
  <wpt lat="29.565162" lon="103.425758"><ele>691</ele><name></name></wpt>
  <wpt lat="29.565388" lon="103.421242"><ele>834</ele><name></name></wpt>
  <wpt lat="29.565362" lon="103.42122"><ele>831</ele><name></name></wpt>
  <wpt lat="29.569472" lon="103.41963"><ele>933</ele><name></name></wpt>
  <wpt lat="29.566512" lon="103.4077"><ele>820</ele><name></name></wpt>
  <wpt lat="29.572012" lon="103.401445"><ele>770</ele><name></name></wpt>
  <wpt lat="29.57352" lon="103.3936"><ele>726</ele><name></name></wpt>
  <wpt lat="29.574158" lon="103.392228"><ele>701</ele><name></name></wpt>
  <wpt lat="29.572087" lon="103.391578"><ele>738</ele><name></name></wpt>
  <wpt lat="29.556645" lon="103.386208"><ele>845</ele><name></name></wpt>
  <wpt lat="29.556788" lon="103.386047"><ele>854</ele><name></name></wpt>
  <wpt lat="29.55492" lon="103.384178"><ele>1007</ele><name></name></wpt>
  <wpt lat="29.550475" lon="103.370588"><ele>1246</ele><name></name></wpt>
  <wpt lat="29.549828" lon="103.365547"><ele>1469</ele><name></name></wpt>
  <wpt lat="29.550378" lon="103.356963"><ele>1759</ele><name></name></wpt>
  <wpt lat="29.560825" lon="103.351508"><ele>1703</ele><name></name></wpt>
  <wpt lat="29.560747" lon="103.351517"><ele>1701</ele><name></name></wpt>
  <wpt lat="29.562767" lon="103.350905"><ele>1827</ele><name></name></wpt>
  <wpt lat="29.561438" lon="103.345458"><ele>1815</ele><name></name></wpt>
  <wpt lat="29.558788" lon="103.344195"><ele>2061</ele><name></name></wpt>
  <wpt lat="29.558795" lon="103.344187"><ele>2062</ele><name></name></wpt>
  <wpt lat="29.542505" lon="103.332345"><ele>2418</ele><name></name></wpt>
  <wpt lat="29.542497" lon="103.332353"><ele>2428</ele><name></name></wpt>
  <wpt lat="29.542245" lon="103.33207"><ele>2428</ele><name></name></wpt>
  <wpt lat="29.542245" lon="103.33207"><ele>2428</ele><name></name></wpt>
  <wpt lat="29.529578" lon="103.327837"><ele>2861</ele><name></name></wpt>
  <wpt lat="29.529595" lon="103.327828"><ele>2861</ele><name></name></wpt>
  <wpt lat="29.523212" lon="103.33477"><ele>3035</ele><name></name></wpt>
  <wpt lat="29.523212" lon="103.33477"><ele>3035</ele><name></name></wpt>
  <wpt lat="29.522753" lon="103.33487"><ele>3048</ele><name></name></wpt>
  <trk><name>2026年峨眉山全程徒步，报国寺到金顶</name>
      <trkseg>
        <trkpt lat="29.570337" lon="103.441463"><ele>502</ele><time>2026-05-15T17:20:22.000Z</time></trkpt>
        <trkpt lat="29.570293" lon="103.441367"><ele>502</ele><time>2026-05-15T17:20:29.000Z</time></trkpt>
        <trkpt lat="29.570229" lon="103.441278"><ele>502</ele><time>2026-05-15T17:20:44.000Z</time></trkpt>
        <trkpt lat="29.570146" lon="103.441225"><ele>502</ele><time>2026-05-15T17:20:52.000Z</time></trkpt>
        <trkpt lat="29.570052" lon="103.441165"><ele>502</ele><time>2026-05-15T17:21:02.000Z</time></trkpt>
        <trkpt lat="29.569959" lon="103.441118"><ele>503</ele><time>2026-05-15T17:21:10.000Z</time></trkpt>
        <trkpt lat="29.56986" lon="103.441069"><ele>504</ele><time>2026-05-15T17:21:18.000Z</time></trkpt>
        <trkpt lat="29.569758" lon="103.441027"><ele>504</ele><time>2026-05-15T17:21:26.000Z</time></trkpt>
        <trkpt lat="29.569657" lon="103.441"><ele>504</ele><time>2026-05-15T17:21:34.000Z</time></trkpt>
        <trkpt lat="29.569546" lon="103.440984"><ele>502</ele><time>2026-05-15T17:21:42.000Z</time></trkpt>
        <trkpt lat="29.569439" lon="103.440975"><ele>501</ele><time>2026-05-15T17:21:50.000Z</time></trkpt>
        <trkpt lat="29.569325" lon="103.440975"><ele>499</ele><time>2026-05-15T17:21:58.000Z</time></trkpt>
        <trkpt lat="29.569219" lon="103.440974"><ele>497</ele><time>2026-05-15T17:22:06.000Z</time></trkpt>
        <trkpt lat="29.56912" lon="103.440974"><ele>496</ele><time>2026-05-15T17:22:14.000Z</time></trkpt>
        <trkpt lat="29.569043" lon="103.440918"><ele>495</ele><time>2026-05-15T17:22:22.000Z</time></trkpt>
        <trkpt lat="29.569014" lon="103.440802"><ele>495</ele><time>2026-05-15T17:22:30.000Z</time></trkpt>
        <trkpt lat="29.569014" lon="103.440679"><ele>494</ele><time>2026-05-15T17:22:38.000Z</time></trkpt>
        <trkpt lat="29.569009" lon="103.440547"><ele>493</ele><time>2026-05-15T17:22:45.000Z</time></trkpt>
        <trkpt lat="29.569025" lon="103.440426"><ele>492</ele><time>2026-05-15T17:22:53.000Z</time></trkpt>
        <trkpt lat="29.569033" lon="103.440311"><ele>492</ele><time>2026-05-15T17:23:03.000Z</time></trkpt>
        <trkpt lat="29.569005" lon="103.440196"><ele>493</ele><time>2026-05-15T17:23:11.000Z</time></trkpt>
        <trkpt lat="29.568963" lon="103.440088"><ele>496</ele><time>2026-05-15T17:23:19.000Z</time></trkpt>
        <trkpt lat="29.568912" lon="103.439994"><ele>499</ele><time>2026-05-15T17:23:27.000Z</time></trkpt>
        <trkpt lat="29.568846" lon="103.439906"><ele>503</ele><time>2026-05-15T17:23:35.000Z</time></trkpt>
        <trkpt lat="29.568764" lon="103.439828"><ele>506</ele><time>2026-05-15T17:23:42.000Z</time></trkpt>
        <trkpt lat="29.568686" lon="103.439759"><ele>509</ele><time>2026-05-15T17:23:48.000Z</time></trkpt>
        <trkpt lat="29.568606" lon="103.439696"><ele>512</ele><time>2026-05-15T17:23:54.000Z</time></trkpt>
        <trkpt lat="29.56852" lon="103.43962"><ele>514</ele><time>2026-05-15T17:24:02.000Z</time></trkpt>
        <trkpt lat="29.568422" lon="103.439543"><ele>516</ele><time>2026-05-15T17:24:10.000Z</time></trkpt>
        <trkpt lat="29.568333" lon="103.439476"><ele>518</ele><time>2026-05-15T17:24:16.000Z</time></trkpt>
        <trkpt lat="29.568237" lon="103.439392"><ele>520</ele><time>2026-05-15T17:24:24.000Z</time></trkpt>
        <trkpt lat="29.568149" lon="103.439295"><ele>521</ele><time>2026-05-15T17:24:32.000Z</time></trkpt>
        <trkpt lat="29.568065" lon="103.439191"><ele>521</ele><time>2026-05-15T17:24:38.000Z</time></trkpt>
        <trkpt lat="29.567991" lon="103.439093"><ele>521</ele><time>2026-05-15T17:24:43.000Z</time></trkpt>
        <trkpt lat="29.56792" lon="103.438985"><ele>521</ele><time>2026-05-15T17:24:51.000Z</time></trkpt>
        <trkpt lat="29.567857" lon="103.43889"><ele>521</ele><time>2026-05-15T17:24:57.000Z</time></trkpt>
        <trkpt lat="29.567787" lon="103.438793"><ele>520</ele><time>2026-05-15T17:25:05.000Z</time></trkpt>
        <trkpt lat="29.56773" lon="103.438701"><ele>519</ele><time>2026-05-15T17:25:11.000Z</time></trkpt>
        <trkpt lat="29.567674" lon="103.438609"><ele>518</ele><time>2026-05-15T17:25:17.000Z</time></trkpt>
        <trkpt lat="29.567622" lon="103.438503"><ele>517</ele><time>2026-05-15T17:25:25.000Z</time></trkpt>
        <trkpt lat="29.567569" lon="103.438412"><ele>516</ele><time>2026-05-15T17:25:33.000Z</time></trkpt>
        <trkpt lat="29.56751" lon="103.43832"><ele>516</ele><time>2026-05-15T17:25:41.000Z</time></trkpt>
        <trkpt lat="29.567452" lon="103.438217"><ele>517</ele><time>2026-05-15T17:25:48.000Z</time></trkpt>
        <trkpt lat="29.567399" lon="103.438098"><ele>519</ele><time>2026-05-15T17:25:54.000Z</time></trkpt>
        <trkpt lat="29.567308" lon="103.437998"><ele>519</ele><time>2026-05-15T17:26:00.000Z</time></trkpt>
        <trkpt lat="29.567214" lon="103.437913"><ele>519</ele><time>2026-05-15T17:26:06.000Z</time></trkpt>
        <trkpt lat="29.567144" lon="103.437823"><ele>518</ele><time>2026-05-15T17:26:12.000Z</time></trkpt>
        <trkpt lat="29.567086" lon="103.437718"><ele>518</ele><time>2026-05-15T17:26:20.000Z</time></trkpt>
        <trkpt lat="29.567033" lon="103.43761"><ele>517</ele><time>2026-05-15T17:26:30.000Z</time></trkpt>
        <trkpt lat="29.566993" lon="103.437509"><ele>517</ele><time>2026-05-15T17:26:38.000Z</time></trkpt>
        <trkpt lat="29.566944" lon="103.437423"><ele>517</ele><time>2026-05-15T17:26:44.000Z</time></trkpt>
        <trkpt lat="29.566901" lon="103.437318"><ele>518</ele><time>2026-05-15T17:26:51.000Z</time></trkpt>
        <trkpt lat="29.566835" lon="103.437217"><ele>518</ele><time>2026-05-15T17:26:59.000Z</time></trkpt>
        <trkpt lat="29.566775" lon="103.437108"><ele>519</ele><time>2026-05-15T17:27:07.000Z</time></trkpt>
        <trkpt lat="29.566727" lon="103.437003"><ele>520</ele><time>2026-05-15T17:27:15.000Z</time></trkpt>
        <trkpt lat="29.566668" lon="103.4369"><ele>522</ele><time>2026-05-15T17:27:23.000Z</time></trkpt>
        <trkpt lat="29.566604" lon="103.436804"><ele>524</ele><time>2026-05-15T17:27:29.000Z</time></trkpt>
        <trkpt lat="29.566544" lon="103.436708"><ele>526</ele><time>2026-05-15T17:27:35.000Z</time></trkpt>
        <trkpt lat="29.566493" lon="103.436618"><ele>527</ele><time>2026-05-15T17:27:41.000Z</time></trkpt>
        <trkpt lat="29.566448" lon="103.436519"><ele>529</ele><time>2026-05-15T17:27:46.000Z</time></trkpt>
        <trkpt lat="29.566409" lon="103.436423"><ele>531</ele><time>2026-05-15T17:27:52.000Z</time></trkpt>
        <trkpt lat="29.566374" lon="103.436324"><ele>532</ele><time>2026-05-15T17:27:58.000Z</time></trkpt>
        <trkpt lat="29.566339" lon="103.436202"><ele>533</ele><time>2026-05-15T17:28:08.000Z</time></trkpt>
        <trkpt lat="29.56627" lon="103.436112"><ele>534</ele><time>2026-05-15T17:28:14.000Z</time></trkpt>
        <trkpt lat="29.566221" lon="103.436007"><ele>534</ele><time>2026-05-15T17:28:20.000Z</time></trkpt>
        <trkpt lat="29.566184" lon="103.435897"><ele>534</ele><time>2026-05-15T17:28:26.000Z</time></trkpt>
        <trkpt lat="29.566155" lon="103.435795"><ele>533</ele><time>2026-05-15T17:28:36.000Z</time></trkpt>
        <trkpt lat="29.566137" lon="103.435675"><ele>533</ele><time>2026-05-15T17:28:44.000Z</time></trkpt>
        <trkpt lat="29.566103" lon="103.43556"><ele>532</ele><time>2026-05-15T17:28:51.000Z</time></trkpt>
        <trkpt lat="29.566071" lon="103.43543"><ele>531</ele><time>2026-05-15T17:28:59.000Z</time></trkpt>
        <trkpt lat="29.566034" lon="103.435307"><ele>530</ele><time>2026-05-15T17:29:07.000Z</time></trkpt>
        <trkpt lat="29.56599" lon="103.435186"><ele>529</ele><time>2026-05-15T17:29:15.000Z</time></trkpt>
        <trkpt lat="29.565934" lon="103.43507"><ele>530</ele><time>2026-05-15T17:29:23.000Z</time></trkpt>
        <trkpt lat="29.565862" lon="103.434989"><ele>531</ele><time>2026-05-15T17:29:31.000Z</time></trkpt>
        <trkpt lat="29.565779" lon="103.434913"><ele>533</ele><time>2026-05-15T17:29:39.000Z</time></trkpt>
        <trkpt lat="29.565699" lon="103.434841"><ele>536</ele><time>2026-05-15T17:29:46.000Z</time></trkpt>
        <trkpt lat="29.565628" lon="103.434765"><ele>538</ele><time>2026-05-15T17:29:54.000Z</time></trkpt>
        <trkpt lat="29.565595" lon="103.434668"><ele>540</ele><time>2026-05-15T17:30:00.000Z</time></trkpt>
        <trkpt lat="29.565602" lon="103.43455"><ele>540</ele><time>2026-05-15T17:30:08.000Z</time></trkpt>
        <trkpt lat="29.565649" lon="103.434431"><ele>541</ele><time>2026-05-15T17:30:16.000Z</time></trkpt>
        <trkpt lat="29.565716" lon="103.434324"><ele>541</ele><time>2026-05-15T17:30:26.000Z</time></trkpt>
        <trkpt lat="29.565772" lon="103.43421"><ele>542</ele><time>2026-05-15T17:30:38.000Z</time></trkpt>
        <trkpt lat="29.565779" lon="103.434099"><ele>544</ele><time>2026-05-15T17:30:46.000Z</time></trkpt>
        <trkpt lat="29.565762" lon="103.433989"><ele>545</ele><time>2026-05-15T17:30:55.000Z</time></trkpt>
        <trkpt lat="29.565748" lon="103.433877"><ele>547</ele><time>2026-05-15T17:31:03.000Z</time></trkpt>
        <trkpt lat="29.565743" lon="103.433758"><ele>549</ele><time>2026-05-15T17:31:11.000Z</time></trkpt>
        <trkpt lat="29.56574" lon="103.433685"><ele>550</ele><time>2026-05-15T17:31:19.000Z</time></trkpt>
        <trkpt lat="29.565688" lon="103.4336"><ele>552</ele><time>2026-05-15T17:31:49.000Z</time></trkpt>
        <trkpt lat="29.565679" lon="103.433492"><ele>552</ele><time>2026-05-15T17:31:58.000Z</time></trkpt>
        <trkpt lat="29.565698" lon="103.43338"><ele>552</ele><time>2026-05-15T17:32:06.000Z</time></trkpt>
        <trkpt lat="29.565708" lon="103.43325"><ele>552</ele><time>2026-05-15T17:32:14.000Z</time></trkpt>
        <trkpt lat="29.565726" lon="103.433136"><ele>553</ele><time>2026-05-15T17:32:20.000Z</time></trkpt>
        <trkpt lat="29.565709" lon="103.433015"><ele>553</ele><time>2026-05-15T17:32:28.000Z</time></trkpt>
        <trkpt lat="29.565683" lon="103.432907"><ele>553</ele><time>2026-05-15T17:32:34.000Z</time></trkpt>
        <trkpt lat="29.565654" lon="103.432796"><ele>553</ele><time>2026-05-15T17:32:42.000Z</time></trkpt>
        <trkpt lat="29.565609" lon="103.432683"><ele>554</ele><time>2026-05-15T17:32:50.000Z</time></trkpt>
        <trkpt lat="29.565557" lon="103.432578"><ele>555</ele><time>2026-05-15T17:32:57.000Z</time></trkpt>
        <trkpt lat="29.565515" lon="103.432453"><ele>556</ele><time>2026-05-15T17:33:05.000Z</time></trkpt>
        <trkpt lat="29.565487" lon="103.43233"><ele>556</ele><time>2026-05-15T17:33:13.000Z</time></trkpt>
        <trkpt lat="29.565449" lon="103.432222"><ele>556</ele><time>2026-05-15T17:33:21.000Z</time></trkpt>
        <trkpt lat="29.565417" lon="103.432108"><ele>556</ele><time>2026-05-15T17:33:31.000Z</time></trkpt>
        <trkpt lat="29.565378" lon="103.431996"><ele>558</ele><time>2026-05-15T17:33:41.000Z</time></trkpt>
        <trkpt lat="29.565379" lon="103.431884"><ele>560</ele><time>2026-05-15T17:33:50.000Z</time></trkpt>
        <trkpt lat="29.565414" lon="103.431781"><ele>561</ele><time>2026-05-15T17:34:00.000Z</time></trkpt>
        <trkpt lat="29.565453" lon="103.431678"><ele>562</ele><time>2026-05-15T17:34:08.000Z</time></trkpt>
        <trkpt lat="29.565489" lon="103.431576"><ele>563</ele><time>2026-05-15T17:34:16.000Z</time></trkpt>
        <trkpt lat="29.565517" lon="103.43147"><ele>564</ele><time>2026-05-15T17:34:24.000Z</time></trkpt>
        <trkpt lat="29.565525" lon="103.43138"><ele>565</ele><time>2026-05-15T17:34:34.000Z</time></trkpt>
        <trkpt lat="29.565532" lon="103.431271"><ele>566</ele><time>2026-05-15T17:34:42.000Z</time></trkpt>
        <trkpt lat="29.565549" lon="103.431159"><ele>566</ele><time>2026-05-15T17:34:50.000Z</time></trkpt>
        <trkpt lat="29.56554" lon="103.431046"><ele>567</ele><time>2026-05-15T17:34:57.000Z</time></trkpt>
        <trkpt lat="29.565483" lon="103.43096"><ele>568</ele><time>2026-05-15T17:35:07.000Z</time></trkpt>
        <trkpt lat="29.565412" lon="103.430868"><ele>569</ele><time>2026-05-15T17:35:15.000Z</time></trkpt>
        <trkpt lat="29.565389" lon="103.430742"><ele>570</ele><time>2026-05-15T17:35:23.000Z</time></trkpt>
        <trkpt lat="29.565372" lon="103.430617"><ele>571</ele><time>2026-05-15T17:35:31.000Z</time></trkpt>
        <trkpt lat="29.565353" lon="103.430497"><ele>572</ele><time>2026-05-15T17:35:39.000Z</time></trkpt>
        <trkpt lat="29.565344" lon="103.43038"><ele>573</ele><time>2026-05-15T17:35:47.000Z</time></trkpt>
        <trkpt lat="29.565341" lon="103.430257"><ele>574</ele><time>2026-05-15T17:35:54.000Z</time></trkpt>
        <trkpt lat="29.56532" lon="103.430137"><ele>575</ele><time>2026-05-15T17:36:02.000Z</time></trkpt>
        <trkpt lat="29.565305" lon="103.430029"><ele>576</ele><time>2026-05-15T17:36:08.000Z</time></trkpt>
        <trkpt lat="29.56528" lon="103.429907"><ele>576</ele><time>2026-05-15T17:36:16.000Z</time></trkpt>
        <trkpt lat="29.565234" lon="103.429797"><ele>578</ele><time>2026-05-15T17:36:24.000Z</time></trkpt>
        <trkpt lat="29.565177" lon="103.429682"><ele>579</ele><time>2026-05-15T17:36:32.000Z</time></trkpt>
        <trkpt lat="29.565123" lon="103.429584"><ele>581</ele><time>2026-05-15T17:36:40.000Z</time></trkpt>
        <trkpt lat="29.565065" lon="103.429498"><ele>583</ele><time>2026-05-15T17:36:46.000Z</time></trkpt>
        <trkpt lat="29.564999" lon="103.429389"><ele>584</ele><time>2026-05-15T17:36:54.000Z</time></trkpt>
        <trkpt lat="29.56497" lon="103.429255"><ele>585</ele><time>2026-05-15T17:37:01.000Z</time></trkpt>
        <trkpt lat="29.564966" lon="103.429139"><ele>585</ele><time>2026-05-15T17:37:07.000Z</time></trkpt>
        <trkpt lat="29.564956" lon="103.429018"><ele>585</ele><time>2026-05-15T17:37:15.000Z</time></trkpt>
        <trkpt lat="29.564941" lon="103.428887"><ele>585</ele><time>2026-05-15T17:37:23.000Z</time></trkpt>
        <trkpt lat="29.564927" lon="103.428772"><ele>586</ele><time>2026-05-15T17:37:29.000Z</time></trkpt>
        <trkpt lat="29.564915" lon="103.428654"><ele>586</ele><time>2026-05-15T17:37:37.000Z</time></trkpt>
        <trkpt lat="29.564894" lon="103.428548"><ele>586</ele><time>2026-05-15T17:37:43.000Z</time></trkpt>
        <trkpt lat="29.564928" lon="103.428444"><ele>585</ele><time>2026-05-15T17:37:55.000Z</time></trkpt>
        <trkpt lat="29.565023" lon="103.428374"><ele>585</ele><time>2026-05-15T17:38:08.000Z</time></trkpt>
        <trkpt lat="29.565113" lon="103.428291"><ele>587</ele><time>2026-05-15T17:38:14.000Z</time></trkpt>
        <trkpt lat="29.56519" lon="103.428212"><ele>589</ele><time>2026-05-15T17:38:20.000Z</time></trkpt>
        <trkpt lat="29.565267" lon="103.428136"><ele>590</ele><time>2026-05-15T17:38:28.000Z</time></trkpt>
        <trkpt lat="29.565369" lon="103.428078"><ele>590</ele><time>2026-05-15T17:38:36.000Z</time></trkpt>
        <trkpt lat="29.565453" lon="103.42801"><ele>589</ele><time>2026-05-15T17:38:44.000Z</time></trkpt>
        <trkpt lat="29.565491" lon="103.427918"><ele>589</ele><time>2026-05-15T17:38:52.000Z</time></trkpt>
        <trkpt lat="29.565491" lon="103.427809"><ele>587</ele><time>2026-05-15T17:38:59.000Z</time></trkpt>
        <trkpt lat="29.565477" lon="103.427699"><ele>584</ele><time>2026-05-15T17:39:05.000Z</time></trkpt>
        <trkpt lat="29.565463" lon="103.427589"><ele>582</ele><time>2026-05-15T17:39:11.000Z</time></trkpt>
        <trkpt lat="29.565463" lon="103.427469"><ele>579</ele><time>2026-05-15T17:39:17.000Z</time></trkpt>
        <trkpt lat="29.565454" lon="103.427349"><ele>577</ele><time>2026-05-15T17:39:25.000Z</time></trkpt>
        <trkpt lat="29.565445" lon="103.427236"><ele>576</ele><time>2026-05-15T17:39:33.000Z</time></trkpt>
        <trkpt lat="29.565402" lon="103.427135"><ele>575</ele><time>2026-05-15T17:39:41.000Z</time></trkpt>
        <trkpt lat="29.565343" lon="103.427051"><ele>576</ele><time>2026-05-15T17:39:51.000Z</time></trkpt>
        <trkpt lat="29.565256" lon="103.426988"><ele>579</ele><time>2026-05-15T17:40:00.000Z</time></trkpt>
        <trkpt lat="29.565152" lon="103.426941"><ele>583</ele><time>2026-05-15T17:40:08.000Z</time></trkpt>
        <trkpt lat="29.565044" lon="103.426883"><ele>587</ele><time>2026-05-15T17:40:16.000Z</time></trkpt>
        <trkpt lat="29.564989" lon="103.426789"><ele>592</ele><time>2026-05-15T17:40:24.000Z</time></trkpt>
        <trkpt lat="29.565008" lon="103.426689"><ele>598</ele><time>2026-05-15T17:40:59.000Z</time></trkpt>
        <trkpt lat="29.565062" lon="103.426583"><ele>604</ele><time>2026-05-15T17:41:33.000Z</time></trkpt>
        <trkpt lat="29.565114" lon="103.42648"><ele>609</ele><time>2026-05-15T17:41:45.000Z</time></trkpt>
        <trkpt lat="29.56517" lon="103.426385"><ele>612</ele><time>2026-05-15T17:42:06.000Z</time></trkpt>
        <trkpt lat="29.565178" lon="103.426283"><ele>615</ele><time>2026-05-15T17:42:32.000Z</time></trkpt>
        <trkpt lat="29.56521" lon="103.426183"><ele>618</ele><time>2026-05-15T17:42:54.000Z</time></trkpt>
        <trkpt lat="29.565243" lon="103.426076"><ele>621</ele><time>2026-05-15T17:43:11.000Z</time></trkpt>
        <trkpt lat="29.565272" lon="103.425956"><ele>625</ele><time>2026-05-15T17:43:23.000Z</time></trkpt>
        <trkpt lat="29.565291" lon="103.425846"><ele>627</ele><time>2026-05-15T17:43:37.000Z</time></trkpt>
        <trkpt lat="29.565279" lon="103.425741"><ele>630</ele><time>2026-05-15T17:43:49.000Z</time></trkpt>
        <trkpt lat="29.565229" lon="103.425632"><ele>632</ele><time>2026-05-15T17:43:59.000Z</time></trkpt>
        <trkpt lat="29.56516" lon="103.425525"><ele>633</ele><time>2026-05-15T17:44:08.000Z</time></trkpt>
        <trkpt lat="29.565109" lon="103.425419"><ele>636</ele><time>2026-05-15T17:44:16.000Z</time></trkpt>
        <trkpt lat="29.565061" lon="103.425314"><ele>638</ele><time>2026-05-15T17:44:24.000Z</time></trkpt>
        <trkpt lat="29.564986" lon="103.425218"><ele>641</ele><time>2026-05-15T17:44:32.000Z</time></trkpt>
        <trkpt lat="29.564915" lon="103.425132"><ele>644</ele><time>2026-05-15T17:44:40.000Z</time></trkpt>
        <trkpt lat="29.564876" lon="103.425097"><ele>647</ele><time>2026-05-15T17:44:52.000Z</time></trkpt>
        <trkpt lat="29.564851" lon="103.425019"><ele>651</ele><time>2026-05-15T17:45:16.000Z</time></trkpt>
        <trkpt lat="29.56482" lon="103.424924"><ele>655</ele><time>2026-05-15T17:45:30.000Z</time></trkpt>
        <trkpt lat="29.564795" lon="103.424819"><ele>659</ele><time>2026-05-15T17:45:40.000Z</time></trkpt>
        <trkpt lat="29.564747" lon="103.424725"><ele>662</ele><time>2026-05-15T17:45:54.000Z</time></trkpt>
        <trkpt lat="29.564685" lon="103.424605"><ele>665</ele><time>2026-05-15T17:46:04.000Z</time></trkpt>
        <trkpt lat="29.564635" lon="103.424502"><ele>667</ele><time>2026-05-15T17:46:12.000Z</time></trkpt>
        <trkpt lat="29.564613" lon="103.424399"><ele>669</ele><time>2026-05-15T17:46:28.000Z</time></trkpt>
        <trkpt lat="29.564599" lon="103.424295"><ele>671</ele><time>2026-05-15T17:46:44.000Z</time></trkpt>
        <trkpt lat="29.564597" lon="103.424185"><ele>674</ele><time>2026-05-15T17:47:06.000Z</time></trkpt>
        <trkpt lat="29.564579" lon="103.424076"><ele>677</ele><time>2026-05-15T17:47:18.000Z</time></trkpt>
        <trkpt lat="29.564547" lon="103.423961"><ele>679</ele><time>2026-05-15T17:47:30.000Z</time></trkpt>
        <trkpt lat="29.564505" lon="103.423851"><ele>680</ele><time>2026-05-15T17:47:46.000Z</time></trkpt>
        <trkpt lat="29.564492" lon="103.423741"><ele>682</ele><time>2026-05-15T17:48:06.000Z</time></trkpt>
        <trkpt lat="29.564492" lon="103.423635"><ele>684</ele><time>2026-05-15T17:48:16.000Z</time></trkpt>
        <trkpt lat="29.564493" lon="103.423523"><ele>685</ele><time>2026-05-15T17:48:26.000Z</time></trkpt>
        <trkpt lat="29.56449" lon="103.423457"><ele>686</ele><time>2026-05-15T17:48:32.000Z</time></trkpt>
        <trkpt lat="29.564479" lon="103.423361"><ele>687</ele><time>2026-05-15T17:48:54.000Z</time></trkpt>
        <trkpt lat="29.564465" lon="103.423251"><ele>689</ele><time>2026-05-15T17:49:08.000Z</time></trkpt>
        <trkpt lat="29.564465" lon="103.423134"><ele>692</ele><time>2026-05-15T17:49:26.000Z</time></trkpt>
        <trkpt lat="29.564472" lon="103.423019"><ele>695</ele><time>2026-05-15T17:49:40.000Z</time></trkpt>
        <trkpt lat="29.564483" lon="103.422912"><ele>700</ele><time>2026-05-15T17:49:58.000Z</time></trkpt>
        <trkpt lat="29.564456" lon="103.422796"><ele>704</ele><time>2026-05-15T17:50:10.000Z</time></trkpt>
        <trkpt lat="29.564456" lon="103.422674"><ele>709</ele><time>2026-05-15T17:50:20.000Z</time></trkpt>
        <trkpt lat="29.564479" lon="103.422566"><ele>712</ele><time>2026-05-15T17:50:38.000Z</time></trkpt>
        <trkpt lat="29.564519" lon="103.422463"><ele>715</ele><time>2026-05-15T17:51:04.000Z</time></trkpt>
        <trkpt lat="29.564559" lon="103.422353"><ele>720</ele><time>2026-05-15T17:51:21.000Z</time></trkpt>
        <trkpt lat="29.564596" lon="103.422252"><ele>724</ele><time>2026-05-15T17:51:35.000Z</time></trkpt>
        <trkpt lat="29.564604" lon="103.422144"><ele>727</ele><time>2026-05-15T17:51:57.000Z</time></trkpt>
        <trkpt lat="29.56461" lon="103.422032"><ele>731</ele><time>2026-05-15T17:52:24.000Z</time></trkpt>
        <trkpt lat="29.564595" lon="103.421921"><ele>735</ele><time>2026-05-15T17:52:48.000Z</time></trkpt>
        <trkpt lat="29.564562" lon="103.421814"><ele>738</ele><time>2026-05-15T17:53:15.000Z</time></trkpt>
        <trkpt lat="29.564526" lon="103.421706"><ele>742</ele><time>2026-05-15T17:53:27.000Z</time></trkpt>
        <trkpt lat="29.564484" lon="103.421601"><ele>744</ele><time>2026-05-15T17:53:39.000Z</time></trkpt>
        <trkpt lat="29.564435" lon="103.421505"><ele>746</ele><time>2026-05-15T17:53:59.000Z</time></trkpt>
        <trkpt lat="29.564425" lon="103.421403"><ele>749</ele><time>2026-05-15T17:54:19.000Z</time></trkpt>
        <trkpt lat="29.564491" lon="103.421347"><ele>752</ele><time>2026-05-15T17:54:43.000Z</time></trkpt>
        <trkpt lat="29.564577" lon="103.421287"><ele>756</ele><time>2026-05-15T17:54:57.000Z</time></trkpt>
        <trkpt lat="29.564679" lon="103.421263"><ele>760</ele><time>2026-05-15T17:55:36.000Z</time></trkpt>
        <trkpt lat="29.564766" lon="103.421325"><ele>765</ele><time>2026-05-15T17:55:50.000Z</time></trkpt>
        <trkpt lat="29.56485" lon="103.421386"><ele>769</ele><time>2026-05-15T17:56:06.000Z</time></trkpt>
        <trkpt lat="29.564948" lon="103.421413"><ele>772</ele><time>2026-05-15T17:56:24.000Z</time></trkpt>
        <trkpt lat="29.565047" lon="103.421402"><ele>775</ele><time>2026-05-15T17:56:36.000Z</time></trkpt>
        <trkpt lat="29.565144" lon="103.42138"><ele>778</ele><time>2026-05-15T17:57:00.000Z</time></trkpt>
        <trkpt lat="29.565234" lon="103.421349"><ele>782</ele><time>2026-05-15T17:57:14.000Z</time></trkpt>
        <trkpt lat="29.565328" lon="103.421304"><ele>785</ele><time>2026-05-15T17:57:31.000Z</time></trkpt>
        <trkpt lat="29.565417" lon="103.42124"><ele>788</ele><time>2026-05-15T17:57:45.000Z</time></trkpt>
        <trkpt lat="29.565506" lon="103.421198"><ele>791</ele><time>2026-05-15T17:57:53.000Z</time></trkpt>
        <trkpt lat="29.565595" lon="103.42117"><ele>793</ele><time>2026-05-15T17:58:03.000Z</time></trkpt>
        <trkpt lat="29.565691" lon="103.421167"><ele>796</ele><time>2026-05-15T17:58:13.000Z</time></trkpt>
        <trkpt lat="29.565792" lon="103.421175"><ele>798</ele><time>2026-05-15T17:58:24.000Z</time></trkpt>
        <trkpt lat="29.565837" lon="103.421187"><ele>800</ele><time>2026-05-15T17:58:30.000Z</time></trkpt>
        <trkpt lat="29.565924" lon="103.421201"><ele>802</ele><time>2026-05-15T17:58:50.000Z</time></trkpt>
        <trkpt lat="29.566029" lon="103.421203"><ele>803</ele><time>2026-05-15T17:59:02.000Z</time></trkpt>
        <trkpt lat="29.566129" lon="103.421165"><ele>805</ele><time>2026-05-15T17:59:10.000Z</time></trkpt>
        <trkpt lat="29.566206" lon="103.421067"><ele>806</ele><time>2026-05-15T17:59:19.000Z</time></trkpt>
        <trkpt lat="29.566238" lon="103.420946"><ele>808</ele><time>2026-05-15T17:59:27.000Z</time></trkpt>
        <trkpt lat="29.566268" lon="103.42082"><ele>808</ele><time>2026-05-15T17:59:35.000Z</time></trkpt>
        <trkpt lat="29.566292" lon="103.420705"><ele>808</ele><time>2026-05-15T17:59:43.000Z</time></trkpt>
        <trkpt lat="29.566323" lon="103.420594"><ele>807</ele><time>2026-05-15T17:59:51.000Z</time></trkpt>
        <trkpt lat="29.566377" lon="103.420496"><ele>805</ele><time>2026-05-15T17:59:57.000Z</time></trkpt>
        <trkpt lat="29.566444" lon="103.4204"><ele>804</ele><time>2026-05-15T18:00:03.000Z</time></trkpt>
        <trkpt lat="29.566508" lon="103.420313"><ele>803</ele><time>2026-05-15T18:00:09.000Z</time></trkpt>
        <trkpt lat="29.566577" lon="103.420227"><ele>801</ele><time>2026-05-15T18:00:15.000Z</time></trkpt>
        <trkpt lat="29.566624" lon="103.420132"><ele>800</ele><time>2026-05-15T18:00:22.000Z</time></trkpt>
        <trkpt lat="29.566646" lon="103.42001"><ele>798</ele><time>2026-05-15T18:00:30.000Z</time></trkpt>
        <trkpt lat="29.566678" lon="103.419898"><ele>798</ele><time>2026-05-15T18:00:38.000Z</time></trkpt>
        <trkpt lat="29.566756" lon="103.419866"><ele>798</ele><time>2026-05-15T18:00:50.000Z</time></trkpt>
        <trkpt lat="29.566813" lon="103.419942"><ele>798</ele><time>2026-05-15T18:01:21.000Z</time></trkpt>
        <trkpt lat="29.56688" lon="103.420035"><ele>804</ele><time>2026-05-15T18:01:43.000Z</time></trkpt>
        <trkpt lat="29.566913" lon="103.420151"><ele>810</ele><time>2026-05-15T18:02:01.000Z</time></trkpt>
        <trkpt lat="29.566938" lon="103.420272"><ele>815</ele><time>2026-05-15T18:02:09.000Z</time></trkpt>
        <trkpt lat="29.566984" lon="103.420377"><ele>818</ele><time>2026-05-15T18:02:24.000Z</time></trkpt>
        <trkpt lat="29.567053" lon="103.420456"><ele>820</ele><time>2026-05-15T18:02:38.000Z</time></trkpt>
        <trkpt lat="29.567134" lon="103.420505"><ele>823</ele><time>2026-05-15T18:02:54.000Z</time></trkpt>
        <trkpt lat="29.567225" lon="103.42051"><ele>826</ele><time>2026-05-15T18:03:08.000Z</time></trkpt>
        <trkpt lat="29.567322" lon="103.420505"><ele>828</ele><time>2026-05-15T18:03:27.000Z</time></trkpt>
        <trkpt lat="29.567416" lon="103.420471"><ele>831</ele><time>2026-05-15T18:03:43.000Z</time></trkpt>
        <trkpt lat="29.567508" lon="103.420424"><ele>834</ele><time>2026-05-15T18:03:59.000Z</time></trkpt>
        <trkpt lat="29.567597" lon="103.420375"><ele>837</ele><time>2026-05-15T18:04:19.000Z</time></trkpt>
        <trkpt lat="29.567681" lon="103.420326"><ele>840</ele><time>2026-05-15T18:04:40.000Z</time></trkpt>
        <trkpt lat="29.567767" lon="103.420278"><ele>845</ele><time>2026-05-15T18:04:56.000Z</time></trkpt>
        <trkpt lat="29.567852" lon="103.420231"><ele>849</ele><time>2026-05-15T18:05:14.000Z</time></trkpt>
        <trkpt lat="29.567933" lon="103.420174"><ele>852</ele><time>2026-05-15T18:05:31.000Z</time></trkpt>
        <trkpt lat="29.568027" lon="103.420141"><ele>855</ele><time>2026-05-15T18:05:55.000Z</time></trkpt>
        <trkpt lat="29.568124" lon="103.420116"><ele>858</ele><time>2026-05-15T18:06:15.000Z</time></trkpt>
        <trkpt lat="29.568219" lon="103.420103"><ele>861</ele><time>2026-05-15T18:06:38.000Z</time></trkpt>
        <trkpt lat="29.568314" lon="103.420107"><ele>864</ele><time>2026-05-15T18:07:04.000Z</time></trkpt>
        <trkpt lat="29.568411" lon="103.420114"><ele>869</ele><time>2026-05-15T18:07:33.000Z</time></trkpt>
        <trkpt lat="29.568505" lon="103.420118"><ele>878</ele><time>2026-05-15T18:07:53.000Z</time></trkpt>
        <trkpt lat="29.568604" lon="103.420122"><ele>885</ele><time>2026-05-15T18:08:07.000Z</time></trkpt>
        <trkpt lat="29.568699" lon="103.420104"><ele>889</ele><time>2026-05-15T18:08:21.000Z</time></trkpt>
        <trkpt lat="29.568791" lon="103.42007"><ele>893</ele><time>2026-05-15T18:08:32.000Z</time></trkpt>
        <trkpt lat="29.568879" lon="103.42002"><ele>896</ele><time>2026-05-15T18:08:50.000Z</time></trkpt>
        <trkpt lat="29.568964" lon="103.419972"><ele>898</ele><time>2026-05-15T18:08:58.000Z</time></trkpt>
        <trkpt lat="29.569059" lon="103.419919"><ele>898</ele><time>2026-05-15T18:09:06.000Z</time></trkpt>
        <trkpt lat="29.569156" lon="103.419898"><ele>899</ele><time>2026-05-15T18:09:12.000Z</time></trkpt>
        <trkpt lat="29.569251" lon="103.419873"><ele>899</ele><time>2026-05-15T18:09:22.000Z</time></trkpt>
        <trkpt lat="29.569341" lon="103.419828"><ele>898</ele><time>2026-05-15T18:09:35.000Z</time></trkpt>
        <trkpt lat="29.569426" lon="103.419772"><ele>896</ele><time>2026-05-15T18:09:43.000Z</time></trkpt>
        <trkpt lat="29.569491" lon="103.41969"><ele>894</ele><time>2026-05-15T18:10:01.000Z</time></trkpt>
        <trkpt lat="29.56956" lon="103.419618"><ele>892</ele><time>2026-05-15T18:10:11.000Z</time></trkpt>
        <trkpt lat="29.569623" lon="103.419516"><ele>890</ele><time>2026-05-15T18:10:19.000Z</time></trkpt>
        <trkpt lat="29.569682" lon="103.419403"><ele>889</ele><time>2026-05-15T18:10:27.000Z</time></trkpt>
        <trkpt lat="29.56973" lon="103.419285"><ele>888</ele><time>2026-05-15T18:10:34.000Z</time></trkpt>
        <trkpt lat="29.569772" lon="103.419176"><ele>887</ele><time>2026-05-15T18:10:42.000Z</time></trkpt>
        <trkpt lat="29.569784" lon="103.419062"><ele>885</ele><time>2026-05-15T18:10:52.000Z</time></trkpt>
        <trkpt lat="29.569796" lon="103.418949"><ele>884</ele><time>2026-05-15T18:11:00.000Z</time></trkpt>
        <trkpt lat="29.569809" lon="103.418831"><ele>884</ele><time>2026-05-15T18:11:08.000Z</time></trkpt>
        <trkpt lat="29.569825" lon="103.418723"><ele>884</ele><time>2026-05-15T18:11:16.000Z</time></trkpt>
        <trkpt lat="29.569843" lon="103.418613"><ele>883</ele><time>2026-05-15T18:11:24.000Z</time></trkpt>
        <trkpt lat="29.569864" lon="103.418505"><ele>884</ele><time>2026-05-15T18:11:34.000Z</time></trkpt>
        <trkpt lat="29.569881" lon="103.418389"><ele>884</ele><time>2026-05-15T18:11:42.000Z</time></trkpt>
        <trkpt lat="29.569886" lon="103.418259"><ele>885</ele><time>2026-05-15T18:11:50.000Z</time></trkpt>
        <trkpt lat="29.569907" lon="103.418142"><ele>885</ele><time>2026-05-15T18:11:58.000Z</time></trkpt>
        <trkpt lat="29.569953" lon="103.418038"><ele>885</ele><time>2026-05-15T18:12:10.000Z</time></trkpt>
        <trkpt lat="29.569998" lon="103.417917"><ele>886</ele><time>2026-05-15T18:12:18.000Z</time></trkpt>
        <trkpt lat="29.570031" lon="103.417796"><ele>885</ele><time>2026-05-15T18:12:26.000Z</time></trkpt>
        <trkpt lat="29.57005" lon="103.417673"><ele>885</ele><time>2026-05-15T18:12:34.000Z</time></trkpt>
        <trkpt lat="29.570061" lon="103.417553"><ele>883</ele><time>2026-05-15T18:12:42.000Z</time></trkpt>
        <trkpt lat="29.570079" lon="103.417446"><ele>881</ele><time>2026-05-15T18:12:48.000Z</time></trkpt>
        <trkpt lat="29.570098" lon="103.417335"><ele>880</ele><time>2026-05-15T18:12:56.000Z</time></trkpt>
        <trkpt lat="29.570128" lon="103.417224"><ele>880</ele><time>2026-05-15T18:13:04.000Z</time></trkpt>
        <trkpt lat="29.570202" lon="103.417155"><ele>880</ele><time>2026-05-15T18:13:14.000Z</time></trkpt>
        <trkpt lat="29.570302" lon="103.417143"><ele>880</ele><time>2026-05-15T18:13:26.000Z</time></trkpt>
        <trkpt lat="29.570386" lon="103.417076"><ele>881</ele><time>2026-05-15T18:13:33.000Z</time></trkpt>
        <trkpt lat="29.570418" lon="103.416966"><ele>880</ele><time>2026-05-15T18:13:41.000Z</time></trkpt>
        <trkpt lat="29.570415" lon="103.416849"><ele>880</ele><time>2026-05-15T18:13:47.000Z</time></trkpt>
        <trkpt lat="29.570403" lon="103.416739"><ele>879</ele><time>2026-05-15T18:13:53.000Z</time></trkpt>
        <trkpt lat="29.570396" lon="103.416612"><ele>879</ele><time>2026-05-15T18:14:01.000Z</time></trkpt>
        <trkpt lat="29.570402" lon="103.416494"><ele>879</ele><time>2026-05-15T18:14:09.000Z</time></trkpt>
        <trkpt lat="29.57039" lon="103.416383"><ele>878</ele><time>2026-05-15T18:14:17.000Z</time></trkpt>
        <trkpt lat="29.570409" lon="103.416282"><ele>877</ele><time>2026-05-15T18:14:27.000Z</time></trkpt>
        <trkpt lat="29.57049" lon="103.416209"><ele>876</ele><time>2026-05-15T18:14:36.000Z</time></trkpt>
        <trkpt lat="29.570588" lon="103.416151"><ele>873</ele><time>2026-05-15T18:14:46.000Z</time></trkpt>
        <trkpt lat="29.57068" lon="103.416096"><ele>872</ele><time>2026-05-15T18:15:02.000Z</time></trkpt>
        <trkpt lat="29.570751" lon="103.416014"><ele>873</ele><time>2026-05-15T18:15:16.000Z</time></trkpt>
        <trkpt lat="29.570741" lon="103.415907"><ele>876</ele><time>2026-05-15T18:15:30.000Z</time></trkpt>
        <trkpt lat="29.570663" lon="103.415822"><ele>878</ele><time>2026-05-15T18:15:37.000Z</time></trkpt>
        <trkpt lat="29.570576" lon="103.41575"><ele>878</ele><time>2026-05-15T18:15:45.000Z</time></trkpt>
        <trkpt lat="29.570511" lon="103.415667"><ele>878</ele><time>2026-05-15T18:15:51.000Z</time></trkpt>
        <trkpt lat="29.570429" lon="103.415584"><ele>878</ele><time>2026-05-15T18:15:59.000Z</time></trkpt>
        <trkpt lat="29.570332" lon="103.415543"><ele>877</ele><time>2026-05-15T18:16:05.000Z</time></trkpt>
        <trkpt lat="29.570231" lon="103.415545"><ele>876</ele><time>2026-05-15T18:16:13.000Z</time></trkpt>
        <trkpt lat="29.570128" lon="103.415543"><ele>875</ele><time>2026-05-15T18:16:25.000Z</time></trkpt>
        <trkpt lat="29.570059" lon="103.415482"><ele>874</ele><time>2026-05-15T18:16:36.000Z</time></trkpt>
        <trkpt lat="29.569996" lon="103.41539"><ele>873</ele><time>2026-05-15T18:16:46.000Z</time></trkpt>
        <trkpt lat="29.569971" lon="103.415279"><ele>874</ele><time>2026-05-15T18:16:54.000Z</time></trkpt>
        <trkpt lat="29.569967" lon="103.415161"><ele>875</ele><time>2026-05-15T18:17:02.000Z</time></trkpt>
        <trkpt lat="29.569961" lon="103.415037"><ele>876</ele><time>2026-05-15T18:17:10.000Z</time></trkpt>
        <trkpt lat="29.569927" lon="103.414933"><ele>878</ele><time>2026-05-15T18:17:16.000Z</time></trkpt>
        <trkpt lat="29.569869" lon="103.41485"><ele>879</ele><time>2026-05-15T18:17:22.000Z</time></trkpt>
        <trkpt lat="29.569798" lon="103.414776"><ele>879</ele><time>2026-05-15T18:17:30.000Z</time></trkpt>
        <trkpt lat="29.569712" lon="103.414734"><ele>879</ele><time>2026-05-15T18:17:37.000Z</time></trkpt>
        <trkpt lat="29.569611" lon="103.414746"><ele>880</ele><time>2026-05-15T18:17:45.000Z</time></trkpt>
        <trkpt lat="29.569511" lon="103.414786"><ele>880</ele><time>2026-05-15T18:17:53.000Z</time></trkpt>
        <trkpt lat="29.569406" lon="103.414819"><ele>881</ele><time>2026-05-15T18:18:01.000Z</time></trkpt>
        <trkpt lat="29.56931" lon="103.41481"><ele>882</ele><time>2026-05-15T18:18:09.000Z</time></trkpt>
        <trkpt lat="29.569246" lon="103.414737"><ele>881</ele><time>2026-05-15T18:18:19.000Z</time></trkpt>
        <trkpt lat="29.569195" lon="103.414646"><ele>881</ele><time>2026-05-15T18:18:27.000Z</time></trkpt>
        <trkpt lat="29.569157" lon="103.414543"><ele>882</ele><time>2026-05-15T18:18:34.000Z</time></trkpt>
        <trkpt lat="29.569152" lon="103.414429"><ele>884</ele><time>2026-05-15T18:18:42.000Z</time></trkpt>
        <trkpt lat="29.569154" lon="103.414292"><ele>886</ele><time>2026-05-15T18:18:50.000Z</time></trkpt>
        <trkpt lat="29.56915" lon="103.414165"><ele>887</ele><time>2026-05-15T18:18:56.000Z</time></trkpt>
        <trkpt lat="29.569161" lon="103.414045"><ele>886</ele><time>2026-05-15T18:19:04.000Z</time></trkpt>
        <trkpt lat="29.569203" lon="103.41393"><ele>885</ele><time>2026-05-15T18:19:12.000Z</time></trkpt>
        <trkpt lat="29.569194" lon="103.413807"><ele>883</ele><time>2026-05-15T18:19:20.000Z</time></trkpt>
        <trkpt lat="29.569155" lon="103.413695"><ele>881</ele><time>2026-05-15T18:19:28.000Z</time></trkpt>
        <trkpt lat="29.569107" lon="103.413597"><ele>878</ele><time>2026-05-15T18:19:36.000Z</time></trkpt>
        <trkpt lat="29.569066" lon="103.413502"><ele>875</ele><time>2026-05-15T18:19:45.000Z</time></trkpt>
        <trkpt lat="29.569042" lon="103.413395"><ele>871</ele><time>2026-05-15T18:19:55.000Z</time></trkpt>
        <trkpt lat="29.569021" lon="103.413279"><ele>867</ele><time>2026-05-15T18:20:05.000Z</time></trkpt>
        <trkpt lat="29.569044" lon="103.413166"><ele>865</ele><time>2026-05-15T18:20:15.000Z</time></trkpt>
        <trkpt lat="29.56909" lon="103.413062"><ele>864</ele><time>2026-05-15T18:20:25.000Z</time></trkpt>
        <trkpt lat="29.569164" lon="103.412962"><ele>864</ele><time>2026-05-15T18:20:33.000Z</time></trkpt>
        <trkpt lat="29.569251" lon="103.412882"><ele>865</ele><time>2026-05-15T18:20:39.000Z</time></trkpt>
        <trkpt lat="29.569345" lon="103.412807"><ele>866</ele><time>2026-05-15T18:20:47.000Z</time></trkpt>
        <trkpt lat="29.56943" lon="103.412724"><ele>868</ele><time>2026-05-15T18:20:55.000Z</time></trkpt>
        <trkpt lat="29.569418" lon="103.41261"><ele>869</ele><time>2026-05-15T18:21:03.000Z</time></trkpt>
        <trkpt lat="29.569411" lon="103.412498"><ele>870</ele><time>2026-05-15T18:21:15.000Z</time></trkpt>
        <trkpt lat="29.569382" lon="103.412383"><ele>871</ele><time>2026-05-15T18:21:27.000Z</time></trkpt>
        <trkpt lat="29.569391" lon="103.412277"><ele>871</ele><time>2026-05-15T18:21:38.000Z</time></trkpt>
        <trkpt lat="29.569343" lon="103.412187"><ele>871</ele><time>2026-05-15T18:21:57.000Z</time></trkpt>
        <trkpt lat="29.56925" lon="103.412135"><ele>869</ele><time>2026-05-15T18:22:07.000Z</time></trkpt>
        <trkpt lat="29.569157" lon="103.412083"><ele>868</ele><time>2026-05-15T18:22:21.000Z</time></trkpt>
        <trkpt lat="29.569084" lon="103.412014"><ele>866</ele><time>2026-05-15T18:22:31.000Z</time></trkpt>
        <trkpt lat="29.569018" lon="103.411924"><ele>865</ele><time>2026-05-15T18:22:42.000Z</time></trkpt>
        <trkpt lat="29.568956" lon="103.411838"><ele>864</ele><time>2026-05-15T18:22:50.000Z</time></trkpt>
        <trkpt lat="29.568866" lon="103.4118"><ele>863</ele><time>2026-05-15T18:22:56.000Z</time></trkpt>
        <trkpt lat="29.568771" lon="103.411771"><ele>862</ele><time>2026-05-15T18:23:08.000Z</time></trkpt>
        <trkpt lat="29.568681" lon="103.41172"><ele>860</ele><time>2026-05-15T18:23:24.000Z</time></trkpt>
        <trkpt lat="29.568597" lon="103.411648"><ele>857</ele><time>2026-05-15T18:23:36.000Z</time></trkpt>
        <trkpt lat="29.568522" lon="103.411565"><ele>854</ele><time>2026-05-15T18:23:45.000Z</time></trkpt>
        <trkpt lat="29.568483" lon="103.411465"><ele>851</ele><time>2026-05-15T18:23:57.000Z</time></trkpt>
        <trkpt lat="29.568501" lon="103.411358"><ele>849</ele><time>2026-05-15T18:24:05.000Z</time></trkpt>
        <trkpt lat="29.568545" lon="103.411259"><ele>848</ele><time>2026-05-15T18:24:11.000Z</time></trkpt>
        <trkpt lat="29.568582" lon="103.411137"><ele>846</ele><time>2026-05-15T18:24:19.000Z</time></trkpt>
        <trkpt lat="29.568606" lon="103.41101"><ele>844</ele><time>2026-05-15T18:24:27.000Z</time></trkpt>
        <trkpt lat="29.568642" lon="103.410887"><ele>843</ele><time>2026-05-15T18:24:35.000Z</time></trkpt>
        <trkpt lat="29.568678" lon="103.410777"><ele>841</ele><time>2026-05-15T18:24:44.000Z</time></trkpt>
        <trkpt lat="29.56871" lon="103.410677"><ele>838</ele><time>2026-05-15T18:24:50.000Z</time></trkpt>
        <trkpt lat="29.568737" lon="103.410565"><ele>837</ele><time>2026-05-15T18:24:56.000Z</time></trkpt>
        <trkpt lat="29.568745" lon="103.410455"><ele>836</ele><time>2026-05-15T18:25:02.000Z</time></trkpt>
        <trkpt lat="29.568735" lon="103.410338"><ele>835</ele><time>2026-05-15T18:25:08.000Z</time></trkpt>
        <trkpt lat="29.568723" lon="103.41022"><ele>834</ele><time>2026-05-15T18:25:14.000Z</time></trkpt>
        <trkpt lat="29.568717" lon="103.410109"><ele>833</ele><time>2026-05-15T18:25:20.000Z</time></trkpt>
        <trkpt lat="29.568682" lon="103.41001"><ele>831</ele><time>2026-05-15T18:25:26.000Z</time></trkpt>
        <trkpt lat="29.568604" lon="103.409941"><ele>830</ele><time>2026-05-15T18:25:32.000Z</time></trkpt>
        <trkpt lat="29.568533" lon="103.409861"><ele>828</ele><time>2026-05-15T18:25:38.000Z</time></trkpt>
        <trkpt lat="29.568446" lon="103.409868"><ele>826</ele><time>2026-05-15T18:25:53.000Z</time></trkpt>
        <trkpt lat="29.568379" lon="103.409817"><ele>826</ele><time>2026-05-15T18:26:05.000Z</time></trkpt>
        <trkpt lat="29.56833" lon="103.409724"><ele>825</ele><time>2026-05-15T18:26:17.000Z</time></trkpt>
        <trkpt lat="29.568292" lon="103.40962"><ele>824</ele><time>2026-05-15T18:26:31.000Z</time></trkpt>
        <trkpt lat="29.568253" lon="103.409511"><ele>823</ele><time>2026-05-15T18:26:45.000Z</time></trkpt>
        <trkpt lat="29.568202" lon="103.40941"><ele>822</ele><time>2026-05-15T18:26:57.000Z</time></trkpt>
        <trkpt lat="29.568152" lon="103.409318"><ele>820</ele><time>2026-05-15T18:27:09.000Z</time></trkpt>
        <trkpt lat="29.568101" lon="103.409223"><ele>819</ele><time>2026-05-15T18:27:19.000Z</time></trkpt>
        <trkpt lat="29.568059" lon="103.409116"><ele>817</ele><time>2026-05-15T18:27:31.000Z</time></trkpt>
        <trkpt lat="29.568009" lon="103.409022"><ele>814</ele><time>2026-05-15T18:27:43.000Z</time></trkpt>
        <trkpt lat="29.56796" lon="103.408921"><ele>812</ele><time>2026-05-15T18:27:52.000Z</time></trkpt>
        <trkpt lat="29.567931" lon="103.408807"><ele>809</ele><time>2026-05-15T18:28:06.000Z</time></trkpt>
        <trkpt lat="29.567904" lon="103.408694"><ele>805</ele><time>2026-05-15T18:28:16.000Z</time></trkpt>
        <trkpt lat="29.56785" lon="103.408601"><ele>801</ele><time>2026-05-15T18:28:24.000Z</time></trkpt>
        <trkpt lat="29.5678" lon="103.408506"><ele>797</ele><time>2026-05-15T18:28:36.000Z</time></trkpt>
        <trkpt lat="29.567732" lon="103.408433"><ele>792</ele><time>2026-05-15T18:28:49.000Z</time></trkpt>
        <trkpt lat="29.567636" lon="103.408476"><ele>788</ele><time>2026-05-15T18:29:05.000Z</time></trkpt>
        <trkpt lat="29.567539" lon="103.408571"><ele>785</ele><time>2026-05-15T18:29:11.000Z</time></trkpt>
        <trkpt lat="29.567437" lon="103.408591"><ele>783</ele><time>2026-05-15T18:29:17.000Z</time></trkpt>
        <trkpt lat="29.567338" lon="103.408559"><ele>781</ele><time>2026-05-15T18:29:23.000Z</time></trkpt>
        <trkpt lat="29.567252" lon="103.408507"><ele>780</ele><time>2026-05-15T18:29:29.000Z</time></trkpt>
        <trkpt lat="29.567151" lon="103.408454"><ele>779</ele><time>2026-05-15T18:29:37.000Z</time></trkpt>
        <trkpt lat="29.567049" lon="103.40843"><ele>778</ele><time>2026-05-15T18:29:43.000Z</time></trkpt>
        <trkpt lat="29.566944" lon="103.408424"><ele>776</ele><time>2026-05-15T18:29:50.000Z</time></trkpt>
        <trkpt lat="29.566845" lon="103.408422"><ele>775</ele><time>2026-05-15T18:29:56.000Z</time></trkpt>
        <trkpt lat="29.566741" lon="103.408388"><ele>774</ele><time>2026-05-15T18:30:04.000Z</time></trkpt>
        <trkpt lat="29.566692" lon="103.408294"><ele>774</ele><time>2026-05-15T18:30:12.000Z</time></trkpt>
        <trkpt lat="29.566698" lon="103.408184"><ele>774</ele><time>2026-05-15T18:30:20.000Z</time></trkpt>
        <trkpt lat="29.566712" lon="103.408066"><ele>773</ele><time>2026-05-15T18:30:26.000Z</time></trkpt>
        <trkpt lat="29.566705" lon="103.407953"><ele>772</ele><time>2026-05-15T18:30:34.000Z</time></trkpt>
        <trkpt lat="29.566688" lon="103.407839"><ele>771</ele><time>2026-05-15T18:30:42.000Z</time></trkpt>
        <trkpt lat="29.56665" lon="103.407728"><ele>771</ele><time>2026-05-15T18:30:49.000Z</time></trkpt>
        <trkpt lat="29.566637" lon="103.407616"><ele>772</ele><time>2026-05-15T18:30:55.000Z</time></trkpt>
        <trkpt lat="29.566601" lon="103.407521"><ele>773</ele><time>2026-05-15T18:31:01.000Z</time></trkpt>
        <trkpt lat="29.566563" lon="103.407404"><ele>774</ele><time>2026-05-15T18:31:09.000Z</time></trkpt>
        <trkpt lat="29.56654" lon="103.407289"><ele>774</ele><time>2026-05-15T18:31:17.000Z</time></trkpt>
        <trkpt lat="29.566526" lon="103.40718"><ele>774</ele><time>2026-05-15T18:31:23.000Z</time></trkpt>
        <trkpt lat="29.566514" lon="103.407075"><ele>774</ele><time>2026-05-15T18:31:29.000Z</time></trkpt>
        <trkpt lat="29.566513" lon="103.406967"><ele>774</ele><time>2026-05-15T18:31:35.000Z</time></trkpt>
        <trkpt lat="29.566536" lon="103.406847"><ele>773</ele><time>2026-05-15T18:31:43.000Z</time></trkpt>
        <trkpt lat="29.566602" lon="103.406753"><ele>773</ele><time>2026-05-15T18:31:52.000Z</time></trkpt>
        <trkpt lat="29.566684" lon="103.406662"><ele>773</ele><time>2026-05-15T18:32:00.000Z</time></trkpt>
        <trkpt lat="29.566761" lon="103.406582"><ele>772</ele><time>2026-05-15T18:32:06.000Z</time></trkpt>
        <trkpt lat="29.566833" lon="103.406509"><ele>772</ele><time>2026-05-15T18:32:12.000Z</time></trkpt>
        <trkpt lat="29.566902" lon="103.406421"><ele>772</ele><time>2026-05-15T18:32:18.000Z</time></trkpt>
        <trkpt lat="29.566961" lon="103.406325"><ele>772</ele><time>2026-05-15T18:32:24.000Z</time></trkpt>
        <trkpt lat="29.567025" lon="103.406211"><ele>771</ele><time>2026-05-15T18:32:32.000Z</time></trkpt>
        <trkpt lat="29.56708" lon="103.406106"><ele>770</ele><time>2026-05-15T18:32:38.000Z</time></trkpt>
        <trkpt lat="29.567127" lon="103.406006"><ele>769</ele><time>2026-05-15T18:32:44.000Z</time></trkpt>
        <trkpt lat="29.567169" lon="103.405906"><ele>769</ele><time>2026-05-15T18:32:49.000Z</time></trkpt>
        <trkpt lat="29.567142" lon="103.405794"><ele>768</ele><time>2026-05-15T18:32:57.000Z</time></trkpt>
        <trkpt lat="29.567076" lon="103.405708"><ele>766</ele><time>2026-05-15T18:33:03.000Z</time></trkpt>
        <trkpt lat="29.567002" lon="103.405624"><ele>764</ele><time>2026-05-15T18:33:09.000Z</time></trkpt>
        <trkpt lat="29.566917" lon="103.405535"><ele>762</ele><time>2026-05-15T18:33:15.000Z</time></trkpt>
        <trkpt lat="29.566839" lon="103.405439"><ele>761</ele><time>2026-05-15T18:33:21.000Z</time></trkpt>
        <trkpt lat="29.566788" lon="103.405339"><ele>759</ele><time>2026-05-15T18:33:27.000Z</time></trkpt>
        <trkpt lat="29.566768" lon="103.405214"><ele>759</ele><time>2026-05-15T18:33:35.000Z</time></trkpt>
        <trkpt lat="29.566834" lon="103.405139"><ele>757</ele><time>2026-05-15T18:33:45.000Z</time></trkpt>
        <trkpt lat="29.566947" lon="103.405149"><ele>756</ele><time>2026-05-15T18:33:53.000Z</time></trkpt>
        <trkpt lat="29.567065" lon="103.405154"><ele>755</ele><time>2026-05-15T18:33:59.000Z</time></trkpt>
        <trkpt lat="29.567188" lon="103.40513"><ele>755</ele><time>2026-05-15T18:34:05.000Z</time></trkpt>
        <trkpt lat="29.567299" lon="103.405105"><ele>755</ele><time>2026-05-15T18:34:11.000Z</time></trkpt>
        <trkpt lat="29.567403" lon="103.405089"><ele>755</ele><time>2026-05-15T18:34:17.000Z</time></trkpt>
        <trkpt lat="29.567515" lon="103.405087"><ele>756</ele><time>2026-05-15T18:34:25.000Z</time></trkpt>
        <trkpt lat="29.567616" lon="103.405094"><ele>756</ele><time>2026-05-15T18:34:31.000Z</time></trkpt>
        <trkpt lat="29.567708" lon="103.405109"><ele>756</ele><time>2026-05-15T18:34:37.000Z</time></trkpt>
        <trkpt lat="29.567798" lon="103.405117"><ele>756</ele><time>2026-05-15T18:34:43.000Z</time></trkpt>
        <trkpt lat="29.567891" lon="103.405088"><ele>756</ele><time>2026-05-15T18:34:49.000Z</time></trkpt>
        <trkpt lat="29.567992" lon="103.405026"><ele>757</ele><time>2026-05-15T18:34:56.000Z</time></trkpt>
        <trkpt lat="29.56809" lon="103.40496"><ele>756</ele><time>2026-05-15T18:35:02.000Z</time></trkpt>
        <trkpt lat="29.568183" lon="103.40491"><ele>756</ele><time>2026-05-15T18:35:08.000Z</time></trkpt>
        <trkpt lat="29.568266" lon="103.40486"><ele>756</ele><time>2026-05-15T18:35:14.000Z</time></trkpt>
        <trkpt lat="29.568339" lon="103.40479"><ele>755</ele><time>2026-05-15T18:35:20.000Z</time></trkpt>
        <trkpt lat="29.568398" lon="103.404708"><ele>755</ele><time>2026-05-15T18:35:26.000Z</time></trkpt>
        <trkpt lat="29.568453" lon="103.404606"><ele>754</ele><time>2026-05-15T18:35:34.000Z</time></trkpt>
        <trkpt lat="29.568507" lon="103.404506"><ele>754</ele><time>2026-05-15T18:35:40.000Z</time></trkpt>
        <trkpt lat="29.568558" lon="103.40439"><ele>754</ele><time>2026-05-15T18:35:48.000Z</time></trkpt>
        <trkpt lat="29.568607" lon="103.404282"><ele>754</ele><time>2026-05-15T18:35:55.000Z</time></trkpt>
        <trkpt lat="29.568664" lon="103.404185"><ele>754</ele><time>2026-05-15T18:36:01.000Z</time></trkpt>
        <trkpt lat="29.568725" lon="103.404092"><ele>754</ele><time>2026-05-15T18:36:07.000Z</time></trkpt>
        <trkpt lat="29.568798" lon="103.404001"><ele>754</ele><time>2026-05-15T18:36:13.000Z</time></trkpt>
        <trkpt lat="29.568902" lon="103.403958"><ele>754</ele><time>2026-05-15T18:36:21.000Z</time></trkpt>
        <trkpt lat="29.569023" lon="103.403975"><ele>753</ele><time>2026-05-15T18:36:29.000Z</time></trkpt>
        <trkpt lat="29.569136" lon="103.40399"><ele>754</ele><time>2026-05-15T18:36:35.000Z</time></trkpt>
        <trkpt lat="29.569233" lon="103.403973"><ele>753</ele><time>2026-05-15T18:36:41.000Z</time></trkpt>
        <trkpt lat="29.569335" lon="103.403924"><ele>753</ele><time>2026-05-15T18:36:49.000Z</time></trkpt>
        <trkpt lat="29.569434" lon="103.403861"><ele>752</ele><time>2026-05-15T18:36:56.000Z</time></trkpt>
        <trkpt lat="29.569524" lon="103.403789"><ele>751</ele><time>2026-05-15T18:37:02.000Z</time></trkpt>
        <trkpt lat="29.569606" lon="103.403716"><ele>750</ele><time>2026-05-15T18:37:08.000Z</time></trkpt>
        <trkpt lat="29.569685" lon="103.403642"><ele>749</ele><time>2026-05-15T18:37:14.000Z</time></trkpt>
        <trkpt lat="29.569771" lon="103.403552"><ele>748</ele><time>2026-05-15T18:37:22.000Z</time></trkpt>
        <trkpt lat="29.569852" lon="103.403461"><ele>747</ele><time>2026-05-15T18:37:30.000Z</time></trkpt>
        <trkpt lat="29.569915" lon="103.403356"><ele>747</ele><time>2026-05-15T18:37:38.000Z</time></trkpt>
        <trkpt lat="29.569978" lon="103.403251"><ele>748</ele><time>2026-05-15T18:37:46.000Z</time></trkpt>
        <trkpt lat="29.570018" lon="103.403145"><ele>748</ele><time>2026-05-15T18:37:52.000Z</time></trkpt>
        <trkpt lat="29.570056" lon="103.403043"><ele>749</ele><time>2026-05-15T18:38:00.000Z</time></trkpt>
        <trkpt lat="29.570119" lon="103.402968"><ele>749</ele><time>2026-05-15T18:38:06.000Z</time></trkpt>
        <trkpt lat="29.570206" lon="103.40293"><ele>749</ele><time>2026-05-15T18:38:12.000Z</time></trkpt>
        <trkpt lat="29.5703" lon="103.402916"><ele>749</ele><time>2026-05-15T18:38:18.000Z</time></trkpt>
        <trkpt lat="29.57041" lon="103.402913"><ele>749</ele><time>2026-05-15T18:38:26.000Z</time></trkpt>
        <trkpt lat="29.570513" lon="103.402914"><ele>749</ele><time>2026-05-15T18:38:32.000Z</time></trkpt>
        <trkpt lat="29.570625" lon="103.402903"><ele>748</ele><time>2026-05-15T18:38:40.000Z</time></trkpt>
        <trkpt lat="29.570723" lon="103.402883"><ele>747</ele><time>2026-05-15T18:38:46.000Z</time></trkpt>
        <trkpt lat="29.570811" lon="103.402849"><ele>745</ele><time>2026-05-15T18:38:52.000Z</time></trkpt>
        <trkpt lat="29.5709" lon="103.402801"><ele>742</ele><time>2026-05-15T18:38:58.000Z</time></trkpt>
        <trkpt lat="29.570984" lon="103.402743"><ele>740</ele><time>2026-05-15T18:39:04.000Z</time></trkpt>
        <trkpt lat="29.571068" lon="103.402687"><ele>737</ele><time>2026-05-15T18:39:10.000Z</time></trkpt>
        <trkpt lat="29.571141" lon="103.402621"><ele>735</ele><time>2026-05-15T18:39:16.000Z</time></trkpt>
        <trkpt lat="29.571208" lon="103.402546"><ele>734</ele><time>2026-05-15T18:39:22.000Z</time></trkpt>
        <trkpt lat="29.571267" lon="103.402464"><ele>733</ele><time>2026-05-15T18:39:28.000Z</time></trkpt>
        <trkpt lat="29.571323" lon="103.402359"><ele>732</ele><time>2026-05-15T18:39:36.000Z</time></trkpt>
        <trkpt lat="29.571389" lon="103.402248"><ele>732</ele><time>2026-05-15T18:39:44.000Z</time></trkpt>
        <trkpt lat="29.571462" lon="103.402141"><ele>732</ele><time>2026-05-15T18:39:52.000Z</time></trkpt>
        <trkpt lat="29.57153" lon="103.402053"><ele>733</ele><time>2026-05-15T18:39:57.000Z</time></trkpt>
        <trkpt lat="29.571602" lon="103.401973"><ele>732</ele><time>2026-05-15T18:40:07.000Z</time></trkpt>
        <trkpt lat="29.571696" lon="103.401944"><ele>731</ele><time>2026-05-15T18:40:15.000Z</time></trkpt>
        <trkpt lat="29.571782" lon="103.401877"><ele>731</ele><time>2026-05-15T18:40:27.000Z</time></trkpt>
        <trkpt lat="29.571847" lon="103.401783"><ele>731</ele><time>2026-05-15T18:40:35.000Z</time></trkpt>
        <trkpt lat="29.571919" lon="103.401709"><ele>731</ele><time>2026-05-15T18:40:41.000Z</time></trkpt>
        <trkpt lat="29.572008" lon="103.401651"><ele>731</ele><time>2026-05-15T18:40:47.000Z</time></trkpt>
        <trkpt lat="29.572076" lon="103.401564"><ele>730</ele><time>2026-05-15T18:40:55.000Z</time></trkpt>
        <trkpt lat="29.572095" lon="103.401459"><ele>730</ele><time>2026-05-15T18:41:04.000Z</time></trkpt>
        <trkpt lat="29.572091" lon="103.401346"><ele>730</ele><time>2026-05-15T18:41:16.000Z</time></trkpt>
        <trkpt lat="29.57208" lon="103.401235"><ele>730</ele><time>2026-05-15T18:41:32.000Z</time></trkpt>
        <trkpt lat="29.572053" lon="103.40112"><ele>730</ele><time>2026-05-15T18:41:46.000Z</time></trkpt>
        <trkpt lat="29.57204" lon="103.40101"><ele>730</ele><time>2026-05-15T18:41:56.000Z</time></trkpt>
        <trkpt lat="29.572019" lon="103.400899"><ele>732</ele><time>2026-05-15T18:42:19.000Z</time></trkpt>
        <trkpt lat="29.571999" lon="103.400792"><ele>734</ele><time>2026-05-15T18:42:41.000Z</time></trkpt>
        <trkpt lat="29.571973" lon="103.400691"><ele>736</ele><time>2026-05-15T18:43:07.000Z</time></trkpt>
        <trkpt lat="29.571949" lon="103.400581"><ele>739</ele><time>2026-05-15T18:43:31.000Z</time></trkpt>
        <trkpt lat="29.571938" lon="103.400476"><ele>743</ele><time>2026-05-15T18:43:55.000Z</time></trkpt>
        <trkpt lat="29.57193" lon="103.400369"><ele>747</ele><time>2026-05-15T18:44:15.000Z</time></trkpt>
        <trkpt lat="29.571928" lon="103.400257"><ele>751</ele><time>2026-05-15T18:44:33.000Z</time></trkpt>
        <trkpt lat="29.571921" lon="103.400146"><ele>754</ele><time>2026-05-15T18:44:53.000Z</time></trkpt>
        <trkpt lat="29.571912" lon="103.400038"><ele>757</ele><time>2026-05-15T18:45:12.000Z</time></trkpt>
        <trkpt lat="29.571912" lon="103.399933"><ele>760</ele><time>2026-05-15T18:45:36.000Z</time></trkpt>
        <trkpt lat="29.571921" lon="103.399825"><ele>766</ele><time>2026-05-15T18:46:09.000Z</time></trkpt>
        <trkpt lat="29.571909" lon="103.399718"><ele>774</ele><time>2026-05-15T18:46:25.000Z</time></trkpt>
        <trkpt lat="29.571895" lon="103.399606"><ele>781</ele><time>2026-05-15T18:46:39.000Z</time></trkpt>
        <trkpt lat="29.571896" lon="103.399496"><ele>785</ele><time>2026-05-15T18:46:49.000Z</time></trkpt>
        <trkpt lat="29.571899" lon="103.399385"><ele>788</ele><time>2026-05-15T18:47:01.000Z</time></trkpt>
        <trkpt lat="29.571875" lon="103.39928"><ele>791</ele><time>2026-05-15T18:47:22.000Z</time></trkpt>
        <trkpt lat="29.571828" lon="103.399187"><ele>794</ele><time>2026-05-15T18:47:38.000Z</time></trkpt>
        <trkpt lat="29.571787" lon="103.399089"><ele>797</ele><time>2026-05-15T18:47:56.000Z</time></trkpt>
        <trkpt lat="29.571745" lon="103.39899"><ele>800</ele><time>2026-05-15T18:48:09.000Z</time></trkpt>
        <trkpt lat="29.57172" lon="103.398885"><ele>802</ele><time>2026-05-15T18:48:19.000Z</time></trkpt>
        <trkpt lat="29.571692" lon="103.398776"><ele>804</ele><time>2026-05-15T18:48:27.000Z</time></trkpt>
        <trkpt lat="29.571668" lon="103.398668"><ele>806</ele><time>2026-05-15T18:48:35.000Z</time></trkpt>
        <trkpt lat="29.571641" lon="103.398554"><ele>806</ele><time>2026-05-15T18:48:47.000Z</time></trkpt>
        <trkpt lat="29.571635" lon="103.398445"><ele>806</ele><time>2026-05-15T18:48:59.000Z</time></trkpt>
        <trkpt lat="29.571641" lon="103.398339"><ele>805</ele><time>2026-05-15T18:49:10.000Z</time></trkpt>
        <trkpt lat="29.571651" lon="103.398224"><ele>804</ele><time>2026-05-15T18:49:24.000Z</time></trkpt>
        <trkpt lat="29.571661" lon="103.398113"><ele>803</ele><time>2026-05-15T18:49:34.000Z</time></trkpt>
        <trkpt lat="29.571643" lon="103.398006"><ele>801</ele><time>2026-05-15T18:49:46.000Z</time></trkpt>
        <trkpt lat="29.571609" lon="103.397895"><ele>799</ele><time>2026-05-15T18:49:58.000Z</time></trkpt>
        <trkpt lat="29.571584" lon="103.397785"><ele>797</ele><time>2026-05-15T18:50:13.000Z</time></trkpt>
        <trkpt lat="29.571552" lon="103.397683"><ele>793</ele><time>2026-05-15T18:50:25.000Z</time></trkpt>
        <trkpt lat="29.571518" lon="103.397577"><ele>790</ele><time>2026-05-15T18:50:35.000Z</time></trkpt>
        <trkpt lat="29.571521" lon="103.397463"><ele>787</ele><time>2026-05-15T18:50:47.000Z</time></trkpt>
        <trkpt lat="29.571544" lon="103.397338"><ele>784</ele><time>2026-05-15T18:50:59.000Z</time></trkpt>
        <trkpt lat="29.571582" lon="103.397232"><ele>782</ele><time>2026-05-15T18:51:12.000Z</time></trkpt>
        <trkpt lat="29.571634" lon="103.397129"><ele>779</ele><time>2026-05-15T18:51:24.000Z</time></trkpt>
        <trkpt lat="29.571686" lon="103.397035"><ele>776</ele><time>2026-05-15T18:51:34.000Z</time></trkpt>
        <trkpt lat="29.571736" lon="103.396944"><ele>774</ele><time>2026-05-15T18:51:44.000Z</time></trkpt>
        <trkpt lat="29.571798" lon="103.396856"><ele>771</ele><time>2026-05-15T18:51:56.000Z</time></trkpt>
        <trkpt lat="29.571889" lon="103.396806"><ele>767</ele><time>2026-05-15T18:52:09.000Z</time></trkpt>
        <trkpt lat="29.571984" lon="103.396785"><ele>762</ele><time>2026-05-15T18:52:21.000Z</time></trkpt>
        <trkpt lat="29.572084" lon="103.396767"><ele>758</ele><time>2026-05-15T18:52:35.000Z</time></trkpt>
        <trkpt lat="29.572189" lon="103.396758"><ele>753</ele><time>2026-05-15T18:52:51.000Z</time></trkpt>
        <trkpt lat="29.572286" lon="103.396729"><ele>748</ele><time>2026-05-15T18:53:07.000Z</time></trkpt>
        <trkpt lat="29.572355" lon="103.396642"><ele>744</ele><time>2026-05-15T18:53:16.000Z</time></trkpt>
        <trkpt lat="29.572374" lon="103.396534"><ele>740</ele><time>2026-05-15T18:53:26.000Z</time></trkpt>
        <trkpt lat="29.572389" lon="103.39641"><ele>737</ele><time>2026-05-15T18:53:34.000Z</time></trkpt>
        <trkpt lat="29.572424" lon="103.396282"><ele>735</ele><time>2026-05-15T18:53:44.000Z</time></trkpt>
        <trkpt lat="29.572446" lon="103.396166"><ele>732</ele><time>2026-05-15T18:53:54.000Z</time></trkpt>
        <trkpt lat="29.572495" lon="103.396068"><ele>730</ele><time>2026-05-15T18:54:06.000Z</time></trkpt>
        <trkpt lat="29.572572" lon="103.39599"><ele>729</ele><time>2026-05-15T18:54:17.000Z</time></trkpt>
        <trkpt lat="29.572657" lon="103.395924"><ele>727</ele><time>2026-05-15T18:54:27.000Z</time></trkpt>
        <trkpt lat="29.572744" lon="103.395846"><ele>725</ele><time>2026-05-15T18:54:37.000Z</time></trkpt>
        <trkpt lat="29.572809" lon="103.395743"><ele>723</ele><time>2026-05-15T18:54:45.000Z</time></trkpt>
        <trkpt lat="29.572863" lon="103.395651"><ele>721</ele><time>2026-05-15T18:54:51.000Z</time></trkpt>
        <trkpt lat="29.572904" lon="103.395554"><ele>719</ele><time>2026-05-15T18:54:59.000Z</time></trkpt>
        <trkpt lat="29.572953" lon="103.39545"><ele>718</ele><time>2026-05-15T18:55:07.000Z</time></trkpt>
        <trkpt lat="29.573001" lon="103.395354"><ele>718</ele><time>2026-05-15T18:55:13.000Z</time></trkpt>
        <trkpt lat="29.572983" lon="103.395243"><ele>717</ele><time>2026-05-15T18:55:23.000Z</time></trkpt>
        <trkpt lat="29.572957" lon="103.395131"><ele>716</ele><time>2026-05-15T18:55:31.000Z</time></trkpt>
        <trkpt lat="29.57296" lon="103.395021"><ele>715</ele><time>2026-05-15T18:55:37.000Z</time></trkpt>
        <trkpt lat="29.57296" lon="103.394893"><ele>713</ele><time>2026-05-15T18:55:45.000Z</time></trkpt>
        <trkpt lat="29.572915" lon="103.394795"><ele>711</ele><time>2026-05-15T18:55:53.000Z</time></trkpt>
        <trkpt lat="29.572837" lon="103.394709"><ele>709</ele><time>2026-05-15T18:56:05.000Z</time></trkpt>
        <trkpt lat="29.572782" lon="103.394618"><ele>706</ele><time>2026-05-15T18:56:15.000Z</time></trkpt>
        <trkpt lat="29.572788" lon="103.394512"><ele>703</ele><time>2026-05-15T18:56:25.000Z</time></trkpt>
        <trkpt lat="29.572817" lon="103.394402"><ele>700</ele><time>2026-05-15T18:56:33.000Z</time></trkpt>
        <trkpt lat="29.572857" lon="103.394294"><ele>697</ele><time>2026-05-15T18:56:43.000Z</time></trkpt>
        <trkpt lat="29.572909" lon="103.394186"><ele>694</ele><time>2026-05-15T18:56:51.000Z</time></trkpt>
        <trkpt lat="29.572952" lon="103.394061"><ele>691</ele><time>2026-05-15T18:56:59.000Z</time></trkpt>
        <trkpt lat="29.573005" lon="103.393941"><ele>689</ele><time>2026-05-15T18:57:07.000Z</time></trkpt>
        <trkpt lat="29.573046" lon="103.393831"><ele>686</ele><time>2026-05-15T18:57:14.000Z</time></trkpt>
        <trkpt lat="29.573117" lon="103.393746"><ele>686</ele><time>2026-05-15T18:57:22.000Z</time></trkpt>
        <trkpt lat="29.573206" lon="103.393731"><ele>685</ele><time>2026-05-15T18:57:32.000Z</time></trkpt>
        <trkpt lat="29.573308" lon="103.393707"><ele>687</ele><time>2026-05-15T18:57:42.000Z</time></trkpt>
        <trkpt lat="29.5734" lon="103.393633"><ele>687</ele><time>2026-05-15T18:57:48.000Z</time></trkpt>
        <trkpt lat="29.573486" lon="103.393569"><ele>688</ele><time>2026-05-15T18:57:56.000Z</time></trkpt>
        <trkpt lat="29.573581" lon="103.393526"><ele>689</ele><time>2026-05-15T18:58:04.000Z</time></trkpt>
        <trkpt lat="29.573632" lon="103.393492"><ele>690</ele><time>2026-05-15T18:58:10.000Z</time></trkpt>
        <trkpt lat="29.573717" lon="103.39344"><ele>690</ele><time>2026-05-15T18:58:19.000Z</time></trkpt>
        <trkpt lat="29.573816" lon="103.393397"><ele>689</ele><time>2026-05-15T18:58:25.000Z</time></trkpt>
        <trkpt lat="29.573905" lon="103.393344"><ele>687</ele><time>2026-05-15T18:58:31.000Z</time></trkpt>
        <trkpt lat="29.57397" lon="103.393261"><ele>686</ele><time>2026-05-15T18:58:39.000Z</time></trkpt>
        <trkpt lat="29.574009" lon="103.393159"><ele>684</ele><time>2026-05-15T18:58:47.000Z</time></trkpt>
        <trkpt lat="29.574037" lon="103.393043"><ele>682</ele><time>2026-05-15T18:58:57.000Z</time></trkpt>
        <trkpt lat="29.574079" lon="103.392937"><ele>679</ele><time>2026-05-15T18:59:07.000Z</time></trkpt>
        <trkpt lat="29.574124" lon="103.392829"><ele>676</ele><time>2026-05-15T18:59:16.000Z</time></trkpt>
        <trkpt lat="29.574133" lon="103.392719"><ele>672</ele><time>2026-05-15T18:59:26.000Z</time></trkpt>
        <trkpt lat="29.574104" lon="103.392594"><ele>668</ele><time>2026-05-15T18:59:34.000Z</time></trkpt>
        <trkpt lat="29.57406" lon="103.392478"><ele>665</ele><time>2026-05-15T18:59:42.000Z</time></trkpt>
        <trkpt lat="29.574101" lon="103.392398"><ele>661</ele><time>2026-05-15T19:00:04.000Z</time></trkpt>
        <trkpt lat="29.574128" lon="103.392285"><ele>657</ele><time>2026-05-15T19:00:25.000Z</time></trkpt>
        <trkpt lat="29.574135" lon="103.392166"><ele>653</ele><time>2026-05-15T19:00:33.000Z</time></trkpt>
        <trkpt lat="29.574092" lon="103.392071"><ele>652</ele><time>2026-05-15T19:00:49.000Z</time></trkpt>
        <trkpt lat="29.574004" lon="103.392073"><ele>652</ele><time>2026-05-15T19:01:01.000Z</time></trkpt>
        <trkpt lat="29.573891" lon="103.3921"><ele>652</ele><time>2026-05-15T19:01:15.000Z</time></trkpt>
        <trkpt lat="29.573788" lon="103.392103"><ele>653</ele><time>2026-05-15T19:01:22.000Z</time></trkpt>
        <trkpt lat="29.573687" lon="103.392069"><ele>653</ele><time>2026-05-15T19:01:30.000Z</time></trkpt>
        <trkpt lat="29.5736" lon="103.391998"><ele>654</ele><time>2026-05-15T19:01:40.000Z</time></trkpt>
        <trkpt lat="29.573519" lon="103.391916"><ele>655</ele><time>2026-05-15T19:01:50.000Z</time></trkpt>
        <trkpt lat="29.573447" lon="103.391827"><ele>655</ele><time>2026-05-15T19:02:02.000Z</time></trkpt>
        <trkpt lat="29.57336" lon="103.391768"><ele>656</ele><time>2026-05-15T19:02:14.000Z</time></trkpt>
        <trkpt lat="29.573296" lon="103.391693"><ele>656</ele><time>2026-05-15T19:02:33.000Z</time></trkpt>
        <trkpt lat="29.573214" lon="103.391643"><ele>658</ele><time>2026-05-15T19:02:53.000Z</time></trkpt>
        <trkpt lat="29.57311" lon="103.391614"><ele>661</ele><time>2026-05-15T19:02:59.000Z</time></trkpt>
        <trkpt lat="29.572996" lon="103.391612"><ele>664</ele><time>2026-05-15T19:03:07.000Z</time></trkpt>
        <trkpt lat="29.572896" lon="103.391626"><ele>667</ele><time>2026-05-15T19:03:15.000Z</time></trkpt>
        <trkpt lat="29.572793" lon="103.391665"><ele>670</ele><time>2026-05-15T19:03:26.000Z</time></trkpt>
        <trkpt lat="29.572694" lon="103.391715"><ele>674</ele><time>2026-05-15T19:03:38.000Z</time></trkpt>
        <trkpt lat="29.572608" lon="103.391777"><ele>678</ele><time>2026-05-15T19:03:46.000Z</time></trkpt>
        <trkpt lat="29.572515" lon="103.391834"><ele>680</ele><time>2026-05-15T19:03:56.000Z</time></trkpt>
        <trkpt lat="29.57241" lon="103.391834"><ele>681</ele><time>2026-05-15T19:04:06.000Z</time></trkpt>
        <trkpt lat="29.572303" lon="103.391834"><ele>681</ele><time>2026-05-15T19:04:16.000Z</time></trkpt>
        <trkpt lat="29.5722" lon="103.391806"><ele>681</ele><time>2026-05-15T19:04:25.000Z</time></trkpt>
        <trkpt lat="29.572107" lon="103.391798"><ele>682</ele><time>2026-05-15T19:04:31.000Z</time></trkpt>
        <trkpt lat="29.572006" lon="103.391786"><ele>684</ele><time>2026-05-15T19:04:37.000Z</time></trkpt>
        <trkpt lat="29.571905" lon="103.391772"><ele>685</ele><time>2026-05-15T19:04:43.000Z</time></trkpt>
        <trkpt lat="29.5718" lon="103.391751"><ele>686</ele><time>2026-05-15T19:04:51.000Z</time></trkpt>
        <trkpt lat="29.571708" lon="103.391713"><ele>686</ele><time>2026-05-15T19:04:59.000Z</time></trkpt>
        <trkpt lat="29.57161" lon="103.391694"><ele>686</ele><time>2026-05-15T19:05:07.000Z</time></trkpt>
        <trkpt lat="29.571509" lon="103.391688"><ele>686</ele><time>2026-05-15T19:05:15.000Z</time></trkpt>
        <trkpt lat="29.571409" lon="103.391687"><ele>686</ele><time>2026-05-15T19:05:22.000Z</time></trkpt>
        <trkpt lat="29.571293" lon="103.39169"><ele>687</ele><time>2026-05-15T19:05:30.000Z</time></trkpt>
        <trkpt lat="29.571192" lon="103.391697"><ele>688</ele><time>2026-05-15T19:05:38.000Z</time></trkpt>
        <trkpt lat="29.571079" lon="103.391678"><ele>690</ele><time>2026-05-15T19:05:54.000Z</time></trkpt>
        <trkpt lat="29.570973" lon="103.391649"><ele>692</ele><time>2026-05-15T19:06:02.000Z</time></trkpt>
        <trkpt lat="29.570876" lon="103.391618"><ele>694</ele><time>2026-05-15T19:06:16.000Z</time></trkpt>
        <trkpt lat="29.570785" lon="103.391592"><ele>695</ele><time>2026-05-15T19:06:31.000Z</time></trkpt>
        <trkpt lat="29.570696" lon="103.391541"><ele>697</ele><time>2026-05-15T19:06:41.000Z</time></trkpt>
        <trkpt lat="29.570597" lon="103.391457"><ele>697</ele><time>2026-05-15T19:06:47.000Z</time></trkpt>
        <trkpt lat="29.570488" lon="103.391393"><ele>696</ele><time>2026-05-15T19:06:53.000Z</time></trkpt>
        <trkpt lat="29.570386" lon="103.391357"><ele>695</ele><time>2026-05-15T19:07:03.000Z</time></trkpt>
        <trkpt lat="29.570295" lon="103.391323"><ele>693</ele><time>2026-05-15T19:07:25.000Z</time></trkpt>
        <trkpt lat="29.570203" lon="103.391302"><ele>689</ele><time>2026-05-15T19:07:49.000Z</time></trkpt>
        <trkpt lat="29.570115" lon="103.391255"><ele>685</ele><time>2026-05-15T19:08:03.000Z</time></trkpt>
        <trkpt lat="29.570082" lon="103.391161"><ele>683</ele><time>2026-05-15T19:08:09.000Z</time></trkpt>
        <trkpt lat="29.570043" lon="103.39106"><ele>682</ele><time>2026-05-15T19:08:15.000Z</time></trkpt>
        <trkpt lat="29.569956" lon="103.391007"><ele>681</ele><time>2026-05-15T19:08:32.000Z</time></trkpt>
        <trkpt lat="29.569862" lon="103.390969"><ele>681</ele><time>2026-05-15T19:08:44.000Z</time></trkpt>
        <trkpt lat="29.569762" lon="103.390954"><ele>681</ele><time>2026-05-15T19:08:54.000Z</time></trkpt>
        <trkpt lat="29.569709" lon="103.390951"><ele>682</ele><time>2026-05-15T19:08:58.000Z</time></trkpt>
        <trkpt lat="29.569615" lon="103.39094"><ele>683</ele><time>2026-05-15T19:09:08.000Z</time></trkpt>
        <trkpt lat="29.569499" lon="103.390939"><ele>684</ele><time>2026-05-15T19:09:16.000Z</time></trkpt>
        <trkpt lat="29.569397" lon="103.390922"><ele>685</ele><time>2026-05-15T19:09:22.000Z</time></trkpt>
        <trkpt lat="29.569305" lon="103.390884"><ele>686</ele><time>2026-05-15T19:09:33.000Z</time></trkpt>
        <trkpt lat="29.569205" lon="103.39088"><ele>687</ele><time>2026-05-15T19:09:39.000Z</time></trkpt>
        <trkpt lat="29.569108" lon="103.390905"><ele>688</ele><time>2026-05-15T19:09:49.000Z</time></trkpt>
        <trkpt lat="29.569064" lon="103.390959"><ele>688</ele><time>2026-05-15T19:10:07.000Z</time></trkpt>
        <trkpt lat="29.569045" lon="103.391059"><ele>688</ele><time>2026-05-15T19:10:15.000Z</time></trkpt>
        <trkpt lat="29.569022" lon="103.391103"><ele>689</ele><time>2026-05-15T19:10:26.000Z</time></trkpt>
        <trkpt lat="29.568963" lon="103.391059"><ele>690</ele><time>2026-05-15T19:10:33.000Z</time></trkpt>
        <trkpt lat="29.568876" lon="103.391037"><ele>690</ele><time>2026-05-15T19:10:39.000Z</time></trkpt>
        <trkpt lat="29.568833" lon="103.391006"><ele>690</ele><time>2026-05-15T19:10:41.000Z</time></trkpt>
        <trkpt lat="29.568739" lon="103.390972"><ele>690</ele><time>2026-05-15T19:10:49.000Z</time></trkpt>
        <trkpt lat="29.568636" lon="103.391024"><ele>691</ele><time>2026-05-15T19:10:53.000Z</time></trkpt>
        <trkpt lat="29.568574" lon="103.391045"><ele>691</ele><time>2026-05-15T19:10:57.000Z</time></trkpt>
        <trkpt lat="29.568494" lon="103.391015"><ele>690</ele><time>2026-05-15T19:11:03.000Z</time></trkpt>
        <trkpt lat="29.568421" lon="103.390942"><ele>690</ele><time>2026-05-15T19:11:09.000Z</time></trkpt>
        <trkpt lat="29.56834" lon="103.390959"><ele>689</ele><time>2026-05-15T19:11:19.000Z</time></trkpt>
        <trkpt lat="29.568373" lon="103.390905"><ele>689</ele><time>2026-05-15T19:11:35.000Z</time></trkpt>
        <trkpt lat="29.568393" lon="103.390808"><ele>690</ele><time>2026-05-15T19:11:43.000Z</time></trkpt>
        <trkpt lat="29.568355" lon="103.390713"><ele>692</ele><time>2026-05-15T19:11:59.000Z</time></trkpt>
        <trkpt lat="29.568371" lon="103.39059"><ele>697</ele><time>2026-05-15T19:12:11.000Z</time></trkpt>
        <trkpt lat="29.568398" lon="103.390479"><ele>701</ele><time>2026-05-15T19:12:19.000Z</time></trkpt>
        <trkpt lat="29.568341" lon="103.390461"><ele>705</ele><time>2026-05-15T19:12:32.000Z</time></trkpt>
        <trkpt lat="29.568261" lon="103.390535"><ele>708</ele><time>2026-05-15T19:12:46.000Z</time></trkpt>
        <trkpt lat="29.568169" lon="103.390601"><ele>710</ele><time>2026-05-15T19:12:52.000Z</time></trkpt>
        <trkpt lat="29.568051" lon="103.390581"><ele>711</ele><time>2026-05-15T19:12:58.000Z</time></trkpt>
        <trkpt lat="29.567924" lon="103.390514"><ele>713</ele><time>2026-05-15T19:13:04.000Z</time></trkpt>
        <trkpt lat="29.567781" lon="103.390462"><ele>713</ele><time>2026-05-15T19:13:10.000Z</time></trkpt>
        <trkpt lat="29.567664" lon="103.390413"><ele>714</ele><time>2026-05-15T19:13:16.000Z</time></trkpt>
        <trkpt lat="29.567581" lon="103.390347"><ele>714</ele><time>2026-05-15T19:13:22.000Z</time></trkpt>
        <trkpt lat="29.567484" lon="103.390305"><ele>713</ele><time>2026-05-15T19:13:29.000Z</time></trkpt>
        <trkpt lat="29.56739" lon="103.390271"><ele>713</ele><time>2026-05-15T19:13:40.000Z</time></trkpt>
        <trkpt lat="29.567299" lon="103.390235"><ele>712</ele><time>2026-05-15T19:13:50.000Z</time></trkpt>
        <trkpt lat="29.56722" lon="103.390181"><ele>712</ele><time>2026-05-15T19:13:58.000Z</time></trkpt>
        <trkpt lat="29.567144" lon="103.390116"><ele>714</ele><time>2026-05-15T19:14:04.000Z</time></trkpt>
        <trkpt lat="29.567086" lon="103.390025"><ele>715</ele><time>2026-05-15T19:14:10.000Z</time></trkpt>
        <trkpt lat="29.56703" lon="103.389923"><ele>717</ele><time>2026-05-15T19:14:18.000Z</time></trkpt>
        <trkpt lat="29.566958" lon="103.389857"><ele>721</ele><time>2026-05-15T19:14:26.000Z</time></trkpt>
        <trkpt lat="29.566871" lon="103.389799"><ele>724</ele><time>2026-05-15T19:14:32.000Z</time></trkpt>
        <trkpt lat="29.566769" lon="103.389723"><ele>729</ele><time>2026-05-15T19:14:40.000Z</time></trkpt>
        <trkpt lat="29.56665" lon="103.389655"><ele>733</ele><time>2026-05-15T19:14:46.000Z</time></trkpt>
        <trkpt lat="29.566543" lon="103.389606"><ele>735</ele><time>2026-05-15T19:14:52.000Z</time></trkpt>
        <trkpt lat="29.566453" lon="103.38956"><ele>737</ele><time>2026-05-15T19:15:00.000Z</time></trkpt>
        <trkpt lat="29.566355" lon="103.389532"><ele>739</ele><time>2026-05-15T19:15:08.000Z</time></trkpt>
        <trkpt lat="29.566267" lon="103.389494"><ele>741</ele><time>2026-05-15T19:15:16.000Z</time></trkpt>
        <trkpt lat="29.566176" lon="103.389471"><ele>744</ele><time>2026-05-15T19:15:22.000Z</time></trkpt>
        <trkpt lat="29.566073" lon="103.389502"><ele>747</ele><time>2026-05-15T19:15:28.000Z</time></trkpt>
        <trkpt lat="29.565982" lon="103.389549"><ele>749</ele><time>2026-05-15T19:15:33.000Z</time></trkpt>
        <trkpt lat="29.565888" lon="103.3896"><ele>749</ele><time>2026-05-15T19:15:39.000Z</time></trkpt>
        <trkpt lat="29.565797" lon="103.389634"><ele>749</ele><time>2026-05-15T19:15:43.000Z</time></trkpt>
        <trkpt lat="29.565709" lon="103.389667"><ele>748</ele><time>2026-05-15T19:15:57.000Z</time></trkpt>
        <trkpt lat="29.565613" lon="103.389669"><ele>745</ele><time>2026-05-15T19:16:25.000Z</time></trkpt>
        <trkpt lat="29.565513" lon="103.389636"><ele>743</ele><time>2026-05-15T19:16:35.000Z</time></trkpt>
        <trkpt lat="29.565408" lon="103.389582"><ele>740</ele><time>2026-05-15T19:16:43.000Z</time></trkpt>
        <trkpt lat="29.565316" lon="103.389526"><ele>739</ele><time>2026-05-15T19:16:53.000Z</time></trkpt>
        <trkpt lat="29.565242" lon="103.389447"><ele>737</ele><time>2026-05-15T19:17:01.000Z</time></trkpt>
        <trkpt lat="29.56518" lon="103.389362"><ele>735</ele><time>2026-05-15T19:17:09.000Z</time></trkpt>
        <trkpt lat="29.565104" lon="103.389298"><ele>734</ele><time>2026-05-15T19:17:19.000Z</time></trkpt>
        <trkpt lat="29.565026" lon="103.38921"><ele>733</ele><time>2026-05-15T19:17:25.000Z</time></trkpt>
        <trkpt lat="29.564972" lon="103.389111"><ele>731</ele><time>2026-05-15T19:17:34.000Z</time></trkpt>
        <trkpt lat="29.564914" lon="103.389019"><ele>729</ele><time>2026-05-15T19:17:44.000Z</time></trkpt>
        <trkpt lat="29.564835" lon="103.388968"><ele>728</ele><time>2026-05-15T19:17:50.000Z</time></trkpt>
        <trkpt lat="29.564746" lon="103.388952"><ele>726</ele><time>2026-05-15T19:17:56.000Z</time></trkpt>
        <trkpt lat="29.564648" lon="103.388904"><ele>724</ele><time>2026-05-15T19:18:06.000Z</time></trkpt>
        <trkpt lat="29.564537" lon="103.388876"><ele>723</ele><time>2026-05-15T19:18:14.000Z</time></trkpt>
        <trkpt lat="29.564433" lon="103.388853"><ele>722</ele><time>2026-05-15T19:18:24.000Z</time></trkpt>
        <trkpt lat="29.564338" lon="103.388836"><ele>722</ele><time>2026-05-15T19:18:37.000Z</time></trkpt>
        <trkpt lat="29.564249" lon="103.388817"><ele>721</ele><time>2026-05-15T19:18:47.000Z</time></trkpt>
        <trkpt lat="29.564152" lon="103.38884"><ele>720</ele><time>2026-05-15T19:19:07.000Z</time></trkpt>
        <trkpt lat="29.564057" lon="103.388882"><ele>720</ele><time>2026-05-15T19:19:15.000Z</time></trkpt>
        <trkpt lat="29.563964" lon="103.388922"><ele>720</ele><time>2026-05-15T19:19:29.000Z</time></trkpt>
        <trkpt lat="29.563857" lon="103.388923"><ele>719</ele><time>2026-05-15T19:19:40.000Z</time></trkpt>
        <trkpt lat="29.563753" lon="103.38891"><ele>719</ele><time>2026-05-15T19:19:48.000Z</time></trkpt>
        <trkpt lat="29.56365" lon="103.38887"><ele>720</ele><time>2026-05-15T19:20:02.000Z</time></trkpt>
        <trkpt lat="29.563556" lon="103.388832"><ele>721</ele><time>2026-05-15T19:20:12.000Z</time></trkpt>
        <trkpt lat="29.563459" lon="103.388833"><ele>723</ele><time>2026-05-15T19:20:26.000Z</time></trkpt>
        <trkpt lat="29.563369" lon="103.388821"><ele>725</ele><time>2026-05-15T19:20:39.000Z</time></trkpt>
        <trkpt lat="29.563265" lon="103.388818"><ele>727</ele><time>2026-05-15T19:20:49.000Z</time></trkpt>
        <trkpt lat="29.563157" lon="103.388835"><ele>728</ele><time>2026-05-15T19:20:57.000Z</time></trkpt>
        <trkpt lat="29.563052" lon="103.388866"><ele>730</ele><time>2026-05-15T19:21:03.000Z</time></trkpt>
        <trkpt lat="29.562965" lon="103.388928"><ele>731</ele><time>2026-05-15T19:21:11.000Z</time></trkpt>
        <trkpt lat="29.562877" lon="103.388983"><ele>734</ele><time>2026-05-15T19:21:21.000Z</time></trkpt>
        <trkpt lat="29.562776" lon="103.388996"><ele>737</ele><time>2026-05-15T19:21:33.000Z</time></trkpt>
        <trkpt lat="29.562681" lon="103.38902"><ele>740</ele><time>2026-05-15T19:21:46.000Z</time></trkpt>
        <trkpt lat="29.562576" lon="103.389024"><ele>742</ele><time>2026-05-15T19:21:58.000Z</time></trkpt>
        <trkpt lat="29.562474" lon="103.389003"><ele>744</ele><time>2026-05-15T19:22:08.000Z</time></trkpt>
        <trkpt lat="29.562377" lon="103.389002"><ele>746</ele><time>2026-05-15T19:22:14.000Z</time></trkpt>
        <trkpt lat="29.562279" lon="103.38902"><ele>747</ele><time>2026-05-15T19:22:20.000Z</time></trkpt>
        <trkpt lat="29.562183" lon="103.389037"><ele>748</ele><time>2026-05-15T19:22:28.000Z</time></trkpt>
        <trkpt lat="29.562094" lon="103.389066"><ele>750</ele><time>2026-05-15T19:22:38.000Z</time></trkpt>
        <trkpt lat="29.561995" lon="103.389102"><ele>753</ele><time>2026-05-15T19:22:47.000Z</time></trkpt>
        <trkpt lat="29.561955" lon="103.389191"><ele>755</ele><time>2026-05-15T19:22:57.000Z</time></trkpt>
        <trkpt lat="29.562005" lon="103.389306"><ele>757</ele><time>2026-05-15T19:23:07.000Z</time></trkpt>
        <trkpt lat="29.562036" lon="103.38942"><ele>758</ele><time>2026-05-15T19:23:17.000Z</time></trkpt>
        <trkpt lat="29.561977" lon="103.389411"><ele>760</ele><time>2026-05-15T19:23:35.000Z</time></trkpt>
        <trkpt lat="29.561889" lon="103.389372"><ele>761</ele><time>2026-05-15T19:23:44.000Z</time></trkpt>
        <trkpt lat="29.561801" lon="103.389308"><ele>761</ele><time>2026-05-15T19:23:52.000Z</time></trkpt>
        <trkpt lat="29.561695" lon="103.389237"><ele>761</ele><time>2026-05-15T19:24:00.000Z</time></trkpt>
        <trkpt lat="29.561597" lon="103.3892"><ele>761</ele><time>2026-05-15T19:24:06.000Z</time></trkpt>
        <trkpt lat="29.561497" lon="103.389162"><ele>760</ele><time>2026-05-15T19:24:12.000Z</time></trkpt>
        <trkpt lat="29.561403" lon="103.38915"><ele>760</ele><time>2026-05-15T19:24:20.000Z</time></trkpt>
        <trkpt lat="29.561302" lon="103.389161"><ele>759</ele><time>2026-05-15T19:24:28.000Z</time></trkpt>
        <trkpt lat="29.561197" lon="103.389184"><ele>759</ele><time>2026-05-15T19:24:38.000Z</time></trkpt>
        <trkpt lat="29.561102" lon="103.389213"><ele>758</ele><time>2026-05-15T19:24:49.000Z</time></trkpt>
        <trkpt lat="29.561005" lon="103.389235"><ele>757</ele><time>2026-05-15T19:24:57.000Z</time></trkpt>
        <trkpt lat="29.560893" lon="103.389281"><ele>756</ele><time>2026-05-15T19:25:03.000Z</time></trkpt>
        <trkpt lat="29.560798" lon="103.38933"><ele>756</ele><time>2026-05-15T19:25:09.000Z</time></trkpt>
        <trkpt lat="29.560687" lon="103.389356"><ele>756</ele><time>2026-05-15T19:25:17.000Z</time></trkpt>
        <trkpt lat="29.560591" lon="103.389387"><ele>757</ele><time>2026-05-15T19:25:23.000Z</time></trkpt>
        <trkpt lat="29.560487" lon="103.389404"><ele>758</ele><time>2026-05-15T19:25:35.000Z</time></trkpt>
        <trkpt lat="29.560403" lon="103.389362"><ele>760</ele><time>2026-05-15T19:25:50.000Z</time></trkpt>
        <trkpt lat="29.56032" lon="103.389295"><ele>762</ele><time>2026-05-15T19:26:24.000Z</time></trkpt>
        <trkpt lat="29.560259" lon="103.38921"><ele>764</ele><time>2026-05-15T19:26:41.000Z</time></trkpt>
        <trkpt lat="29.560213" lon="103.389105"><ele>765</ele><time>2026-05-15T19:26:56.000Z</time></trkpt>
        <trkpt lat="29.560177" lon="103.388992"><ele>765</ele><time>2026-05-15T19:27:04.000Z</time></trkpt>
        <trkpt lat="29.560151" lon="103.388879"><ele>765</ele><time>2026-05-15T19:27:24.000Z</time></trkpt>
        <trkpt lat="29.560089" lon="103.388784"><ele>765</ele><time>2026-05-15T19:27:51.000Z</time></trkpt>
        <trkpt lat="29.56" lon="103.388694"><ele>766</ele><time>2026-05-15T19:27:59.000Z</time></trkpt>
        <trkpt lat="29.559927" lon="103.388615"><ele>766</ele><time>2026-05-15T19:28:05.000Z</time></trkpt>
        <trkpt lat="29.559863" lon="103.388537"><ele>767</ele><time>2026-05-15T19:28:13.000Z</time></trkpt>
        <trkpt lat="29.559795" lon="103.388468"><ele>768</ele><time>2026-05-15T19:28:23.000Z</time></trkpt>
        <trkpt lat="29.559718" lon="103.388394"><ele>767</ele><time>2026-05-15T19:28:31.000Z</time></trkpt>
        <trkpt lat="29.559682" lon="103.388295"><ele>767</ele><time>2026-05-15T19:28:43.000Z</time></trkpt>
        <trkpt lat="29.559625" lon="103.388206"><ele>766</ele><time>2026-05-15T19:28:54.000Z</time></trkpt>
        <trkpt lat="29.559544" lon="103.388133"><ele>765</ele><time>2026-05-15T19:29:04.000Z</time></trkpt>
        <trkpt lat="29.559464" lon="103.388066"><ele>765</ele><time>2026-05-15T19:29:10.000Z</time></trkpt>
        <trkpt lat="29.559381" lon="103.388005"><ele>766</ele><time>2026-05-15T19:29:16.000Z</time></trkpt>
        <trkpt lat="29.559307" lon="103.387942"><ele>767</ele><time>2026-05-15T19:29:22.000Z</time></trkpt>
        <trkpt lat="29.559216" lon="103.387873"><ele>767</ele><time>2026-05-15T19:29:30.000Z</time></trkpt>
        <trkpt lat="29.559113" lon="103.387848"><ele>768</ele><time>2026-05-15T19:29:40.000Z</time></trkpt>
        <trkpt lat="29.559009" lon="103.387819"><ele>769</ele><time>2026-05-15T19:29:49.000Z</time></trkpt>
        <trkpt lat="29.558896" lon="103.387799"><ele>771</ele><time>2026-05-15T19:29:59.000Z</time></trkpt>
        <trkpt lat="29.558803" lon="103.387767"><ele>772</ele><time>2026-05-15T19:30:07.000Z</time></trkpt>
        <trkpt lat="29.558717" lon="103.387714"><ele>774</ele><time>2026-05-15T19:30:17.000Z</time></trkpt>
        <trkpt lat="29.558625" lon="103.387702"><ele>775</ele><time>2026-05-15T19:30:27.000Z</time></trkpt>
        <trkpt lat="29.558536" lon="103.387622"><ele>778</ele><time>2026-05-15T19:30:35.000Z</time></trkpt>
        <trkpt lat="29.558464" lon="103.38752"><ele>780</ele><time>2026-05-15T19:30:43.000Z</time></trkpt>
        <trkpt lat="29.558397" lon="103.38742"><ele>782</ele><time>2026-05-15T19:30:51.000Z</time></trkpt>
        <trkpt lat="29.558359" lon="103.387402"><ele>783</ele><time>2026-05-15T19:31:03.000Z</time></trkpt>
        <trkpt lat="29.558273" lon="103.387386"><ele>785</ele><time>2026-05-15T19:31:13.000Z</time></trkpt>
        <trkpt lat="29.558182" lon="103.387354"><ele>787</ele><time>2026-05-15T19:31:25.000Z</time></trkpt>
        <trkpt lat="29.558093" lon="103.387313"><ele>789</ele><time>2026-05-15T19:31:41.000Z</time></trkpt>
        <trkpt lat="29.558008" lon="103.387248"><ele>791</ele><time>2026-05-15T19:31:48.000Z</time></trkpt>
        <trkpt lat="29.557908" lon="103.387203"><ele>791</ele><time>2026-05-15T19:31:58.000Z</time></trkpt>
        <trkpt lat="29.557812" lon="103.387154"><ele>790</ele><time>2026-05-15T19:32:08.000Z</time></trkpt>
        <trkpt lat="29.557746" lon="103.38708"><ele>790</ele><time>2026-05-15T19:32:14.000Z</time></trkpt>
        <trkpt lat="29.557703" lon="103.386981"><ele>789</ele><time>2026-05-15T19:32:28.000Z</time></trkpt>
        <trkpt lat="29.557684" lon="103.386869"><ele>788</ele><time>2026-05-15T19:32:42.000Z</time></trkpt>
        <trkpt lat="29.557638" lon="103.386778"><ele>788</ele><time>2026-05-15T19:32:55.000Z</time></trkpt>
        <trkpt lat="29.557572" lon="103.386705"><ele>790</ele><time>2026-05-15T19:33:03.000Z</time></trkpt>
        <trkpt lat="29.557491" lon="103.386634"><ele>790</ele><time>2026-05-15T19:33:21.000Z</time></trkpt>
        <trkpt lat="29.557396" lon="103.386608"><ele>790</ele><time>2026-05-15T19:33:29.000Z</time></trkpt>
        <trkpt lat="29.5573" lon="103.386585"><ele>789</ele><time>2026-05-15T19:33:39.000Z</time></trkpt>
        <trkpt lat="29.557204" lon="103.386595"><ele>788</ele><time>2026-05-15T19:34:00.000Z</time></trkpt>
        <trkpt lat="29.557106" lon="103.386569"><ele>786</ele><time>2026-05-15T19:34:10.000Z</time></trkpt>
        <trkpt lat="29.557044" lon="103.386472"><ele>785</ele><time>2026-05-15T19:34:18.000Z</time></trkpt>
        <trkpt lat="29.557024" lon="103.386337"><ele>784</ele><time>2026-05-15T19:34:24.000Z</time></trkpt>
        <trkpt lat="29.556981" lon="103.38621"><ele>784</ele><time>2026-05-15T19:34:34.000Z</time></trkpt>
        <trkpt lat="29.556907" lon="103.386109"><ele>784</ele><time>2026-05-15T19:34:42.000Z</time></trkpt>
        <trkpt lat="29.556846" lon="103.386021"><ele>783</ele><time>2026-05-15T19:34:53.000Z</time></trkpt>
        <trkpt lat="29.556754" lon="103.38602"><ele>784</ele><time>2026-05-15T19:35:11.000Z</time></trkpt>
        <trkpt lat="29.556653" lon="103.386047"><ele>783</ele><time>2026-05-15T19:35:21.000Z</time></trkpt>
        <trkpt lat="29.556564" lon="103.386026"><ele>783</ele><time>2026-05-15T19:36:07.000Z</time></trkpt>
        <trkpt lat="29.556538" lon="103.385934"><ele>789</ele><time>2026-05-15T19:36:43.000Z</time></trkpt>
        <trkpt lat="29.556472" lon="103.385952"><ele>796</ele><time>2026-05-15T19:37:00.000Z</time></trkpt>
        <trkpt lat="29.556389" lon="103.385991"><ele>801</ele><time>2026-05-15T19:37:16.000Z</time></trkpt>
        <trkpt lat="29.556295" lon="103.386026"><ele>805</ele><time>2026-05-15T19:37:34.000Z</time></trkpt>
        <trkpt lat="29.5562" lon="103.386035"><ele>808</ele><time>2026-05-15T19:38:05.000Z</time></trkpt>
        <trkpt lat="29.556106" lon="103.386024"><ele>812</ele><time>2026-05-15T19:38:43.000Z</time></trkpt>
        <trkpt lat="29.556014" lon="103.385995"><ele>817</ele><time>2026-05-15T19:39:04.000Z</time></trkpt>
        <trkpt lat="29.556061" lon="103.385965"><ele>821</ele><time>2026-05-15T19:39:42.000Z</time></trkpt>
        <trkpt lat="29.556062" lon="103.385878"><ele>826</ele><time>2026-05-15T19:39:59.000Z</time></trkpt>
        <trkpt lat="29.556109" lon="103.385784"><ele>831</ele><time>2026-05-15T19:40:27.000Z</time></trkpt>
        <trkpt lat="29.556133" lon="103.385668"><ele>835</ele><time>2026-05-15T19:40:41.000Z</time></trkpt>
        <trkpt lat="29.556179" lon="103.385569"><ele>838</ele><time>2026-05-15T19:40:55.000Z</time></trkpt>
        <trkpt lat="29.556209" lon="103.385467"><ele>840</ele><time>2026-05-15T19:41:13.000Z</time></trkpt>
        <trkpt lat="29.556149" lon="103.38546"><ele>844</ele><time>2026-05-15T19:41:31.000Z</time></trkpt>
        <trkpt lat="29.556058" lon="103.385491"><ele>847</ele><time>2026-05-15T19:41:45.000Z</time></trkpt>
        <trkpt lat="29.55596" lon="103.385524"><ele>850</ele><time>2026-05-15T19:42:00.000Z</time></trkpt>
        <trkpt lat="29.555862" lon="103.385528"><ele>853</ele><time>2026-05-15T19:42:50.000Z</time></trkpt>
        <trkpt lat="29.555812" lon="103.385435"><ele>858</ele><time>2026-05-15T19:43:51.000Z</time></trkpt>
        <trkpt lat="29.555802" lon="103.385328"><ele>867</ele><time>2026-05-15T19:44:32.000Z</time></trkpt>
        <trkpt lat="29.5558" lon="103.385219"><ele>877</ele><time>2026-05-15T19:44:50.000Z</time></trkpt>
        <trkpt lat="29.5558" lon="103.38511"><ele>884</ele><time>2026-05-15T19:45:09.000Z</time></trkpt>
        <trkpt lat="29.555739" lon="103.385043"><ele>889</ele><time>2026-05-15T19:45:35.000Z</time></trkpt>
        <trkpt lat="29.555639" lon="103.385003"><ele>894</ele><time>2026-05-15T19:46:02.000Z</time></trkpt>
        <trkpt lat="29.555539" lon="103.384972"><ele>900</ele><time>2026-05-15T19:46:14.000Z</time></trkpt>
        <trkpt lat="29.55544" lon="103.384942"><ele>905</ele><time>2026-05-15T19:46:36.000Z</time></trkpt>
        <trkpt lat="29.55534" lon="103.384938"><ele>911</ele><time>2026-05-15T19:47:00.000Z</time></trkpt>
        <trkpt lat="29.555245" lon="103.384949"><ele>916</ele><time>2026-05-15T19:47:19.000Z</time></trkpt>
        <trkpt lat="29.555145" lon="103.384955"><ele>920</ele><time>2026-05-15T19:47:33.000Z</time></trkpt>
        <trkpt lat="29.555057" lon="103.384926"><ele>924</ele><time>2026-05-15T19:47:51.000Z</time></trkpt>
        <trkpt lat="29.554965" lon="103.384883"><ele>927</ele><time>2026-05-15T19:48:10.000Z</time></trkpt>
        <trkpt lat="29.554884" lon="103.38482"><ele>928</ele><time>2026-05-15T19:48:32.000Z</time></trkpt>
        <trkpt lat="29.554807" lon="103.38476"><ele>929</ele><time>2026-05-15T19:48:50.000Z</time></trkpt>
        <trkpt lat="29.554736" lon="103.384692"><ele>931</ele><time>2026-05-15T19:49:06.000Z</time></trkpt>
        <trkpt lat="29.554676" lon="103.384611"><ele>933</ele><time>2026-05-15T19:49:24.000Z</time></trkpt>
        <trkpt lat="29.554734" lon="103.384569"><ele>935</ele><time>2026-05-15T19:50:07.000Z</time></trkpt>
        <trkpt lat="29.55482" lon="103.384504"><ele>940</ele><time>2026-05-15T19:50:35.000Z</time></trkpt>
        <trkpt lat="29.554909" lon="103.38444"><ele>945</ele><time>2026-05-15T19:50:59.000Z</time></trkpt>
        <trkpt lat="29.555" lon="103.384381"><ele>947</ele><time>2026-05-15T19:51:20.000Z</time></trkpt>
        <trkpt lat="29.555086" lon="103.384329"><ele>949</ele><time>2026-05-15T19:51:46.000Z</time></trkpt>
        <trkpt lat="29.555134" lon="103.384242"><ele>953</ele><time>2026-05-15T19:51:56.000Z</time></trkpt>
        <trkpt lat="29.555115" lon="103.384141"><ele>956</ele><time>2026-05-15T19:52:06.000Z</time></trkpt>
        <trkpt lat="29.55509" lon="103.384017"><ele>958</ele><time>2026-05-15T19:52:18.000Z</time></trkpt>
        <trkpt lat="29.555068" lon="103.383899"><ele>959</ele><time>2026-05-15T19:52:26.000Z</time></trkpt>
        <trkpt lat="29.555072" lon="103.383791"><ele>960</ele><time>2026-05-15T19:52:40.000Z</time></trkpt>
        <trkpt lat="29.555112" lon="103.383693"><ele>960</ele><time>2026-05-15T19:52:50.000Z</time></trkpt>
        <trkpt lat="29.555117" lon="103.383591"><ele>959</ele><time>2026-05-15T19:52:58.000Z</time></trkpt>
        <trkpt lat="29.555085" lon="103.383479"><ele>959</ele><time>2026-05-15T19:53:08.000Z</time></trkpt>
        <trkpt lat="29.555005" lon="103.383392"><ele>959</ele><time>2026-05-15T19:53:17.000Z</time></trkpt>
        <trkpt lat="29.554913" lon="103.383319"><ele>959</ele><time>2026-05-15T19:53:27.000Z</time></trkpt>
        <trkpt lat="29.554817" lon="103.383266"><ele>959</ele><time>2026-05-15T19:53:35.000Z</time></trkpt>
        <trkpt lat="29.554722" lon="103.383206"><ele>960</ele><time>2026-05-15T19:53:45.000Z</time></trkpt>
        <trkpt lat="29.554629" lon="103.383155"><ele>960</ele><time>2026-05-15T19:53:53.000Z</time></trkpt>
        <trkpt lat="29.554572" lon="103.383068"><ele>961</ele><time>2026-05-15T19:54:07.000Z</time></trkpt>
        <trkpt lat="29.554518" lon="103.382973"><ele>963</ele><time>2026-05-15T19:54:24.000Z</time></trkpt>
        <trkpt lat="29.55449" lon="103.382864"><ele>966</ele><time>2026-05-15T19:55:02.000Z</time></trkpt>
        <trkpt lat="29.554484" lon="103.382755"><ele>970</ele><time>2026-05-15T19:55:29.000Z</time></trkpt>
        <trkpt lat="29.55448" lon="103.382643"><ele>973</ele><time>2026-05-15T19:55:49.000Z</time></trkpt>
        <trkpt lat="29.554451" lon="103.382542"><ele>977</ele><time>2026-05-15T19:56:10.000Z</time></trkpt>
        <trkpt lat="29.554398" lon="103.382449"><ele>982</ele><time>2026-05-15T19:56:30.000Z</time></trkpt>
        <trkpt lat="29.554353" lon="103.382355"><ele>985</ele><time>2026-05-15T19:56:44.000Z</time></trkpt>
        <trkpt lat="29.554343" lon="103.382246"><ele>987</ele><time>2026-05-15T19:57:00.000Z</time></trkpt>
        <trkpt lat="29.554335" lon="103.382131"><ele>989</ele><time>2026-05-15T19:57:12.000Z</time></trkpt>
        <trkpt lat="29.554326" lon="103.382011"><ele>991</ele><time>2026-05-15T19:57:23.000Z</time></trkpt>
        <trkpt lat="29.554284" lon="103.381914"><ele>992</ele><time>2026-05-15T19:57:33.000Z</time></trkpt>
        <trkpt lat="29.554248" lon="103.381811"><ele>993</ele><time>2026-05-15T19:57:47.000Z</time></trkpt>
        <trkpt lat="29.554217" lon="103.38171"><ele>994</ele><time>2026-05-15T19:58:03.000Z</time></trkpt>
        <trkpt lat="29.554189" lon="103.381602"><ele>995</ele><time>2026-05-15T19:58:16.000Z</time></trkpt>
        <trkpt lat="29.554144" lon="103.381495"><ele>996</ele><time>2026-05-15T19:58:26.000Z</time></trkpt>
        <trkpt lat="29.554122" lon="103.381391"><ele>997</ele><time>2026-05-15T19:58:38.000Z</time></trkpt>
        <trkpt lat="29.554113" lon="103.381276"><ele>999</ele><time>2026-05-15T19:58:48.000Z</time></trkpt>
        <trkpt lat="29.554088" lon="103.38117"><ele>1001</ele><time>2026-05-15T19:58:58.000Z</time></trkpt>
        <trkpt lat="29.55404" lon="103.381068"><ele>1001</ele><time>2026-05-15T19:59:10.000Z</time></trkpt>
        <trkpt lat="29.554043" lon="103.380962"><ele>1002</ele><time>2026-05-15T19:59:23.000Z</time></trkpt>
        <trkpt lat="29.554077" lon="103.380864"><ele>1003</ele><time>2026-05-15T19:59:37.000Z</time></trkpt>
        <trkpt lat="29.554135" lon="103.380763"><ele>1005</ele><time>2026-05-15T19:59:49.000Z</time></trkpt>
        <trkpt lat="29.554179" lon="103.380658"><ele>1007</ele><time>2026-05-15T20:00:03.000Z</time></trkpt>
        <trkpt lat="29.554173" lon="103.380539"><ele>1008</ele><time>2026-05-15T20:00:11.000Z</time></trkpt>
        <trkpt lat="29.554162" lon="103.380419"><ele>1009</ele><time>2026-05-15T20:00:20.000Z</time></trkpt>
        <trkpt lat="29.554162" lon="103.380304"><ele>1009</ele><time>2026-05-15T20:00:30.000Z</time></trkpt>
        <trkpt lat="29.554166" lon="103.380197"><ele>1008</ele><time>2026-05-15T20:00:40.000Z</time></trkpt>
        <trkpt lat="29.554161" lon="103.38009"><ele>1009</ele><time>2026-05-15T20:00:50.000Z</time></trkpt>
        <trkpt lat="29.55413" lon="103.379984"><ele>1009</ele><time>2026-05-15T20:01:00.000Z</time></trkpt>
        <trkpt lat="29.554087" lon="103.379889"><ele>1010</ele><time>2026-05-15T20:01:15.000Z</time></trkpt>
        <trkpt lat="29.554055" lon="103.379791"><ele>1011</ele><time>2026-05-15T20:01:43.000Z</time></trkpt>
        <trkpt lat="29.554039" lon="103.379685"><ele>1016</ele><time>2026-05-15T20:02:03.000Z</time></trkpt>
        <trkpt lat="29.554011" lon="103.379581"><ele>1020</ele><time>2026-05-15T20:02:18.000Z</time></trkpt>
        <trkpt lat="29.553975" lon="103.379476"><ele>1022</ele><time>2026-05-15T20:02:34.000Z</time></trkpt>
        <trkpt lat="29.553936" lon="103.379369"><ele>1024</ele><time>2026-05-15T20:02:50.000Z</time></trkpt>
        <trkpt lat="29.553904" lon="103.379268"><ele>1027</ele><time>2026-05-15T20:03:06.000Z</time></trkpt>
        <trkpt lat="29.55388" lon="103.379165"><ele>1029</ele><time>2026-05-15T20:03:18.000Z</time></trkpt>
        <trkpt lat="29.55385" lon="103.379062"><ele>1031</ele><time>2026-05-15T20:03:29.000Z</time></trkpt>
        <trkpt lat="29.553835" lon="103.378957"><ele>1033</ele><time>2026-05-15T20:03:39.000Z</time></trkpt>
        <trkpt lat="29.553862" lon="103.378848"><ele>1034</ele><time>2026-05-15T20:03:49.000Z</time></trkpt>
        <trkpt lat="29.553913" lon="103.378751"><ele>1036</ele><time>2026-05-15T20:03:59.000Z</time></trkpt>
        <trkpt lat="29.553941" lon="103.37865"><ele>1037</ele><time>2026-05-15T20:04:15.000Z</time></trkpt>
        <trkpt lat="29.553939" lon="103.378544"><ele>1039</ele><time>2026-05-15T20:04:32.000Z</time></trkpt>
        <trkpt lat="29.55392" lon="103.37844"><ele>1040</ele><time>2026-05-15T20:04:50.000Z</time></trkpt>
        <trkpt lat="29.553887" lon="103.378339"><ele>1042</ele><time>2026-05-15T20:05:10.000Z</time></trkpt>
        <trkpt lat="29.553848" lon="103.378239"><ele>1044</ele><time>2026-05-15T20:05:26.000Z</time></trkpt>
        <trkpt lat="29.553814" lon="103.378133"><ele>1046</ele><time>2026-05-15T20:05:40.000Z</time></trkpt>
        <trkpt lat="29.553756" lon="103.378034"><ele>1049</ele><time>2026-05-15T20:05:58.000Z</time></trkpt>
        <trkpt lat="29.553687" lon="103.377956"><ele>1052</ele><time>2026-05-15T20:06:16.000Z</time></trkpt>
        <trkpt lat="29.553623" lon="103.377873"><ele>1055</ele><time>2026-05-15T20:06:52.000Z</time></trkpt>
        <trkpt lat="29.55355" lon="103.377803"><ele>1060</ele><time>2026-05-15T20:07:27.000Z</time></trkpt>
        <trkpt lat="29.553481" lon="103.37773"><ele>1069</ele><time>2026-05-15T20:08:07.000Z</time></trkpt>
        <trkpt lat="29.553401" lon="103.37768"><ele>1078</ele><time>2026-05-15T20:08:34.000Z</time></trkpt>
        <trkpt lat="29.553331" lon="103.377609"><ele>1085</ele><time>2026-05-15T20:08:56.000Z</time></trkpt>
        <trkpt lat="29.553276" lon="103.377524"><ele>1088</ele><time>2026-05-15T20:09:16.000Z</time></trkpt>
        <trkpt lat="29.553211" lon="103.377447"><ele>1090</ele><time>2026-05-15T20:09:35.000Z</time></trkpt>
        <trkpt lat="29.553139" lon="103.377377"><ele>1090</ele><time>2026-05-15T20:09:55.000Z</time></trkpt>
        <trkpt lat="29.553072" lon="103.377306"><ele>1091</ele><time>2026-05-15T20:10:34.000Z</time></trkpt>
        <trkpt lat="29.553003" lon="103.377218"><ele>1092</ele><time>2026-05-15T20:10:56.000Z</time></trkpt>
        <trkpt lat="29.552923" lon="103.377159"><ele>1095</ele><time>2026-05-15T20:11:18.000Z</time></trkpt>
        <trkpt lat="29.55284" lon="103.37711"><ele>1099</ele><time>2026-05-15T20:11:57.000Z</time></trkpt>
        <trkpt lat="29.552763" lon="103.377049"><ele>1106</ele><time>2026-05-15T20:12:27.000Z</time></trkpt>
        <trkpt lat="29.552674" lon="103.377021"><ele>1114</ele><time>2026-05-15T20:12:44.000Z</time></trkpt>
        <trkpt lat="29.552585" lon="103.376976"><ele>1120</ele><time>2026-05-15T20:13:24.000Z</time></trkpt>
        <trkpt lat="29.552499" lon="103.376938"><ele>1127</ele><time>2026-05-15T20:13:49.000Z</time></trkpt>
        <trkpt lat="29.552407" lon="103.376908"><ele>1131</ele><time>2026-05-15T20:14:11.000Z</time></trkpt>
        <trkpt lat="29.552318" lon="103.376879"><ele>1134</ele><time>2026-05-15T20:14:38.000Z</time></trkpt>
        <trkpt lat="29.552247" lon="103.376813"><ele>1137</ele><time>2026-05-15T20:15:08.000Z</time></trkpt>
        <trkpt lat="29.552167" lon="103.376761"><ele>1140</ele><time>2026-05-15T20:15:28.000Z</time></trkpt>
        <trkpt lat="29.55208" lon="103.376717"><ele>1143</ele><time>2026-05-15T20:15:45.000Z</time></trkpt>
        <trkpt lat="29.551962" lon="103.376662"><ele>1147</ele><time>2026-05-15T20:18:14.000Z</time></trkpt>
        <trkpt lat="29.55191" lon="103.376575"><ele>1153</ele><time>2026-05-15T20:18:48.000Z</time></trkpt>
        <trkpt lat="29.551856" lon="103.376491"><ele>1156</ele><time>2026-05-15T20:19:16.000Z</time></trkpt>
        <trkpt lat="29.551815" lon="103.376399"><ele>1158</ele><time>2026-05-15T20:19:35.000Z</time></trkpt>
        <trkpt lat="29.551792" lon="103.376292"><ele>1160</ele><time>2026-05-15T20:20:51.000Z</time></trkpt>
        <trkpt lat="29.551788" lon="103.376183"><ele>1168</ele><time>2026-05-15T20:21:09.000Z</time></trkpt>
        <trkpt lat="29.551781" lon="103.376078"><ele>1173</ele><time>2026-05-15T20:21:31.000Z</time></trkpt>
        <trkpt lat="29.551778" lon="103.375972"><ele>1176</ele><time>2026-05-15T20:22:02.000Z</time></trkpt>
        <trkpt lat="29.551771" lon="103.375862"><ele>1180</ele><time>2026-05-15T20:22:20.000Z</time></trkpt>
        <trkpt lat="29.551751" lon="103.375757"><ele>1183</ele><time>2026-05-15T20:22:32.000Z</time></trkpt>
        <trkpt lat="29.551729" lon="103.37565"><ele>1186</ele><time>2026-05-15T20:22:41.000Z</time></trkpt>
        <trkpt lat="29.55168" lon="103.375546"><ele>1188</ele><time>2026-05-15T20:22:53.000Z</time></trkpt>
        <trkpt lat="29.551591" lon="103.375458"><ele>1190</ele><time>2026-05-15T20:23:03.000Z</time></trkpt>
        <trkpt lat="29.551493" lon="103.375385"><ele>1191</ele><time>2026-05-15T20:23:15.000Z</time></trkpt>
        <trkpt lat="29.551409" lon="103.375321"><ele>1192</ele><time>2026-05-15T20:23:27.000Z</time></trkpt>
        <trkpt lat="29.551317" lon="103.375276"><ele>1191</ele><time>2026-05-15T20:23:43.000Z</time></trkpt>
        <trkpt lat="29.551222" lon="103.375235"><ele>1192</ele><time>2026-05-15T20:24:07.000Z</time></trkpt>
        <trkpt lat="29.551122" lon="103.375202"><ele>1193</ele><time>2026-05-15T20:24:25.000Z</time></trkpt>
        <trkpt lat="29.551022" lon="103.375191"><ele>1193</ele><time>2026-05-15T20:24:44.000Z</time></trkpt>
        <trkpt lat="29.550921" lon="103.375175"><ele>1194</ele><time>2026-05-15T20:25:02.000Z</time></trkpt>
        <trkpt lat="29.550837" lon="103.375123"><ele>1194</ele><time>2026-05-15T20:25:16.000Z</time></trkpt>
        <trkpt lat="29.550749" lon="103.37508"><ele>1195</ele><time>2026-05-15T20:25:26.000Z</time></trkpt>
        <trkpt lat="29.550657" lon="103.375038"><ele>1195</ele><time>2026-05-15T20:25:38.000Z</time></trkpt>
        <trkpt lat="29.550569" lon="103.375006"><ele>1195</ele><time>2026-05-15T20:25:45.000Z</time></trkpt>
        <trkpt lat="29.550467" lon="103.37498"><ele>1195</ele><time>2026-05-15T20:25:55.000Z</time></trkpt>
        <trkpt lat="29.550373" lon="103.374926"><ele>1195</ele><time>2026-05-15T20:26:07.000Z</time></trkpt>
        <trkpt lat="29.550276" lon="103.374901"><ele>1194</ele><time>2026-05-15T20:26:19.000Z</time></trkpt>
        <trkpt lat="29.550181" lon="103.374886"><ele>1194</ele><time>2026-05-15T20:26:35.000Z</time></trkpt>
        <trkpt lat="29.550094" lon="103.374836"><ele>1193</ele><time>2026-05-15T20:26:50.000Z</time></trkpt>
        <trkpt lat="29.550017" lon="103.374777"><ele>1192</ele><time>2026-05-15T20:27:04.000Z</time></trkpt>
        <trkpt lat="29.550018" lon="103.374681"><ele>1191</ele><time>2026-05-15T20:27:30.000Z</time></trkpt>
        <trkpt lat="29.550071" lon="103.37459"><ele>1192</ele><time>2026-05-15T20:27:53.000Z</time></trkpt>
        <trkpt lat="29.550134" lon="103.3745"><ele>1194</ele><time>2026-05-15T20:28:31.000Z</time></trkpt>
        <trkpt lat="29.550206" lon="103.374423"><ele>1200</ele><time>2026-05-15T20:28:42.000Z</time></trkpt>
        <trkpt lat="29.550297" lon="103.374368"><ele>1206</ele><time>2026-05-15T20:29:00.000Z</time></trkpt>
        <trkpt lat="29.55039" lon="103.374302"><ele>1213</ele><time>2026-05-15T20:29:12.000Z</time></trkpt>
        <trkpt lat="29.550473" lon="103.374237"><ele>1218</ele><time>2026-05-15T20:29:22.000Z</time></trkpt>
        <trkpt lat="29.550557" lon="103.374174"><ele>1223</ele><time>2026-05-15T20:29:32.000Z</time></trkpt>
        <trkpt lat="29.550629" lon="103.374172"><ele>1226</ele><time>2026-05-15T20:29:44.000Z</time></trkpt>
        <trkpt lat="29.550689" lon="103.374111"><ele>1230</ele><time>2026-05-15T20:29:53.000Z</time></trkpt>
        <trkpt lat="29.550742" lon="103.374029"><ele>1232</ele><time>2026-05-15T20:30:01.000Z</time></trkpt>
        <trkpt lat="29.550826" lon="103.373964"><ele>1233</ele><time>2026-05-15T20:30:09.000Z</time></trkpt>
        <trkpt lat="29.55093" lon="103.373911"><ele>1234</ele><time>2026-05-15T20:30:23.000Z</time></trkpt>
        <trkpt lat="29.551027" lon="103.373887"><ele>1234</ele><time>2026-05-15T20:30:31.000Z</time></trkpt>
        <trkpt lat="29.551127" lon="103.37391"><ele>1234</ele><time>2026-05-15T20:30:41.000Z</time></trkpt>
        <trkpt lat="29.551213" lon="103.373881"><ele>1234</ele><time>2026-05-15T20:30:48.000Z</time></trkpt>
        <trkpt lat="29.55129" lon="103.373809"><ele>1233</ele><time>2026-05-15T20:30:56.000Z</time></trkpt>
        <trkpt lat="29.55131" lon="103.3737"><ele>1232</ele><time>2026-05-15T20:31:02.000Z</time></trkpt>
        <trkpt lat="29.55132" lon="103.373574"><ele>1230</ele><time>2026-05-15T20:31:12.000Z</time></trkpt>
        <trkpt lat="29.551347" lon="103.373462"><ele>1228</ele><time>2026-05-15T20:31:20.000Z</time></trkpt>
        <trkpt lat="29.551366" lon="103.373334"><ele>1226</ele><time>2026-05-15T20:31:28.000Z</time></trkpt>
        <trkpt lat="29.551323" lon="103.373223"><ele>1224</ele><time>2026-05-15T20:31:36.000Z</time></trkpt>
        <trkpt lat="29.551244" lon="103.37315"><ele>1222</ele><time>2026-05-15T20:31:44.000Z</time></trkpt>
        <trkpt lat="29.551189" lon="103.373051"><ele>1220</ele><time>2026-05-15T20:31:53.000Z</time></trkpt>
        <trkpt lat="29.551152" lon="103.372941"><ele>1220</ele><time>2026-05-15T20:32:05.000Z</time></trkpt>
        <trkpt lat="29.551077" lon="103.37293"><ele>1220</ele><time>2026-05-15T20:32:13.000Z</time></trkpt>
        <trkpt lat="29.550991" lon="103.372907"><ele>1220</ele><time>2026-05-15T20:32:19.000Z</time></trkpt>
        <trkpt lat="29.550897" lon="103.372885"><ele>1220</ele><time>2026-05-15T20:32:25.000Z</time></trkpt>
        <trkpt lat="29.550793" lon="103.372884"><ele>1220</ele><time>2026-05-15T20:32:33.000Z</time></trkpt>
        <trkpt lat="29.550675" lon="103.372883"><ele>1220</ele><time>2026-05-15T20:32:41.000Z</time></trkpt>
        <trkpt lat="29.550573" lon="103.372879"><ele>1220</ele><time>2026-05-15T20:32:50.000Z</time></trkpt>
        <trkpt lat="29.55047" lon="103.372901"><ele>1219</ele><time>2026-05-15T20:33:02.000Z</time></trkpt>
        <trkpt lat="29.550384" lon="103.372873"><ele>1219</ele><time>2026-05-15T20:33:22.000Z</time></trkpt>
        <trkpt lat="29.550399" lon="103.372794"><ele>1219</ele><time>2026-05-15T20:33:44.000Z</time></trkpt>
        <trkpt lat="29.550484" lon="103.372734"><ele>1220</ele><time>2026-05-15T20:34:09.000Z</time></trkpt>
        <trkpt lat="29.550578" lon="103.372666"><ele>1223</ele><time>2026-05-15T20:34:29.000Z</time></trkpt>
        <trkpt lat="29.550621" lon="103.372569"><ele>1225</ele><time>2026-05-15T20:34:33.000Z</time></trkpt>
        <trkpt lat="29.550644" lon="103.372452"><ele>1225</ele><time>2026-05-15T20:34:39.000Z</time></trkpt>
        <trkpt lat="29.550667" lon="103.372341"><ele>1224</ele><time>2026-05-15T20:34:47.000Z</time></trkpt>
        <trkpt lat="29.550688" lon="103.372233"><ele>1222</ele><time>2026-05-15T20:34:56.000Z</time></trkpt>
        <trkpt lat="29.550678" lon="103.372117"><ele>1221</ele><time>2026-05-15T20:35:04.000Z</time></trkpt>
        <trkpt lat="29.550636" lon="103.372018"><ele>1220</ele><time>2026-05-15T20:35:14.000Z</time></trkpt>
        <trkpt lat="29.550583" lon="103.371924"><ele>1218</ele><time>2026-05-15T20:35:26.000Z</time></trkpt>
        <trkpt lat="29.550519" lon="103.371842"><ele>1217</ele><time>2026-05-15T20:35:32.000Z</time></trkpt>
        <trkpt lat="29.550464" lon="103.37175"><ele>1215</ele><time>2026-05-15T20:35:40.000Z</time></trkpt>
        <trkpt lat="29.5504" lon="103.37167"><ele>1213</ele><time>2026-05-15T20:35:48.000Z</time></trkpt>
        <trkpt lat="29.550353" lon="103.371575"><ele>1212</ele><time>2026-05-15T20:36:05.000Z</time></trkpt>
        <trkpt lat="29.550349" lon="103.371471"><ele>1210</ele><time>2026-05-15T20:36:31.000Z</time></trkpt>
        <trkpt lat="29.550401" lon="103.371385"><ele>1209</ele><time>2026-05-15T20:36:41.000Z</time></trkpt>
        <trkpt lat="29.550464" lon="103.371296"><ele>1210</ele><time>2026-05-15T20:36:49.000Z</time></trkpt>
        <trkpt lat="29.550497" lon="103.371189"><ele>1210</ele><time>2026-05-15T20:36:58.000Z</time></trkpt>
        <trkpt lat="29.550531" lon="103.37107"><ele>1210</ele><time>2026-05-15T20:37:06.000Z</time></trkpt>
        <trkpt lat="29.550512" lon="103.370957"><ele>1210</ele><time>2026-05-15T20:37:14.000Z</time></trkpt>
        <trkpt lat="29.550457" lon="103.370865"><ele>1209</ele><time>2026-05-15T20:37:26.000Z</time></trkpt>
        <trkpt lat="29.550399" lon="103.370777"><ele>1207</ele><time>2026-05-15T20:37:40.000Z</time></trkpt>
        <trkpt lat="29.550379" lon="103.37067"><ele>1205</ele><time>2026-05-15T20:37:59.000Z</time></trkpt>
        <trkpt lat="29.550404" lon="103.37057"><ele>1203</ele><time>2026-05-15T20:38:19.000Z</time></trkpt>
        <trkpt lat="29.55042" lon="103.370464"><ele>1201</ele><time>2026-05-15T20:38:33.000Z</time></trkpt>
        <trkpt lat="29.550394" lon="103.370364"><ele>1199</ele><time>2026-05-15T20:39:15.000Z</time></trkpt>
        <trkpt lat="29.550327" lon="103.370279"><ele>1198</ele><time>2026-05-15T20:39:31.000Z</time></trkpt>
        <trkpt lat="29.550294" lon="103.370163"><ele>1198</ele><time>2026-05-15T20:39:39.000Z</time></trkpt>
        <trkpt lat="29.550311" lon="103.370046"><ele>1197</ele><time>2026-05-15T20:39:47.000Z</time></trkpt>
        <trkpt lat="29.550304" lon="103.369931"><ele>1197</ele><time>2026-05-15T20:40:01.000Z</time></trkpt>
        <trkpt lat="29.550256" lon="103.369841"><ele>1198</ele><time>2026-05-15T20:40:21.000Z</time></trkpt>
        <trkpt lat="29.550218" lon="103.369737"><ele>1199</ele><time>2026-05-15T20:40:59.000Z</time></trkpt>
        <trkpt lat="29.550195" lon="103.36963"><ele>1201</ele><time>2026-05-15T20:41:27.000Z</time></trkpt>
        <trkpt lat="29.550157" lon="103.369535"><ele>1203</ele><time>2026-05-15T20:42:13.000Z</time></trkpt>
        <trkpt lat="29.550092" lon="103.369462"><ele>1208</ele><time>2026-05-15T20:42:43.000Z</time></trkpt>
        <trkpt lat="29.550036" lon="103.369373"><ele>1213</ele><time>2026-05-15T20:42:59.000Z</time></trkpt>
        <trkpt lat="29.549956" lon="103.369295"><ele>1218</ele><time>2026-05-15T20:43:11.000Z</time></trkpt>
        <trkpt lat="29.549908" lon="103.369194"><ele>1223</ele><time>2026-05-15T20:43:27.000Z</time></trkpt>
        <trkpt lat="29.549881" lon="103.369084"><ele>1227</ele><time>2026-05-15T20:43:47.000Z</time></trkpt>
        <trkpt lat="29.549937" lon="103.369009"><ele>1232</ele><time>2026-05-15T20:44:29.000Z</time></trkpt>
        <trkpt lat="29.549929" lon="103.368914"><ele>1237</ele><time>2026-05-15T20:45:27.000Z</time></trkpt>
        <trkpt lat="29.549848" lon="103.368873"><ele>1245</ele><time>2026-05-15T20:45:43.000Z</time></trkpt>
        <trkpt lat="29.549783" lon="103.368796"><ele>1250</ele><time>2026-05-15T20:46:07.000Z</time></trkpt>
        <trkpt lat="29.549704" lon="103.368729"><ele>1253</ele><time>2026-05-15T20:46:19.000Z</time></trkpt>
        <trkpt lat="29.549648" lon="103.368645"><ele>1255</ele><time>2026-05-15T20:46:53.000Z</time></trkpt>
        <trkpt lat="29.549673" lon="103.36854"><ele>1257</ele><time>2026-05-15T20:48:13.000Z</time></trkpt>
        <trkpt lat="29.549793" lon="103.36839"><ele>1262</ele><time>2026-05-15T20:50:07.000Z</time></trkpt>
        <trkpt lat="29.54989" lon="103.368357"><ele>1271</ele><time>2026-05-15T20:51:04.000Z</time></trkpt>
        <trkpt lat="29.549967" lon="103.368281"><ele>1284</ele><time>2026-05-15T20:51:36.000Z</time></trkpt>
        <trkpt lat="29.549941" lon="103.368191"><ele>1293</ele><time>2026-05-15T20:52:06.000Z</time></trkpt>
        <trkpt lat="29.549985" lon="103.368084"><ele>1302</ele><time>2026-05-15T20:53:05.000Z</time></trkpt>
        <trkpt lat="29.549917" lon="103.367905"><ele>1316</ele><time>2026-05-15T20:54:45.000Z</time></trkpt>
        <trkpt lat="29.549977" lon="103.367825"><ele>1329</ele><time>2026-05-15T20:55:49.000Z</time></trkpt>
        <trkpt lat="29.550048" lon="103.367757"><ele>1338</ele><time>2026-05-15T20:56:30.000Z</time></trkpt>
        <trkpt lat="29.550128" lon="103.367684"><ele>1345</ele><time>2026-05-15T20:56:56.000Z</time></trkpt>
        <trkpt lat="29.550209" lon="103.367629"><ele>1350</ele><time>2026-05-15T20:57:20.000Z</time></trkpt>
        <trkpt lat="29.550238" lon="103.367537"><ele>1356</ele><time>2026-05-15T20:57:40.000Z</time></trkpt>
        <trkpt lat="29.550282" lon="103.36745"><ele>1360</ele><time>2026-05-15T20:58:21.000Z</time></trkpt>
        <trkpt lat="29.550237" lon="103.367382"><ele>1365</ele><time>2026-05-15T20:58:45.000Z</time></trkpt>
        <trkpt lat="29.550143" lon="103.367347"><ele>1369</ele><time>2026-05-15T20:59:07.000Z</time></trkpt>
        <trkpt lat="29.55014" lon="103.367273"><ele>1373</ele><time>2026-05-15T20:59:54.000Z</time></trkpt>
        <trkpt lat="29.550176" lon="103.367178"><ele>1379</ele><time>2026-05-15T21:00:23.000Z</time></trkpt>
        <trkpt lat="29.550188" lon="103.367069"><ele>1385</ele><time>2026-05-15T21:00:55.000Z</time></trkpt>
        <trkpt lat="29.550194" lon="103.366958"><ele>1391</ele><time>2026-05-15T21:01:21.000Z</time></trkpt>
        <trkpt lat="29.550161" lon="103.36686"><ele>1399</ele><time>2026-05-15T21:02:12.000Z</time></trkpt>
        <trkpt lat="29.550166" lon="103.366749"><ele>1407</ele><time>2026-05-15T21:02:30.000Z</time></trkpt>
        <trkpt lat="29.550118" lon="103.366655"><ele>1411</ele><time>2026-05-15T21:03:06.000Z</time></trkpt>
        <trkpt lat="29.550026" lon="103.366611"><ele>1414</ele><time>2026-05-15T21:03:40.000Z</time></trkpt>
        <trkpt lat="29.549923" lon="103.366586"><ele>1417</ele><time>2026-05-15T21:04:00.000Z</time></trkpt>
        <trkpt lat="29.549806" lon="103.366576"><ele>1419</ele><time>2026-05-15T21:04:28.000Z</time></trkpt>
        <trkpt lat="29.549706" lon="103.366564"><ele>1422</ele><time>2026-05-15T21:05:00.000Z</time></trkpt>
        <trkpt lat="29.549573" lon="103.366462"><ele>1425</ele><time>2026-05-15T21:06:02.000Z</time></trkpt>
        <trkpt lat="29.549437" lon="103.366362"><ele>1430</ele><time>2026-05-15T21:07:16.000Z</time></trkpt>
        <trkpt lat="29.54944" lon="103.366258"><ele>1438</ele><time>2026-05-15T21:08:08.000Z</time></trkpt>
        <trkpt lat="29.549503" lon="103.366183"><ele>1447</ele><time>2026-05-15T21:08:45.000Z</time></trkpt>
        <trkpt lat="29.549582" lon="103.366122"><ele>1453</ele><time>2026-05-15T21:09:03.000Z</time></trkpt>
        <trkpt lat="29.549636" lon="103.366037"><ele>1456</ele><time>2026-05-15T21:09:13.000Z</time></trkpt>
        <trkpt lat="29.549669" lon="103.365937"><ele>1458</ele><time>2026-05-15T21:09:34.000Z</time></trkpt>
        <trkpt lat="29.549662" lon="103.365826"><ele>1460</ele><time>2026-05-15T21:10:00.000Z</time></trkpt>
        <trkpt lat="29.549631" lon="103.365716"><ele>1461</ele><time>2026-05-15T21:10:18.000Z</time></trkpt>
        <trkpt lat="29.549567" lon="103.365626"><ele>1463</ele><time>2026-05-15T21:10:36.000Z</time></trkpt>
        <trkpt lat="29.549546" lon="103.365522"><ele>1465</ele><time>2026-05-15T21:10:48.000Z</time></trkpt>
        <trkpt lat="29.549599" lon="103.365443"><ele>1465</ele><time>2026-05-15T21:10:58.000Z</time></trkpt>
        <trkpt lat="29.54967" lon="103.365369"><ele>1465</ele><time>2026-05-15T21:11:06.000Z</time></trkpt>
        <trkpt lat="29.549741" lon="103.365293"><ele>1464</ele><time>2026-05-15T21:11:14.000Z</time></trkpt>
        <trkpt lat="29.549798" lon="103.3652"><ele>1464</ele><time>2026-05-15T21:11:22.000Z</time></trkpt>
        <trkpt lat="29.549868" lon="103.365125"><ele>1464</ele><time>2026-05-15T21:11:31.000Z</time></trkpt>
        <trkpt lat="29.549935" lon="103.365045"><ele>1464</ele><time>2026-05-15T21:11:41.000Z</time></trkpt>
        <trkpt lat="29.549981" lon="103.364947"><ele>1464</ele><time>2026-05-15T21:11:51.000Z</time></trkpt>
        <trkpt lat="29.550049" lon="103.364866"><ele>1465</ele><time>2026-05-15T21:12:03.000Z</time></trkpt>
        <trkpt lat="29.550093" lon="103.36476"><ele>1466</ele><time>2026-05-15T21:12:13.000Z</time></trkpt>
        <trkpt lat="29.550108" lon="103.364641"><ele>1466</ele><time>2026-05-15T21:12:21.000Z</time></trkpt>
        <trkpt lat="29.550157" lon="103.364541"><ele>1467</ele><time>2026-05-15T21:12:34.000Z</time></trkpt>
        <trkpt lat="29.550221" lon="103.364458"><ele>1468</ele><time>2026-05-15T21:12:46.000Z</time></trkpt>
        <trkpt lat="29.550296" lon="103.364382"><ele>1468</ele><time>2026-05-15T21:12:56.000Z</time></trkpt>
        <trkpt lat="29.550347" lon="103.364296"><ele>1469</ele><time>2026-05-15T21:13:08.000Z</time></trkpt>
        <trkpt lat="29.550372" lon="103.364191"><ele>1469</ele><time>2026-05-15T21:13:24.000Z</time></trkpt>
        <trkpt lat="29.550401" lon="103.364088"><ele>1470</ele><time>2026-05-15T21:13:47.000Z</time></trkpt>
        <trkpt lat="29.550463" lon="103.364007"><ele>1472</ele><time>2026-05-15T21:14:48.000Z</time></trkpt>
        <trkpt lat="29.550468" lon="103.363895"><ele>1475</ele><time>2026-05-15T21:15:10.000Z</time></trkpt>
        <trkpt lat="29.550535" lon="103.363834"><ele>1478</ele><time>2026-05-15T21:15:29.000Z</time></trkpt>
        <trkpt lat="29.55063" lon="103.363798"><ele>1481</ele><time>2026-05-15T21:15:47.000Z</time></trkpt>
        <trkpt lat="29.55073" lon="103.36374"><ele>1484</ele><time>2026-05-15T21:15:59.000Z</time></trkpt>
        <trkpt lat="29.550777" lon="103.36365"><ele>1487</ele><time>2026-05-15T21:16:15.000Z</time></trkpt>
        <trkpt lat="29.550749" lon="103.363551"><ele>1489</ele><time>2026-05-15T21:16:25.000Z</time></trkpt>
        <trkpt lat="29.550721" lon="103.36344"><ele>1491</ele><time>2026-05-15T21:16:52.000Z</time></trkpt>
        <trkpt lat="29.550755" lon="103.363349"><ele>1493</ele><time>2026-05-15T21:17:51.000Z</time></trkpt>
        <trkpt lat="29.550776" lon="103.36325"><ele>1498</ele><time>2026-05-15T21:18:31.000Z</time></trkpt>
        <trkpt lat="29.550787" lon="103.363147"><ele>1502</ele><time>2026-05-15T21:19:09.000Z</time></trkpt>
        <trkpt lat="29.55081" lon="103.36304"><ele>1508</ele><time>2026-05-15T21:20:18.000Z</time></trkpt>
        <trkpt lat="29.550752" lon="103.362957"><ele>1517</ele><time>2026-05-15T21:21:01.000Z</time></trkpt>
        <trkpt lat="29.550612" lon="103.362848"><ele>1526</ele><time>2026-05-15T21:23:19.000Z</time></trkpt>
        <trkpt lat="29.550632" lon="103.362722"><ele>1533</ele><time>2026-05-15T21:23:54.000Z</time></trkpt>
        <trkpt lat="29.55065" lon="103.362608"><ele>1539</ele><time>2026-05-15T21:24:30.000Z</time></trkpt>
        <trkpt lat="29.550671" lon="103.362492"><ele>1545</ele><time>2026-05-15T21:25:19.000Z</time></trkpt>
        <trkpt lat="29.550699" lon="103.362384"><ele>1555</ele><time>2026-05-15T21:26:00.000Z</time></trkpt>
        <trkpt lat="29.550686" lon="103.362278"><ele>1561</ele><time>2026-05-15T21:26:53.000Z</time></trkpt>
        <trkpt lat="29.550653" lon="103.362168"><ele>1566</ele><time>2026-05-15T21:27:37.000Z</time></trkpt>
        <trkpt lat="29.550625" lon="103.362055"><ele>1569</ele><time>2026-05-15T21:28:30.000Z</time></trkpt>
        <trkpt lat="29.55063" lon="103.361948"><ele>1573</ele><time>2026-05-15T21:29:17.000Z</time></trkpt>
        <trkpt lat="29.550601" lon="103.361855"><ele>1581</ele><time>2026-05-15T21:29:46.000Z</time></trkpt>
        <trkpt lat="29.550544" lon="103.36177"><ele>1586</ele><time>2026-05-15T21:30:10.000Z</time></trkpt>
        <trkpt lat="29.55048" lon="103.36169"><ele>1590</ele><time>2026-05-15T21:30:32.000Z</time></trkpt>
        <trkpt lat="29.550425" lon="103.3616"><ele>1593</ele><time>2026-05-15T21:32:22.000Z</time></trkpt>
        <trkpt lat="29.550367" lon="103.361512"><ele>1597</ele><time>2026-05-15T21:32:46.000Z</time></trkpt>
        <trkpt lat="29.550308" lon="103.361421"><ele>1601</ele><time>2026-05-15T21:33:19.000Z</time></trkpt>
        <trkpt lat="29.550227" lon="103.361367"><ele>1605</ele><time>2026-05-15T21:33:43.000Z</time></trkpt>
        <trkpt lat="29.550148" lon="103.361295"><ele>1609</ele><time>2026-05-15T21:34:02.000Z</time></trkpt>
        <trkpt lat="29.55007" lon="103.361233"><ele>1612</ele><time>2026-05-15T21:34:08.000Z</time></trkpt>
        <trkpt lat="29.54999" lon="103.361171"><ele>1615</ele><time>2026-05-15T21:34:18.000Z</time></trkpt>
        <trkpt lat="29.549952" lon="103.36108"><ele>1617</ele><time>2026-05-15T21:34:32.000Z</time></trkpt>
        <trkpt lat="29.549928" lon="103.360975"><ele>1619</ele><time>2026-05-15T21:34:46.000Z</time></trkpt>
        <trkpt lat="29.549888" lon="103.360878"><ele>1620</ele><time>2026-05-15T21:34:53.000Z</time></trkpt>
        <trkpt lat="29.549895" lon="103.360771"><ele>1621</ele><time>2026-05-15T21:35:05.000Z</time></trkpt>
        <trkpt lat="29.549927" lon="103.360664"><ele>1623</ele><time>2026-05-15T21:35:19.000Z</time></trkpt>
        <trkpt lat="29.549979" lon="103.360568"><ele>1623</ele><time>2026-05-15T21:35:35.000Z</time></trkpt>
        <trkpt lat="29.550029" lon="103.360476"><ele>1624</ele><time>2026-05-15T21:35:47.000Z</time></trkpt>
        <trkpt lat="29.550064" lon="103.360379"><ele>1624</ele><time>2026-05-15T21:35:58.000Z</time></trkpt>
        <trkpt lat="29.550101" lon="103.360283"><ele>1624</ele><time>2026-05-15T21:36:10.000Z</time></trkpt>
        <trkpt lat="29.550153" lon="103.360195"><ele>1624</ele><time>2026-05-15T21:36:28.000Z</time></trkpt>
        <trkpt lat="29.550184" lon="103.360093"><ele>1623</ele><time>2026-05-15T21:36:51.000Z</time></trkpt>
        <trkpt lat="29.550184" lon="103.359987"><ele>1622</ele><time>2026-05-15T21:37:23.000Z</time></trkpt>
        <trkpt lat="29.550152" lon="103.359885"><ele>1624</ele><time>2026-05-15T21:38:06.000Z</time></trkpt>
        <trkpt lat="29.550103" lon="103.359791"><ele>1627</ele><time>2026-05-15T21:38:38.000Z</time></trkpt>
        <trkpt lat="29.550051" lon="103.359701"><ele>1631</ele><time>2026-05-15T21:38:57.000Z</time></trkpt>
        <trkpt lat="29.549993" lon="103.359612"><ele>1635</ele><time>2026-05-15T21:42:56.000Z</time></trkpt>
        <trkpt lat="29.549932" lon="103.359525"><ele>1637</ele><time>2026-05-15T21:43:22.000Z</time></trkpt>
        <trkpt lat="29.549911" lon="103.359423"><ele>1640</ele><time>2026-05-15T21:43:48.000Z</time></trkpt>
        <trkpt lat="29.549972" lon="103.359356"><ele>1643</ele><time>2026-05-15T21:44:28.000Z</time></trkpt>
        <trkpt lat="29.550048" lon="103.359289"><ele>1650</ele><time>2026-05-15T21:44:44.000Z</time></trkpt>
        <trkpt lat="29.550117" lon="103.359208"><ele>1653</ele><time>2026-05-15T21:44:54.000Z</time></trkpt>
        <trkpt lat="29.550209" lon="103.359178"><ele>1656</ele><time>2026-05-15T21:45:08.000Z</time></trkpt>
        <trkpt lat="29.550296" lon="103.359116"><ele>1658</ele><time>2026-05-15T21:45:18.000Z</time></trkpt>
        <trkpt lat="29.55032" lon="103.359014"><ele>1659</ele><time>2026-05-15T21:45:28.000Z</time></trkpt>
        <trkpt lat="29.550341" lon="103.358908"><ele>1659</ele><time>2026-05-15T21:45:52.000Z</time></trkpt>
        <trkpt lat="29.550356" lon="103.358799"><ele>1661</ele><time>2026-05-15T21:46:14.000Z</time></trkpt>
        <trkpt lat="29.550359" lon="103.358691"><ele>1662</ele><time>2026-05-15T21:46:32.000Z</time></trkpt>
        <trkpt lat="29.550379" lon="103.358588"><ele>1665</ele><time>2026-05-15T21:47:10.000Z</time></trkpt>
        <trkpt lat="29.550414" lon="103.358476"><ele>1670</ele><time>2026-05-15T21:47:40.000Z</time></trkpt>
        <trkpt lat="29.550411" lon="103.358366"><ele>1674</ele><time>2026-05-15T21:47:52.000Z</time></trkpt>
        <trkpt lat="29.550386" lon="103.358254"><ele>1675</ele><time>2026-05-15T21:48:04.000Z</time></trkpt>
        <trkpt lat="29.550364" lon="103.358149"><ele>1675</ele><time>2026-05-15T21:48:16.000Z</time></trkpt>
        <trkpt lat="29.550363" lon="103.358045"><ele>1675</ele><time>2026-05-15T21:48:42.000Z</time></trkpt>
        <trkpt lat="29.55037" lon="103.357935"><ele>1676</ele><time>2026-05-15T21:48:58.000Z</time></trkpt>
        <trkpt lat="29.550412" lon="103.357837"><ele>1678</ele><time>2026-05-15T21:49:18.000Z</time></trkpt>
        <trkpt lat="29.550437" lon="103.357736"><ele>1682</ele><time>2026-05-15T21:49:36.000Z</time></trkpt>
        <trkpt lat="29.55044" lon="103.357625"><ele>1686</ele><time>2026-05-15T21:49:50.000Z</time></trkpt>
        <trkpt lat="29.550446" lon="103.357516"><ele>1689</ele><time>2026-05-15T21:50:04.000Z</time></trkpt>
        <trkpt lat="29.550466" lon="103.357413"><ele>1691</ele><time>2026-05-15T21:50:22.000Z</time></trkpt>
        <trkpt lat="29.550492" lon="103.357308"><ele>1694</ele><time>2026-05-15T21:50:44.000Z</time></trkpt>
        <trkpt lat="29.550505" lon="103.357202"><ele>1697</ele><time>2026-05-15T21:51:12.000Z</time></trkpt>
        <trkpt lat="29.550479" lon="103.35709"><ele>1701</ele><time>2026-05-15T21:51:24.000Z</time></trkpt>
        <trkpt lat="29.550433" lon="103.356984"><ele>1703</ele><time>2026-05-15T21:51:34.000Z</time></trkpt>
        <trkpt lat="29.550346" lon="103.356918"><ele>1704</ele><time>2026-05-15T21:51:46.000Z</time></trkpt>
        <trkpt lat="29.550238" lon="103.356873"><ele>1705</ele><time>2026-05-15T21:51:54.000Z</time></trkpt>
        <trkpt lat="29.550134" lon="103.356854"><ele>1705</ele><time>2026-05-15T21:52:02.000Z</time></trkpt>
        <trkpt lat="29.550061" lon="103.356842"><ele>1706</ele><time>2026-05-15T21:52:24.000Z</time></trkpt>
        <trkpt lat="29.549977" lon="103.356917"><ele>1707</ele><time>2026-05-15T21:54:22.000Z</time></trkpt>
        <trkpt lat="29.54989" lon="103.356873"><ele>1707</ele><time>2026-05-15T21:54:40.000Z</time></trkpt>
        <trkpt lat="29.549827" lon="103.356791"><ele>1707</ele><time>2026-05-15T21:54:50.000Z</time></trkpt>
        <trkpt lat="29.549775" lon="103.356702"><ele>1709</ele><time>2026-05-15T21:55:02.000Z</time></trkpt>
        <trkpt lat="29.549768" lon="103.356757"><ele>1710</ele><time>2026-05-15T21:55:32.000Z</time></trkpt>
        <trkpt lat="29.549806" lon="103.356864"><ele>1712</ele><time>2026-05-15T21:55:44.000Z</time></trkpt>
        <trkpt lat="29.549881" lon="103.356963"><ele>1713</ele><time>2026-05-15T21:55:52.000Z</time></trkpt>
        <trkpt lat="29.549976" lon="103.356965"><ele>1716</ele><time>2026-05-15T21:56:04.000Z</time></trkpt>
        <trkpt lat="29.550022" lon="103.356875"><ele>1717</ele><time>2026-05-15T21:56:18.000Z</time></trkpt>
        <trkpt lat="29.549983" lon="103.356752"><ele>1716</ele><time>2026-05-15T21:57:10.000Z</time></trkpt>
        <trkpt lat="29.549993" lon="103.356612"><ele>1713</ele><time>2026-05-15T22:04:32.000Z</time></trkpt>
        <trkpt lat="29.55003" lon="103.356507"><ele>1710</ele><time>2026-05-15T22:04:44.000Z</time></trkpt>
        <trkpt lat="29.550086" lon="103.356414"><ele>1709</ele><time>2026-05-15T22:04:56.000Z</time></trkpt>
        <trkpt lat="29.550159" lon="103.356333"><ele>1708</ele><time>2026-05-15T22:05:08.000Z</time></trkpt>
        <trkpt lat="29.550221" lon="103.356238"><ele>1707</ele><time>2026-05-15T22:05:18.000Z</time></trkpt>
        <trkpt lat="29.550252" lon="103.356123"><ele>1706</ele><time>2026-05-15T22:05:32.000Z</time></trkpt>
        <trkpt lat="29.550278" lon="103.356009"><ele>1704</ele><time>2026-05-15T22:05:42.000Z</time></trkpt>
        <trkpt lat="29.550324" lon="103.355895"><ele>1703</ele><time>2026-05-15T22:05:52.000Z</time></trkpt>
        <trkpt lat="29.550381" lon="103.355807"><ele>1701</ele><time>2026-05-15T22:06:02.000Z</time></trkpt>
        <trkpt lat="29.550469" lon="103.355776"><ele>1698</ele><time>2026-05-15T22:06:20.000Z</time></trkpt>
        <trkpt lat="29.550572" lon="103.35578"><ele>1695</ele><time>2026-05-15T22:06:32.000Z</time></trkpt>
        <trkpt lat="29.550669" lon="103.355795"><ele>1693</ele><time>2026-05-15T22:06:42.000Z</time></trkpt>
        <trkpt lat="29.550765" lon="103.355797"><ele>1691</ele><time>2026-05-15T22:06:52.000Z</time></trkpt>
        <trkpt lat="29.550857" lon="103.355771"><ele>1690</ele><time>2026-05-15T22:07:00.000Z</time></trkpt>
        <trkpt lat="29.550945" lon="103.355715"><ele>1688</ele><time>2026-05-15T22:07:10.000Z</time></trkpt>
        <trkpt lat="29.551036" lon="103.35566"><ele>1686</ele><time>2026-05-15T22:07:22.000Z</time></trkpt>
        <trkpt lat="29.551124" lon="103.3556"><ele>1684</ele><time>2026-05-15T22:07:34.000Z</time></trkpt>
        <trkpt lat="29.551201" lon="103.355523"><ele>1681</ele><time>2026-05-15T22:07:48.000Z</time></trkpt>
        <trkpt lat="29.551272" lon="103.355445"><ele>1678</ele><time>2026-05-15T22:08:04.000Z</time></trkpt>
        <trkpt lat="29.55133" lon="103.355355"><ele>1673</ele><time>2026-05-15T22:08:20.000Z</time></trkpt>
        <trkpt lat="29.551385" lon="103.355256"><ele>1669</ele><time>2026-05-15T22:08:34.000Z</time></trkpt>
        <trkpt lat="29.551435" lon="103.355162"><ele>1665</ele><time>2026-05-15T22:08:48.000Z</time></trkpt>
        <trkpt lat="29.551483" lon="103.355071"><ele>1662</ele><time>2026-05-15T22:08:58.000Z</time></trkpt>
        <trkpt lat="29.551529" lon="103.35497"><ele>1659</ele><time>2026-05-15T22:09:06.000Z</time></trkpt>
        <trkpt lat="29.551566" lon="103.354869"><ele>1657</ele><time>2026-05-15T22:09:18.000Z</time></trkpt>
        <trkpt lat="29.551609" lon="103.354769"><ele>1655</ele><time>2026-05-15T22:09:32.000Z</time></trkpt>
        <trkpt lat="29.551655" lon="103.354674"><ele>1653</ele><time>2026-05-15T22:09:44.000Z</time></trkpt>
        <trkpt lat="29.551701" lon="103.354578"><ele>1651</ele><time>2026-05-15T22:09:54.000Z</time></trkpt>
        <trkpt lat="29.551767" lon="103.354493"><ele>1649</ele><time>2026-05-15T22:10:04.000Z</time></trkpt>
        <trkpt lat="29.551823" lon="103.354405"><ele>1647</ele><time>2026-05-15T22:10:18.000Z</time></trkpt>
        <trkpt lat="29.551821" lon="103.354295"><ele>1646</ele><time>2026-05-15T22:10:28.000Z</time></trkpt>
        <trkpt lat="29.551859" lon="103.354207"><ele>1644</ele><time>2026-05-15T22:10:36.000Z</time></trkpt>
        <trkpt lat="29.551932" lon="103.354138"><ele>1641</ele><time>2026-05-15T22:10:48.000Z</time></trkpt>
        <trkpt lat="29.551957" lon="103.354046"><ele>1638</ele><time>2026-05-15T22:10:58.000Z</time></trkpt>
        <trkpt lat="29.551915" lon="103.353941"><ele>1635</ele><time>2026-05-15T22:11:12.000Z</time></trkpt>
        <trkpt lat="29.551885" lon="103.35383"><ele>1634</ele><time>2026-05-15T22:11:20.000Z</time></trkpt>
        <trkpt lat="29.55184" lon="103.353727"><ele>1633</ele><time>2026-05-15T22:11:30.000Z</time></trkpt>
        <trkpt lat="29.551791" lon="103.353621"><ele>1632</ele><time>2026-05-15T22:11:40.000Z</time></trkpt>
        <trkpt lat="29.551758" lon="103.353504"><ele>1632</ele><time>2026-05-15T22:11:52.000Z</time></trkpt>
        <trkpt lat="29.551764" lon="103.353393"><ele>1633</ele><time>2026-05-15T22:12:10.000Z</time></trkpt>
        <trkpt lat="29.551795" lon="103.353283"><ele>1634</ele><time>2026-05-15T22:12:20.000Z</time></trkpt>
        <trkpt lat="29.551809" lon="103.353162"><ele>1633</ele><time>2026-05-15T22:12:30.000Z</time></trkpt>
        <trkpt lat="29.551821" lon="103.353053"><ele>1631</ele><time>2026-05-15T22:12:40.000Z</time></trkpt>
        <trkpt lat="29.551859" lon="103.352953"><ele>1630</ele><time>2026-05-15T22:12:56.000Z</time></trkpt>
        <trkpt lat="29.551911" lon="103.352858"><ele>1628</ele><time>2026-05-15T22:13:12.000Z</time></trkpt>
        <trkpt lat="29.551961" lon="103.352764"><ele>1626</ele><time>2026-05-15T22:13:28.000Z</time></trkpt>
        <trkpt lat="29.552042" lon="103.352727"><ele>1623</ele><time>2026-05-15T22:13:48.000Z</time></trkpt>
        <trkpt lat="29.552132" lon="103.352751"><ele>1620</ele><time>2026-05-15T22:14:08.000Z</time></trkpt>
        <trkpt lat="29.552229" lon="103.352789"><ele>1617</ele><time>2026-05-15T22:14:26.000Z</time></trkpt>
        <trkpt lat="29.55225" lon="103.352726"><ele>1613</ele><time>2026-05-15T22:14:46.000Z</time></trkpt>
        <trkpt lat="29.552271" lon="103.352622"><ele>1609</ele><time>2026-05-15T22:15:02.000Z</time></trkpt>
        <trkpt lat="29.552303" lon="103.352508"><ele>1607</ele><time>2026-05-15T22:15:16.000Z</time></trkpt>
        <trkpt lat="29.552329" lon="103.352397"><ele>1605</ele><time>2026-05-15T22:15:30.000Z</time></trkpt>
        <trkpt lat="29.552402" lon="103.352327"><ele>1603</ele><time>2026-05-15T22:16:04.000Z</time></trkpt>
        <trkpt lat="29.552415" lon="103.352396"><ele>1599</ele><time>2026-05-15T22:16:22.000Z</time></trkpt>
        <trkpt lat="29.552426" lon="103.352512"><ele>1596</ele><time>2026-05-15T22:16:38.000Z</time></trkpt>
        <trkpt lat="29.552486" lon="103.352605"><ele>1594</ele><time>2026-05-15T22:16:52.000Z</time></trkpt>
        <trkpt lat="29.552569" lon="103.352661"><ele>1594</ele><time>2026-05-15T22:17:12.000Z</time></trkpt>
        <trkpt lat="29.552664" lon="103.352655"><ele>1595</ele><time>2026-05-15T22:17:30.000Z</time></trkpt>
        <trkpt lat="29.552765" lon="103.352619"><ele>1596</ele><time>2026-05-15T22:17:56.000Z</time></trkpt>
        <trkpt lat="29.552822" lon="103.352683"><ele>1597</ele><time>2026-05-15T22:18:36.000Z</time></trkpt>
        <trkpt lat="29.552901" lon="103.352745"><ele>1595</ele><time>2026-05-15T22:18:44.000Z</time></trkpt>
        <trkpt lat="29.552989" lon="103.352766"><ele>1594</ele><time>2026-05-15T22:18:48.000Z</time></trkpt>
        <trkpt lat="29.553102" lon="103.352754"><ele>1593</ele><time>2026-05-15T22:18:54.000Z</time></trkpt>
        <trkpt lat="29.553203" lon="103.352724"><ele>1593</ele><time>2026-05-15T22:19:00.000Z</time></trkpt>
        <trkpt lat="29.553297" lon="103.352703"><ele>1593</ele><time>2026-05-15T22:19:10.000Z</time></trkpt>
        <trkpt lat="29.553378" lon="103.352655"><ele>1593</ele><time>2026-05-15T22:19:20.000Z</time></trkpt>
        <trkpt lat="29.553462" lon="103.352614"><ele>1594</ele><time>2026-05-15T22:19:32.000Z</time></trkpt>
        <trkpt lat="29.553553" lon="103.352616"><ele>1595</ele><time>2026-05-15T22:19:46.000Z</time></trkpt>
        <trkpt lat="29.553661" lon="103.352611"><ele>1597</ele><time>2026-05-15T22:19:56.000Z</time></trkpt>
        <trkpt lat="29.553765" lon="103.352572"><ele>1598</ele><time>2026-05-15T22:20:06.000Z</time></trkpt>
        <trkpt lat="29.553859" lon="103.352567"><ele>1599</ele><time>2026-05-15T22:20:22.000Z</time></trkpt>
        <trkpt lat="29.55392" lon="103.352642"><ele>1600</ele><time>2026-05-15T22:20:36.000Z</time></trkpt>
        <trkpt lat="29.554008" lon="103.352688"><ele>1602</ele><time>2026-05-15T22:20:46.000Z</time></trkpt>
        <trkpt lat="29.554103" lon="103.352695"><ele>1604</ele><time>2026-05-15T22:20:58.000Z</time></trkpt>
        <trkpt lat="29.554199" lon="103.352698"><ele>1605</ele><time>2026-05-15T22:21:10.000Z</time></trkpt>
        <trkpt lat="29.554289" lon="103.352749"><ele>1606</ele><time>2026-05-15T22:21:22.000Z</time></trkpt>
        <trkpt lat="29.554385" lon="103.352783"><ele>1607</ele><time>2026-05-15T22:21:36.000Z</time></trkpt>
        <trkpt lat="29.554441" lon="103.352864"><ele>1609</ele><time>2026-05-15T22:22:02.000Z</time></trkpt>
        <trkpt lat="29.554452" lon="103.352971"><ele>1611</ele><time>2026-05-15T22:22:14.000Z</time></trkpt>
        <trkpt lat="29.554465" lon="103.353081"><ele>1613</ele><time>2026-05-15T22:22:32.000Z</time></trkpt>
        <trkpt lat="29.55451" lon="103.353171"><ele>1615</ele><time>2026-05-15T22:22:54.000Z</time></trkpt>
        <trkpt lat="29.554578" lon="103.353247"><ele>1617</ele><time>2026-05-15T22:23:20.000Z</time></trkpt>
        <trkpt lat="29.554592" lon="103.353345"><ele>1621</ele><time>2026-05-15T22:23:44.000Z</time></trkpt>
        <trkpt lat="29.554587" lon="103.353458"><ele>1625</ele><time>2026-05-15T22:24:04.000Z</time></trkpt>
        <trkpt lat="29.554567" lon="103.353565"><ele>1628</ele><time>2026-05-15T22:24:16.000Z</time></trkpt>
        <trkpt lat="29.554611" lon="103.353676"><ele>1630</ele><time>2026-05-15T22:24:26.000Z</time></trkpt>
        <trkpt lat="29.554702" lon="103.353726"><ele>1631</ele><time>2026-05-15T22:24:32.000Z</time></trkpt>
        <trkpt lat="29.554798" lon="103.353763"><ele>1630</ele><time>2026-05-15T22:24:42.000Z</time></trkpt>
        <trkpt lat="29.554893" lon="103.353786"><ele>1630</ele><time>2026-05-15T22:24:56.000Z</time></trkpt>
        <trkpt lat="29.554978" lon="103.353748"><ele>1629</ele><time>2026-05-15T22:25:12.000Z</time></trkpt>
        <trkpt lat="29.555058" lon="103.353674"><ele>1628</ele><time>2026-05-15T22:25:28.000Z</time></trkpt>
        <trkpt lat="29.555148" lon="103.353629"><ele>1626</ele><time>2026-05-15T22:25:50.000Z</time></trkpt>
        <trkpt lat="29.55523" lon="103.35357"><ele>1624</ele><time>2026-05-15T22:26:08.000Z</time></trkpt>
        <trkpt lat="29.555323" lon="103.353527"><ele>1621</ele><time>2026-05-15T22:26:26.000Z</time></trkpt>
        <trkpt lat="29.555416" lon="103.353478"><ele>1619</ele><time>2026-05-15T22:26:36.000Z</time></trkpt>
        <trkpt lat="29.555515" lon="103.353443"><ele>1616</ele><time>2026-05-15T22:26:48.000Z</time></trkpt>
        <trkpt lat="29.555606" lon="103.353396"><ele>1613</ele><time>2026-05-15T22:27:06.000Z</time></trkpt>
        <trkpt lat="29.555702" lon="103.353374"><ele>1609</ele><time>2026-05-15T22:27:20.000Z</time></trkpt>
        <trkpt lat="29.555805" lon="103.353384"><ele>1604</ele><time>2026-05-15T22:27:30.000Z</time></trkpt>
        <trkpt lat="29.555901" lon="103.353424"><ele>1602</ele><time>2026-05-15T22:27:38.000Z</time></trkpt>
        <trkpt lat="29.555988" lon="103.353466"><ele>1600</ele><time>2026-05-15T22:27:46.000Z</time></trkpt>
        <trkpt lat="29.556079" lon="103.353527"><ele>1601</ele><time>2026-05-15T22:27:58.000Z</time></trkpt>
        <trkpt lat="29.556168" lon="103.353577"><ele>1603</ele><time>2026-05-15T22:28:14.000Z</time></trkpt>
        <trkpt lat="29.556262" lon="103.3536"><ele>1606</ele><time>2026-05-15T22:28:30.000Z</time></trkpt>
        <trkpt lat="29.556347" lon="103.35354"><ele>1608</ele><time>2026-05-15T22:28:44.000Z</time></trkpt>
        <trkpt lat="29.556415" lon="103.353451"><ele>1610</ele><time>2026-05-15T22:28:54.000Z</time></trkpt>
        <trkpt lat="29.556487" lon="103.353356"><ele>1610</ele><time>2026-05-15T22:29:04.000Z</time></trkpt>
        <trkpt lat="29.55656" lon="103.353274"><ele>1610</ele><time>2026-05-15T22:29:12.000Z</time></trkpt>
        <trkpt lat="29.556633" lon="103.353197"><ele>1609</ele><time>2026-05-15T22:29:22.000Z</time></trkpt>
        <trkpt lat="29.556694" lon="103.353112"><ele>1607</ele><time>2026-05-15T22:29:32.000Z</time></trkpt>
        <trkpt lat="29.556768" lon="103.353052"><ele>1605</ele><time>2026-05-15T22:29:48.000Z</time></trkpt>
        <trkpt lat="29.556841" lon="103.352969"><ele>1602</ele><time>2026-05-15T22:30:04.000Z</time></trkpt>
        <trkpt lat="29.556901" lon="103.352879"><ele>1600</ele><time>2026-05-15T22:30:14.000Z</time></trkpt>
        <trkpt lat="29.55695" lon="103.35278"><ele>1597</ele><time>2026-05-15T22:30:24.000Z</time></trkpt>
        <trkpt lat="29.557003" lon="103.352685"><ele>1595</ele><time>2026-05-15T22:30:37.000Z</time></trkpt>
        <trkpt lat="29.557074" lon="103.352611"><ele>1592</ele><time>2026-05-15T22:30:53.000Z</time></trkpt>
        <trkpt lat="29.55715" lon="103.352537"><ele>1590</ele><time>2026-05-15T22:31:07.000Z</time></trkpt>
        <trkpt lat="29.557215" lon="103.352454"><ele>1587</ele><time>2026-05-15T22:31:27.000Z</time></trkpt>
        <trkpt lat="29.557274" lon="103.352368"><ele>1583</ele><time>2026-05-15T22:31:39.000Z</time></trkpt>
        <trkpt lat="29.557339" lon="103.352281"><ele>1580</ele><time>2026-05-15T22:31:57.000Z</time></trkpt>
        <trkpt lat="29.557406" lon="103.352198"><ele>1576</ele><time>2026-05-15T22:32:09.000Z</time></trkpt>
        <trkpt lat="29.55747" lon="103.352122"><ele>1574</ele><time>2026-05-15T22:32:21.000Z</time></trkpt>
        <trkpt lat="29.557525" lon="103.352023"><ele>1572</ele><time>2026-05-15T22:32:35.000Z</time></trkpt>
        <trkpt lat="29.55756" lon="103.35191"><ele>1569</ele><time>2026-05-15T22:32:45.000Z</time></trkpt>
        <trkpt lat="29.557601" lon="103.35181"><ele>1567</ele><time>2026-05-15T22:33:01.000Z</time></trkpt>
        <trkpt lat="29.557645" lon="103.351715"><ele>1564</ele><time>2026-05-15T22:33:23.000Z</time></trkpt>
        <trkpt lat="29.557667" lon="103.351613"><ele>1561</ele><time>2026-05-15T22:33:39.000Z</time></trkpt>
        <trkpt lat="29.557712" lon="103.351525"><ele>1558</ele><time>2026-05-15T22:33:57.000Z</time></trkpt>
        <trkpt lat="29.557785" lon="103.351545"><ele>1556</ele><time>2026-05-15T22:34:17.000Z</time></trkpt>
        <trkpt lat="29.557875" lon="103.351589"><ele>1555</ele><time>2026-05-15T22:34:39.000Z</time></trkpt>
        <trkpt lat="29.557969" lon="103.351631"><ele>1556</ele><time>2026-05-15T22:34:57.000Z</time></trkpt>
        <trkpt lat="29.558068" lon="103.351681"><ele>1556</ele><time>2026-05-15T22:35:09.000Z</time></trkpt>
        <trkpt lat="29.558169" lon="103.351703"><ele>1557</ele><time>2026-05-15T22:35:19.000Z</time></trkpt>
        <trkpt lat="29.55826" lon="103.351664"><ele>1558</ele><time>2026-05-15T22:35:29.000Z</time></trkpt>
        <trkpt lat="29.558334" lon="103.351582"><ele>1558</ele><time>2026-05-15T22:35:43.000Z</time></trkpt>
        <trkpt lat="29.558412" lon="103.351512"><ele>1557</ele><time>2026-05-15T22:35:55.000Z</time></trkpt>
        <trkpt lat="29.558502" lon="103.351459"><ele>1557</ele><time>2026-05-15T22:36:07.000Z</time></trkpt>
        <trkpt lat="29.558588" lon="103.351404"><ele>1556</ele><time>2026-05-15T22:36:17.000Z</time></trkpt>
        <trkpt lat="29.558666" lon="103.351331"><ele>1555</ele><time>2026-05-15T22:36:27.000Z</time></trkpt>
        <trkpt lat="29.558732" lon="103.351252"><ele>1554</ele><time>2026-05-15T22:36:39.000Z</time></trkpt>
        <trkpt lat="29.558813" lon="103.351213"><ele>1553</ele><time>2026-05-15T22:36:53.000Z</time></trkpt>
        <trkpt lat="29.5589" lon="103.351149"><ele>1551</ele><time>2026-05-15T22:37:03.000Z</time></trkpt>
        <trkpt lat="29.558977" lon="103.35108"><ele>1549</ele><time>2026-05-15T22:37:13.000Z</time></trkpt>
        <trkpt lat="29.559035" lon="103.350994"><ele>1547</ele><time>2026-05-15T22:37:23.000Z</time></trkpt>
        <trkpt lat="29.559113" lon="103.35091"><ele>1546</ele><time>2026-05-15T22:37:35.000Z</time></trkpt>
        <trkpt lat="29.559196" lon="103.350852"><ele>1546</ele><time>2026-05-15T22:37:47.000Z</time></trkpt>
        <trkpt lat="29.55929" lon="103.350844"><ele>1547</ele><time>2026-05-15T22:38:07.000Z</time></trkpt>
        <trkpt lat="29.559389" lon="103.350812"><ele>1547</ele><time>2026-05-15T22:38:21.000Z</time></trkpt>
        <trkpt lat="29.559464" lon="103.350745"><ele>1546</ele><time>2026-05-15T22:38:37.000Z</time></trkpt>
        <trkpt lat="29.559556" lon="103.350687"><ele>1544</ele><time>2026-05-15T22:38:51.000Z</time></trkpt>
        <trkpt lat="29.559641" lon="103.35063"><ele>1542</ele><time>2026-05-15T22:39:01.000Z</time></trkpt>
        <trkpt lat="29.559712" lon="103.350553"><ele>1539</ele><time>2026-05-15T22:40:23.000Z</time></trkpt>
        <trkpt lat="29.559793" lon="103.3505"><ele>1539</ele><time>2026-05-15T22:40:47.000Z</time></trkpt>
        <trkpt lat="29.559865" lon="103.350435"><ele>1538</ele><time>2026-05-15T22:41:29.000Z</time></trkpt>
        <trkpt lat="29.559944" lon="103.350383"><ele>1539</ele><time>2026-05-15T22:42:13.000Z</time></trkpt>
        <trkpt lat="29.56003" lon="103.350432"><ele>1543</ele><time>2026-05-15T22:44:21.000Z</time></trkpt>
        <trkpt lat="29.560082" lon="103.35052"><ele>1548</ele><time>2026-05-15T22:44:51.000Z</time></trkpt>
        <trkpt lat="29.56013" lon="103.350608"><ele>1554</ele><time>2026-05-15T22:46:27.000Z</time></trkpt>
        <trkpt lat="29.560178" lon="103.350697"><ele>1561</ele><time>2026-05-15T22:47:29.000Z</time></trkpt>
        <trkpt lat="29.560193" lon="103.350807"><ele>1569</ele><time>2026-05-15T22:47:47.000Z</time></trkpt>
        <trkpt lat="29.560213" lon="103.350914"><ele>1576</ele><time>2026-05-15T22:48:03.000Z</time></trkpt>
        <trkpt lat="29.560195" lon="103.351017"><ele>1581</ele><time>2026-05-15T22:48:55.000Z</time></trkpt>
        <trkpt lat="29.560218" lon="103.351113"><ele>1587</ele><time>2026-05-15T22:49:49.000Z</time></trkpt>
        <trkpt lat="29.560294" lon="103.351154"><ele>1592</ele><time>2026-05-15T22:50:23.000Z</time></trkpt>
        <trkpt lat="29.560391" lon="103.351169"><ele>1596</ele><time>2026-05-15T22:51:11.000Z</time></trkpt>
        <trkpt lat="29.560487" lon="103.351145"><ele>1603</ele><time>2026-05-15T22:51:51.000Z</time></trkpt>
        <trkpt lat="29.560538" lon="103.351215"><ele>1608</ele><time>2026-05-15T22:54:09.000Z</time></trkpt>
        <trkpt lat="29.560622" lon="103.351283"><ele>1615</ele><time>2026-05-15T22:54:43.000Z</time></trkpt>
        <trkpt lat="29.560568" lon="103.351383"><ele>1621</ele><time>2026-05-15T22:56:07.000Z</time></trkpt>
        <trkpt lat="29.560498" lon="103.351458"><ele>1630</ele><time>2026-05-15T22:56:27.000Z</time></trkpt>
        <trkpt lat="29.560492" lon="103.351566"><ele>1637</ele><time>2026-05-15T22:56:47.000Z</time></trkpt>
        <trkpt lat="29.560511" lon="103.351673"><ele>1642</ele><time>2026-05-15T22:57:33.000Z</time></trkpt>
        <trkpt lat="29.560594" lon="103.351684"><ele>1651</ele><time>2026-05-15T22:57:53.000Z</time></trkpt>
        <trkpt lat="29.560702" lon="103.351602"><ele>1658</ele><time>2026-05-15T22:58:31.000Z</time></trkpt>
        <trkpt lat="29.560804" lon="103.351584"><ele>1663</ele><time>2026-05-15T22:59:03.000Z</time></trkpt>
        <trkpt lat="29.560898" lon="103.351547"><ele>1669</ele><time>2026-05-15T22:59:19.000Z</time></trkpt>
        <trkpt lat="29.56097" lon="103.351596"><ele>1673</ele><time>2026-05-15T22:59:39.000Z</time></trkpt>
        <trkpt lat="29.561062" lon="103.351615"><ele>1675</ele><time>2026-05-15T22:59:53.000Z</time></trkpt>
        <trkpt lat="29.561156" lon="103.35164"><ele>1677</ele><time>2026-05-15T23:00:05.000Z</time></trkpt>
        <trkpt lat="29.561254" lon="103.351666"><ele>1677</ele><time>2026-05-15T23:00:17.000Z</time></trkpt>
        <trkpt lat="29.561344" lon="103.351697"><ele>1677</ele><time>2026-05-15T23:00:35.000Z</time></trkpt>
        <trkpt lat="29.561425" lon="103.351745"><ele>1677</ele><time>2026-05-15T23:02:15.000Z</time></trkpt>
        <trkpt lat="29.561403" lon="103.35185"><ele>1683</ele><time>2026-05-15T23:04:51.000Z</time></trkpt>
        <trkpt lat="29.561485" lon="103.351895"><ele>1688</ele><time>2026-05-15T23:05:17.000Z</time></trkpt>
        <trkpt lat="29.561564" lon="103.351947"><ele>1692</ele><time>2026-05-15T23:05:59.000Z</time></trkpt>
        <trkpt lat="29.561652" lon="103.351991"><ele>1698</ele><time>2026-05-15T23:06:23.000Z</time></trkpt>
        <trkpt lat="29.561738" lon="103.352042"><ele>1704</ele><time>2026-05-15T23:06:49.000Z</time></trkpt>
        <trkpt lat="29.561762" lon="103.352153"><ele>1708</ele><time>2026-05-15T23:08:03.000Z</time></trkpt>
        <trkpt lat="29.561885" lon="103.352173"><ele>1718</ele><time>2026-05-15T23:11:01.000Z</time></trkpt>
        <trkpt lat="29.561977" lon="103.352183"><ele>1732</ele><time>2026-05-15T23:11:19.000Z</time></trkpt>
        <trkpt lat="29.562068" lon="103.352191"><ele>1740</ele><time>2026-05-15T23:11:37.000Z</time></trkpt>
        <trkpt lat="29.562165" lon="103.352186"><ele>1744</ele><time>2026-05-15T23:12:03.000Z</time></trkpt>
        <trkpt lat="29.562261" lon="103.352196"><ele>1746</ele><time>2026-05-15T23:12:33.000Z</time></trkpt>
        <trkpt lat="29.562351" lon="103.352183"><ele>1747</ele><time>2026-05-15T23:12:53.000Z</time></trkpt>
        <trkpt lat="29.562441" lon="103.352215"><ele>1748</ele><time>2026-05-15T23:13:25.000Z</time></trkpt>
        <trkpt lat="29.562526" lon="103.352258"><ele>1749</ele><time>2026-05-15T23:14:23.000Z</time></trkpt>
        <trkpt lat="29.562616" lon="103.35228"><ele>1751</ele><time>2026-05-15T23:15:17.000Z</time></trkpt>
        <trkpt lat="29.562711" lon="103.352279"><ele>1755</ele><time>2026-05-15T23:15:37.000Z</time></trkpt>
        <trkpt lat="29.562738" lon="103.352185"><ele>1759</ele><time>2026-05-15T23:15:49.000Z</time></trkpt>
        <trkpt lat="29.56271" lon="103.352077"><ele>1764</ele><time>2026-05-15T23:15:59.000Z</time></trkpt>
        <trkpt lat="29.562658" lon="103.351958"><ele>1768</ele><time>2026-05-15T23:16:13.000Z</time></trkpt>
        <trkpt lat="29.562592" lon="103.35186"><ele>1771</ele><time>2026-05-15T23:16:23.000Z</time></trkpt>
        <trkpt lat="29.56252" lon="103.351782"><ele>1774</ele><time>2026-05-15T23:16:41.000Z</time></trkpt>
        <trkpt lat="29.562555" lon="103.351719"><ele>1776</ele><time>2026-05-15T23:17:17.000Z</time></trkpt>
        <trkpt lat="29.562616" lon="103.351636"><ele>1779</ele><time>2026-05-15T23:17:53.000Z</time></trkpt>
        <trkpt lat="29.562661" lon="103.351533"><ele>1780</ele><time>2026-05-15T23:18:13.000Z</time></trkpt>
        <trkpt lat="29.562698" lon="103.351427"><ele>1782</ele><time>2026-05-15T23:18:27.000Z</time></trkpt>
        <trkpt lat="29.562745" lon="103.351327"><ele>1782</ele><time>2026-05-15T23:18:41.000Z</time></trkpt>
        <trkpt lat="29.5628" lon="103.351237"><ele>1783</ele><time>2026-05-15T23:19:07.000Z</time></trkpt>
        <trkpt lat="29.562856" lon="103.351149"><ele>1786</ele><time>2026-05-15T23:19:29.000Z</time></trkpt>
        <trkpt lat="29.56287" lon="103.351049"><ele>1788</ele><time>2026-05-15T23:19:47.000Z</time></trkpt>
        <trkpt lat="29.562866" lon="103.350944"><ele>1790</ele><time>2026-05-15T23:20:07.000Z</time></trkpt>
        <trkpt lat="29.562857" lon="103.350836"><ele>1793</ele><time>2026-05-15T23:20:29.000Z</time></trkpt>
        <trkpt lat="29.562883" lon="103.350725"><ele>1796</ele><time>2026-05-15T23:22:19.000Z</time></trkpt>
        <trkpt lat="29.562872" lon="103.350617"><ele>1798</ele><time>2026-05-15T23:22:27.000Z</time></trkpt>
        <trkpt lat="29.562888" lon="103.35051"><ele>1799</ele><time>2026-05-15T23:22:41.000Z</time></trkpt>
        <trkpt lat="29.562903" lon="103.350397"><ele>1798</ele><time>2026-05-15T23:22:53.000Z</time></trkpt>
        <trkpt lat="29.562927" lon="103.350293"><ele>1794</ele><time>2026-05-15T23:23:03.000Z</time></trkpt>
        <trkpt lat="29.562956" lon="103.350186"><ele>1791</ele><time>2026-05-15T23:23:15.000Z</time></trkpt>
        <trkpt lat="29.562957" lon="103.350077"><ele>1787</ele><time>2026-05-15T23:23:23.000Z</time></trkpt>
        <trkpt lat="29.562958" lon="103.349966"><ele>1785</ele><time>2026-05-15T23:23:33.000Z</time></trkpt>
        <trkpt lat="29.562974" lon="103.349859"><ele>1783</ele><time>2026-05-15T23:23:41.000Z</time></trkpt>
        <trkpt lat="29.563005" lon="103.349743"><ele>1782</ele><time>2026-05-15T23:23:49.000Z</time></trkpt>
        <trkpt lat="29.563043" lon="103.349635"><ele>1782</ele><time>2026-05-15T23:23:57.000Z</time></trkpt>
        <trkpt lat="29.563099" lon="103.34953"><ele>1782</ele><time>2026-05-15T23:24:07.000Z</time></trkpt>
        <trkpt lat="29.563148" lon="103.349424"><ele>1782</ele><time>2026-05-15T23:24:19.000Z</time></trkpt>
        <trkpt lat="29.563188" lon="103.349317"><ele>1783</ele><time>2026-05-15T23:24:29.000Z</time></trkpt>
        <trkpt lat="29.56324" lon="103.349219"><ele>1784</ele><time>2026-05-15T23:24:37.000Z</time></trkpt>
        <trkpt lat="29.563254" lon="103.34911"><ele>1785</ele><time>2026-05-15T23:24:47.000Z</time></trkpt>
        <trkpt lat="29.563269" lon="103.349001"><ele>1787</ele><time>2026-05-15T23:24:57.000Z</time></trkpt>
        <trkpt lat="29.563296" lon="103.348899"><ele>1787</ele><time>2026-05-15T23:25:07.000Z</time></trkpt>
        <trkpt lat="29.563305" lon="103.348783"><ele>1788</ele><time>2026-05-15T23:25:17.000Z</time></trkpt>
        <trkpt lat="29.563321" lon="103.348673"><ele>1789</ele><time>2026-05-15T23:25:27.000Z</time></trkpt>
        <trkpt lat="29.563337" lon="103.348563"><ele>1790</ele><time>2026-05-15T23:25:35.000Z</time></trkpt>
        <trkpt lat="29.563363" lon="103.34846"><ele>1791</ele><time>2026-05-15T23:25:43.000Z</time></trkpt>
        <trkpt lat="29.563399" lon="103.348354"><ele>1792</ele><time>2026-05-15T23:25:53.000Z</time></trkpt>
        <trkpt lat="29.563455" lon="103.348268"><ele>1792</ele><time>2026-05-15T23:26:09.000Z</time></trkpt>
        <trkpt lat="29.563493" lon="103.348153"><ele>1793</ele><time>2026-05-15T23:26:19.000Z</time></trkpt>
        <trkpt lat="29.563558" lon="103.348053"><ele>1794</ele><time>2026-05-15T23:26:29.000Z</time></trkpt>
        <trkpt lat="29.563614" lon="103.34795"><ele>1795</ele><time>2026-05-15T23:26:39.000Z</time></trkpt>
        <trkpt lat="29.563637" lon="103.347842"><ele>1795</ele><time>2026-05-15T23:26:51.000Z</time></trkpt>
        <trkpt lat="29.563629" lon="103.347723"><ele>1794</ele><time>2026-05-15T23:27:03.000Z</time></trkpt>
        <trkpt lat="29.563641" lon="103.347604"><ele>1794</ele><time>2026-05-15T23:27:17.000Z</time></trkpt>
        <trkpt lat="29.563624" lon="103.347475"><ele>1792</ele><time>2026-05-15T23:27:27.000Z</time></trkpt>
        <trkpt lat="29.563583" lon="103.347354"><ele>1790</ele><time>2026-05-15T23:27:35.000Z</time></trkpt>
        <trkpt lat="29.56354" lon="103.347251"><ele>1788</ele><time>2026-05-15T23:27:45.000Z</time></trkpt>
        <trkpt lat="29.56347" lon="103.347162"><ele>1787</ele><time>2026-05-15T23:27:53.000Z</time></trkpt>
        <trkpt lat="29.56338" lon="103.3471"><ele>1786</ele><time>2026-05-15T23:28:01.000Z</time></trkpt>
        <trkpt lat="29.56329" lon="103.347049"><ele>1787</ele><time>2026-05-15T23:28:09.000Z</time></trkpt>
        <trkpt lat="29.563211" lon="103.346978"><ele>1786</ele><time>2026-05-15T23:28:19.000Z</time></trkpt>
        <trkpt lat="29.563134" lon="103.346906"><ele>1785</ele><time>2026-05-15T23:28:31.000Z</time></trkpt>
        <trkpt lat="29.563064" lon="103.346835"><ele>1784</ele><time>2026-05-15T23:28:45.000Z</time></trkpt>
        <trkpt lat="29.562999" lon="103.346764"><ele>1782</ele><time>2026-05-15T23:28:57.000Z</time></trkpt>
        <trkpt lat="29.56294" lon="103.346662"><ele>1780</ele><time>2026-05-15T23:29:07.000Z</time></trkpt>
        <trkpt lat="29.562885" lon="103.34655"><ele>1779</ele><time>2026-05-15T23:29:15.000Z</time></trkpt>
        <trkpt lat="29.562801" lon="103.346476"><ele>1779</ele><time>2026-05-15T23:29:25.000Z</time></trkpt>
        <trkpt lat="29.562712" lon="103.346432"><ele>1779</ele><time>2026-05-15T23:29:33.000Z</time></trkpt>
        <trkpt lat="29.562629" lon="103.346371"><ele>1779</ele><time>2026-05-15T23:29:41.000Z</time></trkpt>
        <trkpt lat="29.562548" lon="103.346307"><ele>1779</ele><time>2026-05-15T23:29:53.000Z</time></trkpt>
        <trkpt lat="29.562479" lon="103.346223"><ele>1778</ele><time>2026-05-15T23:30:01.000Z</time></trkpt>
        <trkpt lat="29.562408" lon="103.346134"><ele>1778</ele><time>2026-05-15T23:30:09.000Z</time></trkpt>
        <trkpt lat="29.562341" lon="103.346044"><ele>1778</ele><time>2026-05-15T23:30:19.000Z</time></trkpt>
        <trkpt lat="29.562298" lon="103.345936"><ele>1777</ele><time>2026-05-15T23:30:29.000Z</time></trkpt>
        <trkpt lat="29.562261" lon="103.345828"><ele>1776</ele><time>2026-05-15T23:30:39.000Z</time></trkpt>
        <trkpt lat="29.562207" lon="103.345734"><ele>1777</ele><time>2026-05-15T23:30:47.000Z</time></trkpt>
        <trkpt lat="29.562155" lon="103.345649"><ele>1777</ele><time>2026-05-15T23:30:59.000Z</time></trkpt>
        <trkpt lat="29.562081" lon="103.345586"><ele>1778</ele><time>2026-05-15T23:31:07.000Z</time></trkpt>
        <trkpt lat="29.561988" lon="103.345553"><ele>1778</ele><time>2026-05-15T23:31:15.000Z</time></trkpt>
        <trkpt lat="29.561894" lon="103.345548"><ele>1779</ele><time>2026-05-15T23:31:23.000Z</time></trkpt>
        <trkpt lat="29.561799" lon="103.345559"><ele>1779</ele><time>2026-05-15T23:31:31.000Z</time></trkpt>
        <trkpt lat="29.561703" lon="103.345558"><ele>1780</ele><time>2026-05-15T23:31:41.000Z</time></trkpt>
        <trkpt lat="29.561613" lon="103.345524"><ele>1781</ele><time>2026-05-15T23:31:51.000Z</time></trkpt>
        <trkpt lat="29.561534" lon="103.345462"><ele>1781</ele><time>2026-05-15T23:32:05.000Z</time></trkpt>
        <trkpt lat="29.561471" lon="103.345379"><ele>1781</ele><time>2026-05-15T23:32:15.000Z</time></trkpt>
        <trkpt lat="29.561399" lon="103.345306"><ele>1780</ele><time>2026-05-15T23:32:49.000Z</time></trkpt>
        <trkpt lat="29.561334" lon="103.345226"><ele>1780</ele><time>2026-05-15T23:33:13.000Z</time></trkpt>
        <trkpt lat="29.561281" lon="103.34514"><ele>1782</ele><time>2026-05-15T23:33:47.000Z</time></trkpt>
        <trkpt lat="29.561219" lon="103.345059"><ele>1783</ele><time>2026-05-15T23:34:27.000Z</time></trkpt>
        <trkpt lat="29.561138" lon="103.345008"><ele>1787</ele><time>2026-05-15T23:35:49.000Z</time></trkpt>
        <trkpt lat="29.561047" lon="103.34498"><ele>1790</ele><time>2026-05-15T23:36:31.000Z</time></trkpt>
        <trkpt lat="29.560959" lon="103.345004"><ele>1796</ele><time>2026-05-15T23:37:09.000Z</time></trkpt>
        <trkpt lat="29.560888" lon="103.344948"><ele>1802</ele><time>2026-05-15T23:39:05.000Z</time></trkpt>
        <trkpt lat="29.5608" lon="103.34492"><ele>1807</ele><time>2026-05-15T23:39:45.000Z</time></trkpt>
        <trkpt lat="29.56078" lon="103.344812"><ele>1815</ele><time>2026-05-15T23:40:45.000Z</time></trkpt>
        <trkpt lat="29.56076" lon="103.34471"><ele>1825</ele><time>2026-05-15T23:41:19.000Z</time></trkpt>
        <trkpt lat="29.560678" lon="103.344662"><ele>1832</ele><time>2026-05-15T23:44:07.000Z</time></trkpt>
        <trkpt lat="29.560593" lon="103.344607"><ele>1837</ele><time>2026-05-15T23:44:35.000Z</time></trkpt>
        <trkpt lat="29.560511" lon="103.344562"><ele>1841</ele><time>2026-05-15T23:45:09.000Z</time></trkpt>
        <trkpt lat="29.560428" lon="103.344516"><ele>1845</ele><time>2026-05-15T23:45:41.000Z</time></trkpt>
        <trkpt lat="29.560351" lon="103.344456"><ele>1850</ele><time>2026-05-15T23:46:19.000Z</time></trkpt>
        <trkpt lat="29.560278" lon="103.344394"><ele>1857</ele><time>2026-05-15T23:46:57.000Z</time></trkpt>
        <trkpt lat="29.560215" lon="103.344318"><ele>1863</ele><time>2026-05-15T23:47:35.000Z</time></trkpt>
        <trkpt lat="29.560183" lon="103.344213"><ele>1868</ele><time>2026-05-15T23:49:01.000Z</time></trkpt>
        <trkpt lat="29.560157" lon="103.344112"><ele>1874</ele><time>2026-05-15T23:50:07.000Z</time></trkpt>
        <trkpt lat="29.56016" lon="103.344008"><ele>1885</ele><time>2026-05-15T23:51:03.000Z</time></trkpt>
        <trkpt lat="29.56017" lon="103.343905"><ele>1896</ele><time>2026-05-15T23:52:01.000Z</time></trkpt>
        <trkpt lat="29.56011" lon="103.343834"><ele>1901</ele><time>2026-05-15T23:52:29.000Z</time></trkpt>
        <trkpt lat="29.560029" lon="103.343775"><ele>1905</ele><time>2026-05-15T23:52:57.000Z</time></trkpt>
        <trkpt lat="29.559954" lon="103.343701"><ele>1908</ele><time>2026-05-15T23:53:31.000Z</time></trkpt>
        <trkpt lat="29.559884" lon="103.343623"><ele>1914</ele><time>2026-05-15T23:54:13.000Z</time></trkpt>
        <trkpt lat="29.55982" lon="103.343539"><ele>1922</ele><time>2026-05-15T23:54:41.000Z</time></trkpt>
        <trkpt lat="29.559744" lon="103.343479"><ele>1929</ele><time>2026-05-15T23:55:11.000Z</time></trkpt>
        <trkpt lat="29.559675" lon="103.343523"><ele>1935</ele><time>2026-05-15T23:55:31.000Z</time></trkpt>
        <trkpt lat="29.55959" lon="103.343526"><ele>1941</ele><time>2026-05-15T23:56:13.000Z</time></trkpt>
        <trkpt lat="29.559492" lon="103.343515"><ele>1946</ele><time>2026-05-15T23:57:15.000Z</time></trkpt>
        <trkpt lat="29.559417" lon="103.343573"><ele>1950</ele><time>2026-05-15T23:57:43.000Z</time></trkpt>
        <trkpt lat="29.559327" lon="103.343607"><ele>1954</ele><time>2026-05-15T23:59:59.000Z</time></trkpt>
        <trkpt lat="29.559265" lon="103.343697"><ele>1961</ele><time>2026-05-16T00:00:25.000Z</time></trkpt>
        <trkpt lat="29.559201" lon="103.343775"><ele>1965</ele><time>2026-05-16T00:00:43.000Z</time></trkpt>
        <trkpt lat="29.559153" lon="103.343678"><ele>1969</ele><time>2026-05-16T00:01:53.000Z</time></trkpt>
        <trkpt lat="29.559073" lon="103.343623"><ele>1976</ele><time>2026-05-16T00:02:27.000Z</time></trkpt>
        <trkpt lat="29.558995" lon="103.343663"><ele>1984</ele><time>2026-05-16T00:02:57.000Z</time></trkpt>
        <trkpt lat="29.558909" lon="103.343701"><ele>1992</ele><time>2026-05-16T00:03:33.000Z</time></trkpt>
        <trkpt lat="29.558878" lon="103.343793"><ele>1998</ele><time>2026-05-16T00:03:43.000Z</time></trkpt>
        <trkpt lat="29.55888" lon="103.343905"><ele>2002</ele><time>2026-05-16T00:03:51.000Z</time></trkpt>
        <trkpt lat="29.5589" lon="103.34403"><ele>2004</ele><time>2026-05-16T00:04:01.000Z</time></trkpt>
        <trkpt lat="29.558896" lon="103.344113"><ele>2005</ele><time>2026-05-16T00:04:43.000Z</time></trkpt>
        <trkpt lat="29.558876" lon="103.344206"><ele>2007</ele><time>2026-05-16T00:05:11.000Z</time></trkpt>
        <trkpt lat="29.558855" lon="103.344307"><ele>2011</ele><time>2026-05-16T00:05:31.000Z</time></trkpt>
        <trkpt lat="29.558813" lon="103.344265"><ele>2015</ele><time>2026-05-16T00:06:01.000Z</time></trkpt>
        <trkpt lat="29.558735" lon="103.344215"><ele>2018</ele><time>2026-05-16T00:06:31.000Z</time></trkpt>
        <trkpt lat="29.558641" lon="103.344166"><ele>2021</ele><time>2026-05-16T00:06:53.000Z</time></trkpt>
        <trkpt lat="29.558546" lon="103.34412"><ele>2024</ele><time>2026-05-16T00:07:25.000Z</time></trkpt>
        <trkpt lat="29.558451" lon="103.344081"><ele>2028</ele><time>2026-05-16T00:07:51.000Z</time></trkpt>
        <trkpt lat="29.558357" lon="103.344065"><ele>2031</ele><time>2026-05-16T00:08:09.000Z</time></trkpt>
        <trkpt lat="29.558255" lon="103.344069"><ele>2033</ele><time>2026-05-16T00:08:39.000Z</time></trkpt>
        <trkpt lat="29.558164" lon="103.344028"><ele>2035</ele><time>2026-05-16T00:08:47.000Z</time></trkpt>
        <trkpt lat="29.55807" lon="103.343994"><ele>2037</ele><time>2026-05-16T00:09:03.000Z</time></trkpt>
        <trkpt lat="29.557756" lon="103.344024"><ele>2038</ele><time>2026-05-16T00:09:45.000Z</time></trkpt>
        <trkpt lat="29.557632" lon="103.343977"><ele>2038</ele><time>2026-05-16T00:09:49.000Z</time></trkpt>
        <trkpt lat="29.557554" lon="103.343915"><ele>2039</ele><time>2026-05-16T00:09:59.000Z</time></trkpt>
        <trkpt lat="29.557508" lon="103.343824"><ele>2038</ele><time>2026-05-16T00:10:13.000Z</time></trkpt>
        <trkpt lat="29.557477" lon="103.343722"><ele>2036</ele><time>2026-05-16T00:10:29.000Z</time></trkpt>
        <trkpt lat="29.557408" lon="103.343665"><ele>2035</ele><time>2026-05-16T00:10:37.000Z</time></trkpt>
        <trkpt lat="29.557324" lon="103.34363"><ele>2035</ele><time>2026-05-16T00:11:01.000Z</time></trkpt>
        <trkpt lat="29.557235" lon="103.343608"><ele>2036</ele><time>2026-05-16T00:11:39.000Z</time></trkpt>
        <trkpt lat="29.557144" lon="103.343606"><ele>2038</ele><time>2026-05-16T00:12:17.000Z</time></trkpt>
        <trkpt lat="29.557058" lon="103.343642"><ele>2041</ele><time>2026-05-16T00:12:51.000Z</time></trkpt>
        <trkpt lat="29.556974" lon="103.343688"><ele>2047</ele><time>2026-05-16T00:13:15.000Z</time></trkpt>
        <trkpt lat="29.556889" lon="103.34373"><ele>2053</ele><time>2026-05-16T00:13:35.000Z</time></trkpt>
        <trkpt lat="29.556797" lon="103.343727"><ele>2057</ele><time>2026-05-16T00:14:07.000Z</time></trkpt>
        <trkpt lat="29.556705" lon="103.343734"><ele>2061</ele><time>2026-05-16T00:14:33.000Z</time></trkpt>
        <trkpt lat="29.556624" lon="103.343777"><ele>2065</ele><time>2026-05-16T00:15:05.000Z</time></trkpt>
        <trkpt lat="29.556559" lon="103.343858"><ele>2069</ele><time>2026-05-16T00:15:49.000Z</time></trkpt>
        <trkpt lat="29.556527" lon="103.34396"><ele>2075</ele><time>2026-05-16T00:16:25.000Z</time></trkpt>
        <trkpt lat="29.556525" lon="103.344078"><ele>2080</ele><time>2026-05-16T00:17:33.000Z</time></trkpt>
        <trkpt lat="29.556458" lon="103.344152"><ele>2084</ele><time>2026-05-16T00:18:11.000Z</time></trkpt>
        <trkpt lat="29.556379" lon="103.344209"><ele>2089</ele><time>2026-05-16T00:18:41.000Z</time></trkpt>
        <trkpt lat="29.556297" lon="103.344257"><ele>2094</ele><time>2026-05-16T00:19:07.000Z</time></trkpt>
        <trkpt lat="29.556238" lon="103.344336"><ele>2099</ele><time>2026-05-16T00:19:33.000Z</time></trkpt>
        <trkpt lat="29.556176" lon="103.344415"><ele>2103</ele><time>2026-05-16T00:19:55.000Z</time></trkpt>
        <trkpt lat="29.556127" lon="103.344503"><ele>2107</ele><time>2026-05-16T00:22:39.000Z</time></trkpt>
        <trkpt lat="29.556062" lon="103.344577"><ele>2111</ele><time>2026-05-16T00:23:01.000Z</time></trkpt>
        <trkpt lat="29.556007" lon="103.344658"><ele>2114</ele><time>2026-05-16T00:23:23.000Z</time></trkpt>
        <trkpt lat="29.555942" lon="103.344746"><ele>2116</ele><time>2026-05-16T00:23:57.000Z</time></trkpt>
        <trkpt lat="29.555882" lon="103.344832"><ele>2120</ele><time>2026-05-16T00:24:33.000Z</time></trkpt>
        <trkpt lat="29.555829" lon="103.344923"><ele>2124</ele><time>2026-05-16T00:24:49.000Z</time></trkpt>
        <trkpt lat="29.555749" lon="103.344952"><ele>2127</ele><time>2026-05-16T00:25:23.000Z</time></trkpt>
        <trkpt lat="29.555659" lon="103.344931"><ele>2131</ele><time>2026-05-16T00:26:15.000Z</time></trkpt>
        <trkpt lat="29.555572" lon="103.344955"><ele>2137</ele><time>2026-05-16T00:27:37.000Z</time></trkpt>
        <trkpt lat="29.55551" lon="103.345035"><ele>2142</ele><time>2026-05-16T00:28:17.000Z</time></trkpt>
        <trkpt lat="29.555441" lon="103.345102"><ele>2147</ele><time>2026-05-16T00:28:55.000Z</time></trkpt>
        <trkpt lat="29.555371" lon="103.345067"><ele>2150</ele><time>2026-05-16T00:29:35.000Z</time></trkpt>
        <trkpt lat="29.555285" lon="103.345031"><ele>2153</ele><time>2026-05-16T00:29:49.000Z</time></trkpt>
        <trkpt lat="29.5552" lon="103.345067"><ele>2156</ele><time>2026-05-16T00:30:17.000Z</time></trkpt>
        <trkpt lat="29.555105" lon="103.345114"><ele>2161</ele><time>2026-05-16T00:30:37.000Z</time></trkpt>
        <trkpt lat="29.555009" lon="103.345136"><ele>2164</ele><time>2026-05-16T00:30:51.000Z</time></trkpt>
        <trkpt lat="29.554915" lon="103.345158"><ele>2167</ele><time>2026-05-16T00:31:19.000Z</time></trkpt>
        <trkpt lat="29.554834" lon="103.345213"><ele>2170</ele><time>2026-05-16T00:31:43.000Z</time></trkpt>
        <trkpt lat="29.554759" lon="103.345277"><ele>2173</ele><time>2026-05-16T00:32:39.000Z</time></trkpt>
        <trkpt lat="29.554675" lon="103.345329"><ele>2177</ele><time>2026-05-16T00:33:09.000Z</time></trkpt>
        <trkpt lat="29.554585" lon="103.345361"><ele>2180</ele><time>2026-05-16T00:33:39.000Z</time></trkpt>
        <trkpt lat="29.554495" lon="103.345375"><ele>2183</ele><time>2026-05-16T00:34:53.000Z</time></trkpt>
        <trkpt lat="29.554403" lon="103.345387"><ele>2187</ele><time>2026-05-16T00:35:23.000Z</time></trkpt>
        <trkpt lat="29.554314" lon="103.345417"><ele>2192</ele><time>2026-05-16T00:35:49.000Z</time></trkpt>
        <trkpt lat="29.554225" lon="103.345442"><ele>2196</ele><time>2026-05-16T00:36:33.000Z</time></trkpt>
        <trkpt lat="29.554137" lon="103.34547"><ele>2203</ele><time>2026-05-16T00:36:59.000Z</time></trkpt>
        <trkpt lat="29.554047" lon="103.345453"><ele>2209</ele><time>2026-05-16T00:37:29.000Z</time></trkpt>
        <trkpt lat="29.553959" lon="103.345398"><ele>2214</ele><time>2026-05-16T00:37:49.000Z</time></trkpt>
        <trkpt lat="29.55387" lon="103.345345"><ele>2219</ele><time>2026-05-16T00:38:09.000Z</time></trkpt>
        <trkpt lat="29.553775" lon="103.345307"><ele>2222</ele><time>2026-05-16T00:38:29.000Z</time></trkpt>
        <trkpt lat="29.553681" lon="103.34528"><ele>2225</ele><time>2026-05-16T00:38:47.000Z</time></trkpt>
        <trkpt lat="29.553584" lon="103.345292"><ele>2227</ele><time>2026-05-16T00:38:59.000Z</time></trkpt>
        <trkpt lat="29.553492" lon="103.345295"><ele>2228</ele><time>2026-05-16T00:39:19.000Z</time></trkpt>
        <trkpt lat="29.553404" lon="103.345316"><ele>2229</ele><time>2026-05-16T00:39:41.000Z</time></trkpt>
        <trkpt lat="29.553312" lon="103.345342"><ele>2232</ele><time>2026-05-16T00:39:57.000Z</time></trkpt>
        <trkpt lat="29.553211" lon="103.345343"><ele>2235</ele><time>2026-05-16T00:40:09.000Z</time></trkpt>
        <trkpt lat="29.553113" lon="103.345332"><ele>2237</ele><time>2026-05-16T00:40:19.000Z</time></trkpt>
        <trkpt lat="29.553015" lon="103.345329"><ele>2239</ele><time>2026-05-16T00:40:29.000Z</time></trkpt>
        <trkpt lat="29.552923" lon="103.345342"><ele>2240</ele><time>2026-05-16T00:40:39.000Z</time></trkpt>
        <trkpt lat="29.552823" lon="103.345353"><ele>2241</ele><time>2026-05-16T00:40:49.000Z</time></trkpt>
        <trkpt lat="29.552725" lon="103.345354"><ele>2242</ele><time>2026-05-16T00:41:01.000Z</time></trkpt>
        <trkpt lat="29.552627" lon="103.345366"><ele>2243</ele><time>2026-05-16T00:41:13.000Z</time></trkpt>
        <trkpt lat="29.552534" lon="103.345377"><ele>2244</ele><time>2026-05-16T00:41:25.000Z</time></trkpt>
        <trkpt lat="29.552479" lon="103.345299"><ele>2245</ele><time>2026-05-16T00:41:55.000Z</time></trkpt>
        <trkpt lat="29.552417" lon="103.345209"><ele>2246</ele><time>2026-05-16T00:42:11.000Z</time></trkpt>
        <trkpt lat="29.552334" lon="103.34515"><ele>2247</ele><time>2026-05-16T00:42:21.000Z</time></trkpt>
        <trkpt lat="29.552235" lon="103.345117"><ele>2248</ele><time>2026-05-16T00:42:29.000Z</time></trkpt>
        <trkpt lat="29.552133" lon="103.345081"><ele>2247</ele><time>2026-05-16T00:42:41.000Z</time></trkpt>
        <trkpt lat="29.552051" lon="103.345016"><ele>2246</ele><time>2026-05-16T00:42:55.000Z</time></trkpt>
        <trkpt lat="29.552008" lon="103.344923"><ele>2244</ele><time>2026-05-16T00:43:07.000Z</time></trkpt>
        <trkpt lat="29.551954" lon="103.344824"><ele>2242</ele><time>2026-05-16T00:43:21.000Z</time></trkpt>
        <trkpt lat="29.551891" lon="103.344727"><ele>2239</ele><time>2026-05-16T00:43:31.000Z</time></trkpt>
        <trkpt lat="29.551843" lon="103.344618"><ele>2237</ele><time>2026-05-16T00:43:41.000Z</time></trkpt>
        <trkpt lat="29.551796" lon="103.344515"><ele>2237</ele><time>2026-05-16T00:43:51.000Z</time></trkpt>
        <trkpt lat="29.551737" lon="103.344427"><ele>2237</ele><time>2026-05-16T00:44:01.000Z</time></trkpt>
        <trkpt lat="29.551676" lon="103.344348"><ele>2238</ele><time>2026-05-16T00:44:11.000Z</time></trkpt>
        <trkpt lat="29.551602" lon="103.344285"><ele>2238</ele><time>2026-05-16T00:44:23.000Z</time></trkpt>
        <trkpt lat="29.551507" lon="103.344239"><ele>2238</ele><time>2026-05-16T00:44:35.000Z</time></trkpt>
        <trkpt lat="29.551409" lon="103.344214"><ele>2238</ele><time>2026-05-16T00:44:45.000Z</time></trkpt>
        <trkpt lat="29.55131" lon="103.344197"><ele>2237</ele><time>2026-05-16T00:44:53.000Z</time></trkpt>
        <trkpt lat="29.551218" lon="103.344212"><ele>2237</ele><time>2026-05-16T00:45:01.000Z</time></trkpt>
        <trkpt lat="29.551116" lon="103.344215"><ele>2237</ele><time>2026-05-16T00:45:09.000Z</time></trkpt>
        <trkpt lat="29.551024" lon="103.344177"><ele>2236</ele><time>2026-05-16T00:45:19.000Z</time></trkpt>
        <trkpt lat="29.550922" lon="103.344154"><ele>2236</ele><time>2026-05-16T00:45:29.000Z</time></trkpt>
        <trkpt lat="29.550815" lon="103.344119"><ele>2236</ele><time>2026-05-16T00:45:39.000Z</time></trkpt>
        <trkpt lat="29.550772" lon="103.34403"><ele>2235</ele><time>2026-05-16T00:45:51.000Z</time></trkpt>
        <trkpt lat="29.550709" lon="103.343957"><ele>2234</ele><time>2026-05-16T00:46:05.000Z</time></trkpt>
        <trkpt lat="29.55063" lon="103.343897"><ele>2232</ele><time>2026-05-16T00:46:17.000Z</time></trkpt>
        <trkpt lat="29.550564" lon="103.34381"><ele>2231</ele><time>2026-05-16T00:46:27.000Z</time></trkpt>
        <trkpt lat="29.550493" lon="103.343719"><ele>2231</ele><time>2026-05-16T00:46:37.000Z</time></trkpt>
        <trkpt lat="29.550416" lon="103.34363"><ele>2231</ele><time>2026-05-16T00:46:47.000Z</time></trkpt>
        <trkpt lat="29.550359" lon="103.343539"><ele>2232</ele><time>2026-05-16T00:46:57.000Z</time></trkpt>
        <trkpt lat="29.550312" lon="103.343433"><ele>2233</ele><time>2026-05-16T00:47:05.000Z</time></trkpt>
        <trkpt lat="29.550259" lon="103.343339"><ele>2234</ele><time>2026-05-16T00:47:13.000Z</time></trkpt>
        <trkpt lat="29.55019" lon="103.343265"><ele>2235</ele><time>2026-05-16T00:47:21.000Z</time></trkpt>
        <trkpt lat="29.550111" lon="103.343205"><ele>2235</ele><time>2026-05-16T00:47:29.000Z</time></trkpt>
        <trkpt lat="29.550043" lon="103.343133"><ele>2235</ele><time>2026-05-16T00:47:39.000Z</time></trkpt>
        <trkpt lat="29.549981" lon="103.343041"><ele>2235</ele><time>2026-05-16T00:47:49.000Z</time></trkpt>
        <trkpt lat="29.549934" lon="103.342941"><ele>2237</ele><time>2026-05-16T00:47:59.000Z</time></trkpt>
        <trkpt lat="29.549901" lon="103.342831"><ele>2238</ele><time>2026-05-16T00:48:09.000Z</time></trkpt>
        <trkpt lat="29.549865" lon="103.34272"><ele>2240</ele><time>2026-05-16T00:48:19.000Z</time></trkpt>
        <trkpt lat="29.54982" lon="103.342621"><ele>2241</ele><time>2026-05-16T00:48:27.000Z</time></trkpt>
        <trkpt lat="29.549759" lon="103.342531"><ele>2242</ele><time>2026-05-16T00:48:35.000Z</time></trkpt>
        <trkpt lat="29.549686" lon="103.342449"><ele>2242</ele><time>2026-05-16T00:48:43.000Z</time></trkpt>
        <trkpt lat="29.549613" lon="103.342363"><ele>2242</ele><time>2026-05-16T00:48:53.000Z</time></trkpt>
        <trkpt lat="29.549543" lon="103.34228"><ele>2241</ele><time>2026-05-16T00:49:01.000Z</time></trkpt>
        <trkpt lat="29.549475" lon="103.342192"><ele>2241</ele><time>2026-05-16T00:49:09.000Z</time></trkpt>
        <trkpt lat="29.549432" lon="103.342095"><ele>2241</ele><time>2026-05-16T00:49:25.000Z</time></trkpt>
        <trkpt lat="29.549396" lon="103.341985"><ele>2241</ele><time>2026-05-16T00:49:35.000Z</time></trkpt>
        <trkpt lat="29.549361" lon="103.341866"><ele>2240</ele><time>2026-05-16T00:49:45.000Z</time></trkpt>
        <trkpt lat="29.549312" lon="103.341759"><ele>2240</ele><time>2026-05-16T00:50:01.000Z</time></trkpt>
        <trkpt lat="29.549273" lon="103.341648"><ele>2240</ele><time>2026-05-16T00:50:11.000Z</time></trkpt>
        <trkpt lat="29.549264" lon="103.341538"><ele>2240</ele><time>2026-05-16T00:50:25.000Z</time></trkpt>
        <trkpt lat="29.549247" lon="103.341436"><ele>2241</ele><time>2026-05-16T00:50:47.000Z</time></trkpt>
        <trkpt lat="29.549182" lon="103.341368"><ele>2241</ele><time>2026-05-16T00:51:07.000Z</time></trkpt>
        <trkpt lat="29.549124" lon="103.341289"><ele>2241</ele><time>2026-05-16T00:51:31.000Z</time></trkpt>
        <trkpt lat="29.54907" lon="103.341202"><ele>2243</ele><time>2026-05-16T00:51:51.000Z</time></trkpt>
        <trkpt lat="29.548992" lon="103.341146"><ele>2246</ele><time>2026-05-16T00:52:17.000Z</time></trkpt>
        <trkpt lat="29.548897" lon="103.34112"><ele>2249</ele><time>2026-05-16T00:52:39.000Z</time></trkpt>
        <trkpt lat="29.5488" lon="103.341122"><ele>2252</ele><time>2026-05-16T00:53:15.000Z</time></trkpt>
        <trkpt lat="29.548704" lon="103.341133"><ele>2256</ele><time>2026-05-16T00:53:37.000Z</time></trkpt>
        <trkpt lat="29.548612" lon="103.341154"><ele>2260</ele><time>2026-05-16T00:54:01.000Z</time></trkpt>
        <trkpt lat="29.548524" lon="103.341185"><ele>2263</ele><time>2026-05-16T00:54:31.000Z</time></trkpt>
        <trkpt lat="29.548432" lon="103.341223"><ele>2266</ele><time>2026-05-16T00:55:01.000Z</time></trkpt>
        <trkpt lat="29.548342" lon="103.341236"><ele>2269</ele><time>2026-05-16T00:55:31.000Z</time></trkpt>
        <trkpt lat="29.54825" lon="103.341232"><ele>2272</ele><time>2026-05-16T00:55:59.000Z</time></trkpt>
        <trkpt lat="29.548151" lon="103.341223"><ele>2275</ele><time>2026-05-16T00:56:23.000Z</time></trkpt>
        <trkpt lat="29.548052" lon="103.341217"><ele>2279</ele><time>2026-05-16T00:56:39.000Z</time></trkpt>
        <trkpt lat="29.54795" lon="103.341225"><ele>2281</ele><time>2026-05-16T00:56:55.000Z</time></trkpt>
        <trkpt lat="29.547863" lon="103.341193"><ele>2284</ele><time>2026-05-16T00:57:11.000Z</time></trkpt>
        <trkpt lat="29.547777" lon="103.341152"><ele>2286</ele><time>2026-05-16T00:57:25.000Z</time></trkpt>
        <trkpt lat="29.547691" lon="103.341113"><ele>2289</ele><time>2026-05-16T00:57:37.000Z</time></trkpt>
        <trkpt lat="29.547604" lon="103.341079"><ele>2291</ele><time>2026-05-16T00:57:55.000Z</time></trkpt>
        <trkpt lat="29.547522" lon="103.341031"><ele>2293</ele><time>2026-05-16T00:58:17.000Z</time></trkpt>
        <trkpt lat="29.547438" lon="103.340989"><ele>2296</ele><time>2026-05-16T00:58:51.000Z</time></trkpt>
        <trkpt lat="29.547406" lon="103.340891"><ele>2298</ele><time>2026-05-16T00:59:19.000Z</time></trkpt>
        <trkpt lat="29.547392" lon="103.340777"><ele>2301</ele><time>2026-05-16T00:59:35.000Z</time></trkpt>
        <trkpt lat="29.547372" lon="103.340664"><ele>2303</ele><time>2026-05-16T00:59:47.000Z</time></trkpt>
        <trkpt lat="29.547362" lon="103.340556"><ele>2306</ele><time>2026-05-16T01:00:11.000Z</time></trkpt>
        <trkpt lat="29.547276" lon="103.340483"><ele>2308</ele><time>2026-05-16T01:00:49.000Z</time></trkpt>
        <trkpt lat="29.547249" lon="103.340387"><ele>2310</ele><time>2026-05-16T01:01:25.000Z</time></trkpt>
        <trkpt lat="29.54724" lon="103.340284"><ele>2311</ele><time>2026-05-16T01:01:57.000Z</time></trkpt>
        <trkpt lat="29.547224" lon="103.340179"><ele>2314</ele><time>2026-05-16T01:02:49.000Z</time></trkpt>
        <trkpt lat="29.547199" lon="103.340077"><ele>2318</ele><time>2026-05-16T01:03:21.000Z</time></trkpt>
        <trkpt lat="29.547153" lon="103.339988"><ele>2322</ele><time>2026-05-16T01:03:39.000Z</time></trkpt>
        <trkpt lat="29.54711" lon="103.339889"><ele>2325</ele><time>2026-05-16T01:04:19.000Z</time></trkpt>
        <trkpt lat="29.547089" lon="103.339787"><ele>2331</ele><time>2026-05-16T01:04:47.000Z</time></trkpt>
        <trkpt lat="29.547049" lon="103.339696"><ele>2337</ele><time>2026-05-16T01:05:13.000Z</time></trkpt>
        <trkpt lat="29.546975" lon="103.339629"><ele>2342</ele><time>2026-05-16T01:05:41.000Z</time></trkpt>
        <trkpt lat="29.54691" lon="103.339547"><ele>2346</ele><time>2026-05-16T01:06:15.000Z</time></trkpt>
        <trkpt lat="29.546892" lon="103.339445"><ele>2350</ele><time>2026-05-16T01:07:05.000Z</time></trkpt>
        <trkpt lat="29.546844" lon="103.339358"><ele>2356</ele><time>2026-05-16T01:07:31.000Z</time></trkpt>
        <trkpt lat="29.54678" lon="103.339283"><ele>2362</ele><time>2026-05-16T01:09:33.000Z</time></trkpt>
        <trkpt lat="29.546718" lon="103.339205"><ele>2368</ele><time>2026-05-16T01:10:01.000Z</time></trkpt>
        <trkpt lat="29.546665" lon="103.33912"><ele>2371</ele><time>2026-05-16T01:10:37.000Z</time></trkpt>
        <trkpt lat="29.546617" lon="103.339032"><ele>2374</ele><time>2026-05-16T01:10:55.000Z</time></trkpt>
        <trkpt lat="29.546562" lon="103.338944"><ele>2377</ele><time>2026-05-16T01:11:15.000Z</time></trkpt>
        <trkpt lat="29.54651" lon="103.338857"><ele>2381</ele><time>2026-05-16T01:11:45.000Z</time></trkpt>
        <trkpt lat="29.546444" lon="103.338783"><ele>2386</ele><time>2026-05-16T01:12:19.000Z</time></trkpt>
        <trkpt lat="29.546371" lon="103.338715"><ele>2391</ele><time>2026-05-16T01:12:51.000Z</time></trkpt>
        <trkpt lat="29.546319" lon="103.338626"><ele>2397</ele><time>2026-05-16T01:13:25.000Z</time></trkpt>
        <trkpt lat="29.546274" lon="103.338529"><ele>2401</ele><time>2026-05-16T01:13:49.000Z</time></trkpt>
        <trkpt lat="29.546237" lon="103.338429"><ele>2405</ele><time>2026-05-16T01:14:07.000Z</time></trkpt>
        <trkpt lat="29.546203" lon="103.338325"><ele>2409</ele><time>2026-05-16T01:14:27.000Z</time></trkpt>
        <trkpt lat="29.546197" lon="103.338218"><ele>2411</ele><time>2026-05-16T01:14:51.000Z</time></trkpt>
        <trkpt lat="29.546218" lon="103.338113"><ele>2413</ele><time>2026-05-16T01:15:25.000Z</time></trkpt>
        <trkpt lat="29.546246" lon="103.338002"><ele>2417</ele><time>2026-05-16T01:15:45.000Z</time></trkpt>
        <trkpt lat="29.546303" lon="103.337913"><ele>2421</ele><time>2026-05-16T01:15:55.000Z</time></trkpt>
        <trkpt lat="29.546382" lon="103.337827"><ele>2424</ele><time>2026-05-16T01:16:05.000Z</time></trkpt>
        <trkpt lat="29.546431" lon="103.33773"><ele>2425</ele><time>2026-05-16T01:16:17.000Z</time></trkpt>
        <trkpt lat="29.546458" lon="103.337611"><ele>2426</ele><time>2026-05-16T01:16:31.000Z</time></trkpt>
        <trkpt lat="29.54651" lon="103.337506"><ele>2427</ele><time>2026-05-16T01:16:41.000Z</time></trkpt>
        <trkpt lat="29.546559" lon="103.337391"><ele>2428</ele><time>2026-05-16T01:16:51.000Z</time></trkpt>
        <trkpt lat="29.546601" lon="103.337287"><ele>2429</ele><time>2026-05-16T01:17:01.000Z</time></trkpt>
        <trkpt lat="29.546627" lon="103.337165"><ele>2429</ele><time>2026-05-16T01:17:13.000Z</time></trkpt>
        <trkpt lat="29.546631" lon="103.337054"><ele>2429</ele><time>2026-05-16T01:17:25.000Z</time></trkpt>
        <trkpt lat="29.546573" lon="103.336972"><ele>2429</ele><time>2026-05-16T01:17:39.000Z</time></trkpt>
        <trkpt lat="29.546518" lon="103.336875"><ele>2429</ele><time>2026-05-16T01:17:51.000Z</time></trkpt>
        <trkpt lat="29.54648" lon="103.336775"><ele>2429</ele><time>2026-05-16T01:18:03.000Z</time></trkpt>
        <trkpt lat="29.546476" lon="103.336672"><ele>2429</ele><time>2026-05-16T01:18:15.000Z</time></trkpt>
        <trkpt lat="29.546498" lon="103.336561"><ele>2428</ele><time>2026-05-16T01:18:27.000Z</time></trkpt>
        <trkpt lat="29.546535" lon="103.336459"><ele>2428</ele><time>2026-05-16T01:18:43.000Z</time></trkpt>
        <trkpt lat="29.546557" lon="103.336348"><ele>2427</ele><time>2026-05-16T01:18:59.000Z</time></trkpt>
        <trkpt lat="29.546567" lon="103.336231"><ele>2426</ele><time>2026-05-16T01:19:09.000Z</time></trkpt>
        <trkpt lat="29.546589" lon="103.336115"><ele>2423</ele><time>2026-05-16T01:19:23.000Z</time></trkpt>
        <trkpt lat="29.546611" lon="103.336005"><ele>2420</ele><time>2026-05-16T01:19:33.000Z</time></trkpt>
        <trkpt lat="29.546631" lon="103.335893"><ele>2416</ele><time>2026-05-16T01:19:45.000Z</time></trkpt>
        <trkpt lat="29.546654" lon="103.33579"><ele>2412</ele><time>2026-05-16T01:19:53.000Z</time></trkpt>
        <trkpt lat="29.54668" lon="103.335682"><ele>2408</ele><time>2026-05-16T01:20:05.000Z</time></trkpt>
        <trkpt lat="29.546721" lon="103.335575"><ele>2406</ele><time>2026-05-16T01:20:13.000Z</time></trkpt>
        <trkpt lat="29.546763" lon="103.335462"><ele>2405</ele><time>2026-05-16T01:20:25.000Z</time></trkpt>
        <trkpt lat="29.546785" lon="103.335349"><ele>2405</ele><time>2026-05-16T01:20:37.000Z</time></trkpt>
        <trkpt lat="29.546806" lon="103.335233"><ele>2405</ele><time>2026-05-16T01:20:49.000Z</time></trkpt>
        <trkpt lat="29.546787" lon="103.335129"><ele>2405</ele><time>2026-05-16T01:21:01.000Z</time></trkpt>
        <trkpt lat="29.546733" lon="103.335035"><ele>2404</ele><time>2026-05-16T01:21:13.000Z</time></trkpt>
        <trkpt lat="29.546652" lon="103.334961"><ele>2403</ele><time>2026-05-16T01:21:23.000Z</time></trkpt>
        <trkpt lat="29.546577" lon="103.33489"><ele>2401</ele><time>2026-05-16T01:21:31.000Z</time></trkpt>
        <trkpt lat="29.546497" lon="103.334819"><ele>2400</ele><time>2026-05-16T01:21:43.000Z</time></trkpt>
        <trkpt lat="29.546411" lon="103.334764"><ele>2400</ele><time>2026-05-16T01:21:59.000Z</time></trkpt>
        <trkpt lat="29.546326" lon="103.334707"><ele>2401</ele><time>2026-05-16T01:22:27.000Z</time></trkpt>
        <trkpt lat="29.546224" lon="103.334701"><ele>2403</ele><time>2026-05-16T01:22:45.000Z</time></trkpt>
        <trkpt lat="29.546127" lon="103.334713"><ele>2406</ele><time>2026-05-16T01:22:55.000Z</time></trkpt>
        <trkpt lat="29.546033" lon="103.334704"><ele>2408</ele><time>2026-05-16T01:23:09.000Z</time></trkpt>
        <trkpt lat="29.545939" lon="103.334687"><ele>2409</ele><time>2026-05-16T01:23:23.000Z</time></trkpt>
        <trkpt lat="29.545865" lon="103.334608"><ele>2410</ele><time>2026-05-16T01:23:41.000Z</time></trkpt>
        <trkpt lat="29.545793" lon="103.334537"><ele>2409</ele><time>2026-05-16T01:23:51.000Z</time></trkpt>
        <trkpt lat="29.545718" lon="103.334461"><ele>2408</ele><time>2026-05-16T01:24:05.000Z</time></trkpt>
        <trkpt lat="29.545623" lon="103.334385"><ele>2406</ele><time>2026-05-16T01:24:17.000Z</time></trkpt>
        <trkpt lat="29.545542" lon="103.334315"><ele>2404</ele><time>2026-05-16T01:24:35.000Z</time></trkpt>
        <trkpt lat="29.545463" lon="103.334254"><ele>2401</ele><time>2026-05-16T01:24:55.000Z</time></trkpt>
        <trkpt lat="29.545384" lon="103.334191"><ele>2399</ele><time>2026-05-16T01:25:09.000Z</time></trkpt>
        <trkpt lat="29.545309" lon="103.334123"><ele>2399</ele><time>2026-05-16T01:25:23.000Z</time></trkpt>
        <trkpt lat="29.545221" lon="103.334067"><ele>2400</ele><time>2026-05-16T01:25:35.000Z</time></trkpt>
        <trkpt lat="29.545125" lon="103.334035"><ele>2401</ele><time>2026-05-16T01:25:45.000Z</time></trkpt>
        <trkpt lat="29.545013" lon="103.334019"><ele>2402</ele><time>2026-05-16T01:25:57.000Z</time></trkpt>
        <trkpt lat="29.544903" lon="103.334022"><ele>2404</ele><time>2026-05-16T01:26:05.000Z</time></trkpt>
        <trkpt lat="29.544807" lon="103.334083"><ele>2404</ele><time>2026-05-16T01:26:15.000Z</time></trkpt>
        <trkpt lat="29.54472" lon="103.334152"><ele>2405</ele><time>2026-05-16T01:26:23.000Z</time></trkpt>
        <trkpt lat="29.544629" lon="103.334185"><ele>2405</ele><time>2026-05-16T01:26:35.000Z</time></trkpt>
        <trkpt lat="29.544542" lon="103.33417"><ele>2404</ele><time>2026-05-16T01:26:43.000Z</time></trkpt>
        <trkpt lat="29.54444" lon="103.334142"><ele>2404</ele><time>2026-05-16T01:26:53.000Z</time></trkpt>
        <trkpt lat="29.544334" lon="103.334101"><ele>2403</ele><time>2026-05-16T01:27:03.000Z</time></trkpt>
        <trkpt lat="29.544223" lon="103.334069"><ele>2403</ele><time>2026-05-16T01:27:15.000Z</time></trkpt>
        <trkpt lat="29.544128" lon="103.33404"><ele>2403</ele><time>2026-05-16T01:27:23.000Z</time></trkpt>
        <trkpt lat="29.544043" lon="103.333999"><ele>2403</ele><time>2026-05-16T01:27:33.000Z</time></trkpt>
        <trkpt lat="29.543974" lon="103.333929"><ele>2403</ele><time>2026-05-16T01:27:45.000Z</time></trkpt>
        <trkpt lat="29.543888" lon="103.333893"><ele>2402</ele><time>2026-05-16T01:27:55.000Z</time></trkpt>
        <trkpt lat="29.543797" lon="103.333911"><ele>2402</ele><time>2026-05-16T01:28:05.000Z</time></trkpt>
        <trkpt lat="29.543699" lon="103.333892"><ele>2402</ele><time>2026-05-16T01:28:13.000Z</time></trkpt>
        <trkpt lat="29.543625" lon="103.333816"><ele>2402</ele><time>2026-05-16T01:28:25.000Z</time></trkpt>
        <trkpt lat="29.543552" lon="103.333737"><ele>2402</ele><time>2026-05-16T01:28:37.000Z</time></trkpt>
        <trkpt lat="29.543469" lon="103.333669"><ele>2402</ele><time>2026-05-16T01:28:51.000Z</time></trkpt>
        <trkpt lat="29.543427" lon="103.333565"><ele>2402</ele><time>2026-05-16T01:29:01.000Z</time></trkpt>
        <trkpt lat="29.543404" lon="103.333457"><ele>2402</ele><time>2026-05-16T01:29:07.000Z</time></trkpt>
        <trkpt lat="29.543391" lon="103.333337"><ele>2401</ele><time>2026-05-16T01:29:17.000Z</time></trkpt>
        <trkpt lat="29.543349" lon="103.33322"><ele>2400</ele><time>2026-05-16T01:29:29.000Z</time></trkpt>
        <trkpt lat="29.543305" lon="103.33312"><ele>2398</ele><time>2026-05-16T01:29:43.000Z</time></trkpt>
        <trkpt lat="29.54325" lon="103.333032"><ele>2397</ele><time>2026-05-16T01:29:57.000Z</time></trkpt>
        <trkpt lat="29.543151" lon="103.332994"><ele>2396</ele><time>2026-05-16T01:30:05.000Z</time></trkpt>
        <trkpt lat="29.543047" lon="103.332979"><ele>2396</ele><time>2026-05-16T01:30:13.000Z</time></trkpt>
        <trkpt lat="29.542958" lon="103.332935"><ele>2397</ele><time>2026-05-16T01:30:23.000Z</time></trkpt>
        <trkpt lat="29.542889" lon="103.332865"><ele>2399</ele><time>2026-05-16T01:30:33.000Z</time></trkpt>
        <trkpt lat="29.542841" lon="103.332773"><ele>2400</ele><time>2026-05-16T01:30:41.000Z</time></trkpt>
        <trkpt lat="29.542787" lon="103.33268"><ele>2401</ele><time>2026-05-16T01:30:51.000Z</time></trkpt>
        <trkpt lat="29.542702" lon="103.332655"><ele>2401</ele><time>2026-05-16T01:30:59.000Z</time></trkpt>
        <trkpt lat="29.54262" lon="103.332606"><ele>2401</ele><time>2026-05-16T01:31:07.000Z</time></trkpt>
        <trkpt lat="29.542591" lon="103.332506"><ele>2400</ele><time>2026-05-16T01:31:17.000Z</time></trkpt>
        <trkpt lat="29.542554" lon="103.332406"><ele>2399</ele><time>2026-05-16T01:31:27.000Z</time></trkpt>
        <trkpt lat="29.542518" lon="103.332291"><ele>2398</ele><time>2026-05-16T01:31:35.000Z</time></trkpt>
        <trkpt lat="29.542473" lon="103.332183"><ele>2397</ele><time>2026-05-16T01:31:43.000Z</time></trkpt>
        <trkpt lat="29.542401" lon="103.332107"><ele>2397</ele><time>2026-05-16T01:31:51.000Z</time></trkpt>
        <trkpt lat="29.542307" lon="103.332037"><ele>2398</ele><time>2026-05-16T01:31:59.000Z</time></trkpt>
        <trkpt lat="29.542273" lon="103.332014"><ele>2399</ele><time>2026-05-16T01:32:05.000Z</time></trkpt>
        <trkpt lat="29.542199" lon="103.33199"><ele>2399</ele><time>2026-05-16T01:32:21.000Z</time></trkpt>
        <trkpt lat="29.54211" lon="103.331979"><ele>2398</ele><time>2026-05-16T01:32:31.000Z</time></trkpt>
        <trkpt lat="29.54203" lon="103.331923"><ele>2398</ele><time>2026-05-16T01:32:41.000Z</time></trkpt>
        <trkpt lat="29.54197" lon="103.331827"><ele>2397</ele><time>2026-05-16T01:32:49.000Z</time></trkpt>
        <trkpt lat="29.541918" lon="103.331715"><ele>2396</ele><time>2026-05-16T01:32:59.000Z</time></trkpt>
        <trkpt lat="29.541834" lon="103.331649"><ele>2394</ele><time>2026-05-16T01:33:07.000Z</time></trkpt>
        <trkpt lat="29.541728" lon="103.331646"><ele>2393</ele><time>2026-05-16T01:33:15.000Z</time></trkpt>
        <trkpt lat="29.541624" lon="103.331665"><ele>2392</ele><time>2026-05-16T01:33:23.000Z</time></trkpt>
        <trkpt lat="29.541526" lon="103.331692"><ele>2392</ele><time>2026-05-16T01:33:31.000Z</time></trkpt>
        <trkpt lat="29.541426" lon="103.33172"><ele>2392</ele><time>2026-05-16T01:33:39.000Z</time></trkpt>
        <trkpt lat="29.541321" lon="103.331742"><ele>2392</ele><time>2026-05-16T01:33:49.000Z</time></trkpt>
        <trkpt lat="29.541211" lon="103.331739"><ele>2394</ele><time>2026-05-16T01:33:59.000Z</time></trkpt>
        <trkpt lat="29.541109" lon="103.331734"><ele>2396</ele><time>2026-05-16T01:34:11.000Z</time></trkpt>
        <trkpt lat="29.541014" lon="103.331759"><ele>2397</ele><time>2026-05-16T01:34:27.000Z</time></trkpt>
        <trkpt lat="29.540922" lon="103.331761"><ele>2398</ele><time>2026-05-16T01:34:39.000Z</time></trkpt>
        <trkpt lat="29.540829" lon="103.331739"><ele>2399</ele><time>2026-05-16T01:34:49.000Z</time></trkpt>
        <trkpt lat="29.540732" lon="103.331736"><ele>2400</ele><time>2026-05-16T01:35:01.000Z</time></trkpt>
        <trkpt lat="29.540628" lon="103.331767"><ele>2401</ele><time>2026-05-16T01:35:11.000Z</time></trkpt>
        <trkpt lat="29.540533" lon="103.331826"><ele>2402</ele><time>2026-05-16T01:35:25.000Z</time></trkpt>
        <trkpt lat="29.540436" lon="103.33188"><ele>2403</ele><time>2026-05-16T01:35:35.000Z</time></trkpt>
        <trkpt lat="29.540342" lon="103.331936"><ele>2403</ele><time>2026-05-16T01:35:43.000Z</time></trkpt>
        <trkpt lat="29.54024" lon="103.33199"><ele>2404</ele><time>2026-05-16T01:35:53.000Z</time></trkpt>
        <trkpt lat="29.540152" lon="103.33206"><ele>2404</ele><time>2026-05-16T01:36:07.000Z</time></trkpt>
        <trkpt lat="29.540072" lon="103.33214"><ele>2403</ele><time>2026-05-16T01:36:21.000Z</time></trkpt>
        <trkpt lat="29.539975" lon="103.332201"><ele>2403</ele><time>2026-05-16T01:36:31.000Z</time></trkpt>
        <trkpt lat="29.539879" lon="103.332235"><ele>2403</ele><time>2026-05-16T01:36:39.000Z</time></trkpt>
        <trkpt lat="29.53981" lon="103.332259"><ele>2404</ele><time>2026-05-16T01:36:51.000Z</time></trkpt>
        <trkpt lat="29.539755" lon="103.332333"><ele>2404</ele><time>2026-05-16T01:37:59.000Z</time></trkpt>
        <trkpt lat="29.539688" lon="103.332405"><ele>2404</ele><time>2026-05-16T01:38:13.000Z</time></trkpt>
        <trkpt lat="29.539608" lon="103.33246"><ele>2404</ele><time>2026-05-16T01:38:35.000Z</time></trkpt>
        <trkpt lat="29.539523" lon="103.332517"><ele>2404</ele><time>2026-05-16T01:38:57.000Z</time></trkpt>
        <trkpt lat="29.539447" lon="103.332582"><ele>2406</ele><time>2026-05-16T01:39:11.000Z</time></trkpt>
        <trkpt lat="29.539372" lon="103.332652"><ele>2408</ele><time>2026-05-16T01:39:21.000Z</time></trkpt>
        <trkpt lat="29.539288" lon="103.332715"><ele>2409</ele><time>2026-05-16T01:39:35.000Z</time></trkpt>
        <trkpt lat="29.539202" lon="103.332782"><ele>2411</ele><time>2026-05-16T01:39:49.000Z</time></trkpt>
        <trkpt lat="29.539108" lon="103.332846"><ele>2413</ele><time>2026-05-16T01:39:59.000Z</time></trkpt>
        <trkpt lat="29.539024" lon="103.332915"><ele>2415</ele><time>2026-05-16T01:40:11.000Z</time></trkpt>
        <trkpt lat="29.538942" lon="103.333003"><ele>2417</ele><time>2026-05-16T01:40:21.000Z</time></trkpt>
        <trkpt lat="29.538853" lon="103.333067"><ele>2418</ele><time>2026-05-16T01:40:31.000Z</time></trkpt>
        <trkpt lat="29.538754" lon="103.333113"><ele>2420</ele><time>2026-05-16T01:40:39.000Z</time></trkpt>
        <trkpt lat="29.538662" lon="103.333159"><ele>2421</ele><time>2026-05-16T01:40:49.000Z</time></trkpt>
        <trkpt lat="29.538567" lon="103.333191"><ele>2422</ele><time>2026-05-16T01:40:59.000Z</time></trkpt>
        <trkpt lat="29.538475" lon="103.333178"><ele>2422</ele><time>2026-05-16T01:41:13.000Z</time></trkpt>
        <trkpt lat="29.538378" lon="103.333174"><ele>2422</ele><time>2026-05-16T01:41:27.000Z</time></trkpt>
        <trkpt lat="29.538288" lon="103.333206"><ele>2422</ele><time>2026-05-16T01:41:35.000Z</time></trkpt>
        <trkpt lat="29.538201" lon="103.333263"><ele>2422</ele><time>2026-05-16T01:41:43.000Z</time></trkpt>
        <trkpt lat="29.538118" lon="103.333325"><ele>2422</ele><time>2026-05-16T01:41:51.000Z</time></trkpt>
        <trkpt lat="29.538033" lon="103.333375"><ele>2423</ele><time>2026-05-16T01:41:59.000Z</time></trkpt>
        <trkpt lat="29.537949" lon="103.33342"><ele>2422</ele><time>2026-05-16T01:42:09.000Z</time></trkpt>
        <trkpt lat="29.537866" lon="103.33347"><ele>2423</ele><time>2026-05-16T01:42:21.000Z</time></trkpt>
        <trkpt lat="29.537783" lon="103.333544"><ele>2424</ele><time>2026-05-16T01:42:35.000Z</time></trkpt>
        <trkpt lat="29.537714" lon="103.333622"><ele>2425</ele><time>2026-05-16T01:42:45.000Z</time></trkpt>
        <trkpt lat="29.537637" lon="103.333687"><ele>2425</ele><time>2026-05-16T01:43:03.000Z</time></trkpt>
        <trkpt lat="29.537549" lon="103.333723"><ele>2426</ele><time>2026-05-16T01:43:25.000Z</time></trkpt>
        <trkpt lat="29.537447" lon="103.333729"><ele>2428</ele><time>2026-05-16T01:43:39.000Z</time></trkpt>
        <trkpt lat="29.537349" lon="103.333752"><ele>2430</ele><time>2026-05-16T01:43:51.000Z</time></trkpt>
        <trkpt lat="29.537284" lon="103.33382"><ele>2432</ele><time>2026-05-16T01:44:05.000Z</time></trkpt>
        <trkpt lat="29.537238" lon="103.333912"><ele>2435</ele><time>2026-05-16T01:44:21.000Z</time></trkpt>
        <trkpt lat="29.537205" lon="103.334021"><ele>2437</ele><time>2026-05-16T01:44:45.000Z</time></trkpt>
        <trkpt lat="29.537149" lon="103.334106"><ele>2439</ele><time>2026-05-16T01:45:03.000Z</time></trkpt>
        <trkpt lat="29.537083" lon="103.334189"><ele>2441</ele><time>2026-05-16T01:45:19.000Z</time></trkpt>
        <trkpt lat="29.536997" lon="103.33424"><ele>2442</ele><time>2026-05-16T01:45:37.000Z</time></trkpt>
        <trkpt lat="29.536901" lon="103.334258"><ele>2445</ele><time>2026-05-16T01:45:59.000Z</time></trkpt>
        <trkpt lat="29.5368" lon="103.33428"><ele>2447</ele><time>2026-05-16T01:46:23.000Z</time></trkpt>
        <trkpt lat="29.536691" lon="103.334295"><ele>2449</ele><time>2026-05-16T01:46:33.000Z</time></trkpt>
        <trkpt lat="29.536593" lon="103.334291"><ele>2451</ele><time>2026-05-16T01:46:45.000Z</time></trkpt>
        <trkpt lat="29.536491" lon="103.334289"><ele>2453</ele><time>2026-05-16T01:46:55.000Z</time></trkpt>
        <trkpt lat="29.536396" lon="103.334299"><ele>2453</ele><time>2026-05-16T01:47:09.000Z</time></trkpt>
        <trkpt lat="29.536301" lon="103.334308"><ele>2453</ele><time>2026-05-16T01:47:31.000Z</time></trkpt>
        <trkpt lat="29.536212" lon="103.334281"><ele>2453</ele><time>2026-05-16T01:47:45.000Z</time></trkpt>
        <trkpt lat="29.536129" lon="103.334236"><ele>2454</ele><time>2026-05-16T01:48:03.000Z</time></trkpt>
        <trkpt lat="29.536049" lon="103.334177"><ele>2455</ele><time>2026-05-16T01:48:25.000Z</time></trkpt>
        <trkpt lat="29.535965" lon="103.334122"><ele>2456</ele><time>2026-05-16T01:48:47.000Z</time></trkpt>
        <trkpt lat="29.535883" lon="103.33407"><ele>2459</ele><time>2026-05-16T01:49:03.000Z</time></trkpt>
        <trkpt lat="29.535795" lon="103.334024"><ele>2461</ele><time>2026-05-16T01:49:13.000Z</time></trkpt>
        <trkpt lat="29.535705" lon="103.333994"><ele>2463</ele><time>2026-05-16T01:49:21.000Z</time></trkpt>
        <trkpt lat="29.535627" lon="103.33394"><ele>2465</ele><time>2026-05-16T01:49:49.000Z</time></trkpt>
        <trkpt lat="29.535577" lon="103.333855"><ele>2468</ele><time>2026-05-16T01:50:11.000Z</time></trkpt>
        <trkpt lat="29.535517" lon="103.333772"><ele>2470</ele><time>2026-05-16T01:50:31.000Z</time></trkpt>
        <trkpt lat="29.535446" lon="103.33369"><ele>2473</ele><time>2026-05-16T01:50:41.000Z</time></trkpt>
        <trkpt lat="29.535413" lon="103.333583"><ele>2474</ele><time>2026-05-16T01:50:51.000Z</time></trkpt>
        <trkpt lat="29.535386" lon="103.33348"><ele>2476</ele><time>2026-05-16T01:51:13.000Z</time></trkpt>
        <trkpt lat="29.53535" lon="103.333382"><ele>2478</ele><time>2026-05-16T01:51:33.000Z</time></trkpt>
        <trkpt lat="29.535297" lon="103.333294"><ele>2479</ele><time>2026-05-16T01:52:01.000Z</time></trkpt>
        <trkpt lat="29.535249" lon="103.333204"><ele>2480</ele><time>2026-05-16T01:52:27.000Z</time></trkpt>
        <trkpt lat="29.535209" lon="103.333108"><ele>2482</ele><time>2026-05-16T01:53:01.000Z</time></trkpt>
        <trkpt lat="29.535165" lon="103.333014"><ele>2487</ele><time>2026-05-16T01:53:21.000Z</time></trkpt>
        <trkpt lat="29.53512" lon="103.332922"><ele>2490</ele><time>2026-05-16T01:53:37.000Z</time></trkpt>
        <trkpt lat="29.535068" lon="103.332836"><ele>2492</ele><time>2026-05-16T01:53:49.000Z</time></trkpt>
        <trkpt lat="29.535002" lon="103.332762"><ele>2492</ele><time>2026-05-16T01:54:03.000Z</time></trkpt>
        <trkpt lat="29.534919" lon="103.332772"><ele>2493</ele><time>2026-05-16T01:54:15.000Z</time></trkpt>
        <trkpt lat="29.534837" lon="103.332834"><ele>2493</ele><time>2026-05-16T01:54:33.000Z</time></trkpt>
        <trkpt lat="29.534761" lon="103.332906"><ele>2494</ele><time>2026-05-16T01:55:05.000Z</time></trkpt>
        <trkpt lat="29.534679" lon="103.332965"><ele>2495</ele><time>2026-05-16T01:55:33.000Z</time></trkpt>
        <trkpt lat="29.534589" lon="103.332988"><ele>2496</ele><time>2026-05-16T01:55:57.000Z</time></trkpt>
        <trkpt lat="29.5345" lon="103.333022"><ele>2498</ele><time>2026-05-16T01:56:13.000Z</time></trkpt>
        <trkpt lat="29.534418" lon="103.333076"><ele>2500</ele><time>2026-05-16T01:56:35.000Z</time></trkpt>
        <trkpt lat="29.534331" lon="103.33308"><ele>2504</ele><time>2026-05-16T01:57:19.000Z</time></trkpt>
        <trkpt lat="29.534243" lon="103.333099"><ele>2509</ele><time>2026-05-16T01:57:39.000Z</time></trkpt>
        <trkpt lat="29.53416" lon="103.333143"><ele>2510</ele><time>2026-05-16T01:57:59.000Z</time></trkpt>
        <trkpt lat="29.53407" lon="103.333179"><ele>2512</ele><time>2026-05-16T01:58:23.000Z</time></trkpt>
        <trkpt lat="29.533982" lon="103.333164"><ele>2516</ele><time>2026-05-16T01:58:51.000Z</time></trkpt>
        <trkpt lat="29.533901" lon="103.333111"><ele>2522</ele><time>2026-05-16T01:59:19.000Z</time></trkpt>
        <trkpt lat="29.533824" lon="103.333048"><ele>2527</ele><time>2026-05-16T02:00:07.000Z</time></trkpt>
        <trkpt lat="29.533741" lon="103.332991"><ele>2531</ele><time>2026-05-16T02:00:35.000Z</time></trkpt>
        <trkpt lat="29.533668" lon="103.332919"><ele>2536</ele><time>2026-05-16T02:01:03.000Z</time></trkpt>
        <trkpt lat="29.533594" lon="103.332854"><ele>2538</ele><time>2026-05-16T02:01:23.000Z</time></trkpt>
        <trkpt lat="29.533518" lon="103.332789"><ele>2542</ele><time>2026-05-16T02:01:51.000Z</time></trkpt>
        <trkpt lat="29.533443" lon="103.332728"><ele>2548</ele><time>2026-05-16T02:02:21.000Z</time></trkpt>
        <trkpt lat="29.533363" lon="103.332675"><ele>2554</ele><time>2026-05-16T02:02:47.000Z</time></trkpt>
        <trkpt lat="29.533281" lon="103.332628"><ele>2559</ele><time>2026-05-16T02:03:13.000Z</time></trkpt>
        <trkpt lat="29.533207" lon="103.332569"><ele>2561</ele><time>2026-05-16T02:03:53.000Z</time></trkpt>
        <trkpt lat="29.533135" lon="103.332504"><ele>2564</ele><time>2026-05-16T02:04:15.000Z</time></trkpt>
        <trkpt lat="29.533065" lon="103.332431"><ele>2568</ele><time>2026-05-16T02:04:35.000Z</time></trkpt>
        <trkpt lat="29.532999" lon="103.332351"><ele>2571</ele><time>2026-05-16T02:04:57.000Z</time></trkpt>
        <trkpt lat="29.532938" lon="103.332271"><ele>2574</ele><time>2026-05-16T02:05:21.000Z</time></trkpt>
        <trkpt lat="29.532877" lon="103.332189"><ele>2578</ele><time>2026-05-16T02:05:47.000Z</time></trkpt>
        <trkpt lat="29.532822" lon="103.332105"><ele>2581</ele><time>2026-05-16T02:06:11.000Z</time></trkpt>
        <trkpt lat="29.532753" lon="103.33204"><ele>2584</ele><time>2026-05-16T02:06:41.000Z</time></trkpt>
        <trkpt lat="29.532676" lon="103.33198"><ele>2586</ele><time>2026-05-16T02:07:37.000Z</time></trkpt>
        <trkpt lat="29.53262" lon="103.331895"><ele>2588</ele><time>2026-05-16T02:08:05.000Z</time></trkpt>
        <trkpt lat="29.532576" lon="103.331797"><ele>2591</ele><time>2026-05-16T02:08:45.000Z</time></trkpt>
        <trkpt lat="29.53253" lon="103.331704"><ele>2594</ele><time>2026-05-16T02:09:11.000Z</time></trkpt>
        <trkpt lat="29.532474" lon="103.33162"><ele>2597</ele><time>2026-05-16T02:09:43.000Z</time></trkpt>
        <trkpt lat="29.532446" lon="103.331521"><ele>2603</ele><time>2026-05-16T02:10:11.000Z</time></trkpt>
        <trkpt lat="29.532421" lon="103.33142"><ele>2606</ele><time>2026-05-16T02:10:43.000Z</time></trkpt>
        <trkpt lat="29.532386" lon="103.331321"><ele>2610</ele><time>2026-05-16T02:11:11.000Z</time></trkpt>
        <trkpt lat="29.53236" lon="103.331208"><ele>2613</ele><time>2026-05-16T02:11:41.000Z</time></trkpt>
        <trkpt lat="29.532288" lon="103.331272"><ele>2617</ele><time>2026-05-16T02:13:45.000Z</time></trkpt>
        <trkpt lat="29.532217" lon="103.33134"><ele>2620</ele><time>2026-05-16T02:14:01.000Z</time></trkpt>
        <trkpt lat="29.532197" lon="103.331262"><ele>2623</ele><time>2026-05-16T02:14:57.000Z</time></trkpt>
        <trkpt lat="29.532187" lon="103.331155"><ele>2626</ele><time>2026-05-16T02:15:25.000Z</time></trkpt>
        <trkpt lat="29.532205" lon="103.331042"><ele>2631</ele><time>2026-05-16T02:15:47.000Z</time></trkpt>
        <trkpt lat="29.532215" lon="103.330925"><ele>2635</ele><time>2026-05-16T02:16:09.000Z</time></trkpt>
        <trkpt lat="29.532199" lon="103.330807"><ele>2637</ele><time>2026-05-16T02:16:19.000Z</time></trkpt>
        <trkpt lat="29.532178" lon="103.330698"><ele>2639</ele><time>2026-05-16T02:16:29.000Z</time></trkpt>
        <trkpt lat="29.532176" lon="103.330593"><ele>2640</ele><time>2026-05-16T02:16:49.000Z</time></trkpt>
        <trkpt lat="29.532185" lon="103.330486"><ele>2641</ele><time>2026-05-16T02:17:27.000Z</time></trkpt>
        <trkpt lat="29.532133" lon="103.330415"><ele>2644</ele><time>2026-05-16T02:18:09.000Z</time></trkpt>
        <trkpt lat="29.532141" lon="103.330326"><ele>2649</ele><time>2026-05-16T02:18:51.000Z</time></trkpt>
        <trkpt lat="29.532123" lon="103.33019"><ele>2656</ele><time>2026-05-16T02:20:23.000Z</time></trkpt>
        <trkpt lat="29.532033" lon="103.330223"><ele>2662</ele><time>2026-05-16T02:21:37.000Z</time></trkpt>
        <trkpt lat="29.531937" lon="103.330235"><ele>2665</ele><time>2026-05-16T02:22:07.000Z</time></trkpt>
        <trkpt lat="29.531857" lon="103.330186"><ele>2670</ele><time>2026-05-16T02:22:53.000Z</time></trkpt>
        <trkpt lat="29.531789" lon="103.330113"><ele>2674</ele><time>2026-05-16T02:23:23.000Z</time></trkpt>
        <trkpt lat="29.531714" lon="103.330043"><ele>2679</ele><time>2026-05-16T02:23:55.000Z</time></trkpt>
        <trkpt lat="29.531637" lon="103.32998"><ele>2682</ele><time>2026-05-16T02:24:33.000Z</time></trkpt>
        <trkpt lat="29.531561" lon="103.329918"><ele>2686</ele><time>2026-05-16T02:25:09.000Z</time></trkpt>
        <trkpt lat="29.531482" lon="103.329865"><ele>2692</ele><time>2026-05-16T02:26:01.000Z</time></trkpt>
        <trkpt lat="29.531405" lon="103.32981"><ele>2698</ele><time>2026-05-16T02:27:47.000Z</time></trkpt>
        <trkpt lat="29.531333" lon="103.329737"><ele>2703</ele><time>2026-05-16T02:28:27.000Z</time></trkpt>
        <trkpt lat="29.531265" lon="103.329667"><ele>2708</ele><time>2026-05-16T02:29:37.000Z</time></trkpt>
        <trkpt lat="29.5312" lon="103.329575"><ele>2712</ele><time>2026-05-16T02:30:15.000Z</time></trkpt>
        <trkpt lat="29.531155" lon="103.329478"><ele>2716</ele><time>2026-05-16T02:30:47.000Z</time></trkpt>
        <trkpt lat="29.531131" lon="103.329367"><ele>2720</ele><time>2026-05-16T02:31:07.000Z</time></trkpt>
        <trkpt lat="29.531122" lon="103.329256"><ele>2724</ele><time>2026-05-16T02:31:29.000Z</time></trkpt>
        <trkpt lat="29.531108" lon="103.329151"><ele>2727</ele><time>2026-05-16T02:31:43.000Z</time></trkpt>
        <trkpt lat="29.531101" lon="103.329045"><ele>2730</ele><time>2026-05-16T02:31:59.000Z</time></trkpt>
        <trkpt lat="29.531105" lon="103.328934"><ele>2733</ele><time>2026-05-16T02:32:27.000Z</time></trkpt>
        <trkpt lat="29.531121" lon="103.328828"><ele>2737</ele><time>2026-05-16T02:32:45.000Z</time></trkpt>
        <trkpt lat="29.531149" lon="103.328726"><ele>2740</ele><time>2026-05-16T02:33:13.000Z</time></trkpt>
        <trkpt lat="29.531181" lon="103.328627"><ele>2744</ele><time>2026-05-16T02:33:35.000Z</time></trkpt>
        <trkpt lat="29.531209" lon="103.328525"><ele>2746</ele><time>2026-05-16T02:33:51.000Z</time></trkpt>
        <trkpt lat="29.53124" lon="103.328412"><ele>2749</ele><time>2026-05-16T02:34:05.000Z</time></trkpt>
        <trkpt lat="29.531259" lon="103.328294"><ele>2750</ele><time>2026-05-16T02:34:17.000Z</time></trkpt>
        <trkpt lat="29.531275" lon="103.328182"><ele>2751</ele><time>2026-05-16T02:34:27.000Z</time></trkpt>
        <trkpt lat="29.531285" lon="103.328075"><ele>2752</ele><time>2026-05-16T02:34:43.000Z</time></trkpt>
        <trkpt lat="29.531296" lon="103.327969"><ele>2752</ele><time>2026-05-16T02:35:01.000Z</time></trkpt>
        <trkpt lat="29.531289" lon="103.327859"><ele>2753</ele><time>2026-05-16T02:35:19.000Z</time></trkpt>
        <trkpt lat="29.531271" lon="103.32775"><ele>2753</ele><time>2026-05-16T02:35:41.000Z</time></trkpt>
        <trkpt lat="29.531262" lon="103.32764"><ele>2754</ele><time>2026-05-16T02:36:03.000Z</time></trkpt>
        <trkpt lat="29.531264" lon="103.32753"><ele>2757</ele><time>2026-05-16T02:36:33.000Z</time></trkpt>
        <trkpt lat="29.531255" lon="103.327423"><ele>2761</ele><time>2026-05-16T02:37:05.000Z</time></trkpt>
        <trkpt lat="29.531252" lon="103.327319"><ele>2765</ele><time>2026-05-16T02:37:43.000Z</time></trkpt>
        <trkpt lat="29.531239" lon="103.327215"><ele>2767</ele><time>2026-05-16T02:38:07.000Z</time></trkpt>
        <trkpt lat="29.53121" lon="103.327113"><ele>2770</ele><time>2026-05-16T02:38:39.000Z</time></trkpt>
        <trkpt lat="29.53114" lon="103.327041"><ele>2773</ele><time>2026-05-16T02:39:01.000Z</time></trkpt>
        <trkpt lat="29.531057" lon="103.326987"><ele>2777</ele><time>2026-05-16T02:39:17.000Z</time></trkpt>
        <trkpt lat="29.530971" lon="103.326935"><ele>2781</ele><time>2026-05-16T02:39:35.000Z</time></trkpt>
        <trkpt lat="29.530898" lon="103.326868"><ele>2785</ele><time>2026-05-16T02:40:21.000Z</time></trkpt>
        <trkpt lat="29.530816" lon="103.326813"><ele>2790</ele><time>2026-05-16T02:40:47.000Z</time></trkpt>
        <trkpt lat="29.530724" lon="103.326791"><ele>2792</ele><time>2026-05-16T02:41:19.000Z</time></trkpt>
        <trkpt lat="29.530625" lon="103.326792"><ele>2795</ele><time>2026-05-16T02:41:37.000Z</time></trkpt>
        <trkpt lat="29.530526" lon="103.326809"><ele>2799</ele><time>2026-05-16T02:42:03.000Z</time></trkpt>
        <trkpt lat="29.530435" lon="103.326844"><ele>2803</ele><time>2026-05-16T02:42:27.000Z</time></trkpt>
        <trkpt lat="29.530347" lon="103.32689"><ele>2809</ele><time>2026-05-16T02:42:53.000Z</time></trkpt>
        <trkpt lat="29.530262" lon="103.326932"><ele>2815</ele><time>2026-05-16T02:43:11.000Z</time></trkpt>
        <trkpt lat="29.53018" lon="103.326984"><ele>2819</ele><time>2026-05-16T02:43:25.000Z</time></trkpt>
        <trkpt lat="29.530101" lon="103.327042"><ele>2822</ele><time>2026-05-16T02:43:37.000Z</time></trkpt>
        <trkpt lat="29.53002" lon="103.327108"><ele>2825</ele><time>2026-05-16T02:43:51.000Z</time></trkpt>
        <trkpt lat="29.529945" lon="103.327179"><ele>2827</ele><time>2026-05-16T02:44:07.000Z</time></trkpt>
        <trkpt lat="29.529885" lon="103.327264"><ele>2828</ele><time>2026-05-16T02:44:33.000Z</time></trkpt>
        <trkpt lat="29.529945" lon="103.327375"><ele>2830</ele><time>2026-05-16T02:46:30.000Z</time></trkpt>
        <trkpt lat="29.52989" lon="103.327463"><ele>2828</ele><time>2026-05-16T02:46:42.000Z</time></trkpt>
        <trkpt lat="29.529839" lon="103.327562"><ele>2827</ele><time>2026-05-16T02:46:52.000Z</time></trkpt>
        <trkpt lat="29.52977" lon="103.327633"><ele>2826</ele><time>2026-05-16T02:47:04.000Z</time></trkpt>
        <trkpt lat="29.52969" lon="103.3277"><ele>2826</ele><time>2026-05-16T02:47:16.000Z</time></trkpt>
        <trkpt lat="29.529599" lon="103.327759"><ele>2826</ele><time>2026-05-16T02:47:30.000Z</time></trkpt>
        <trkpt lat="29.529497" lon="103.327778"><ele>2826</ele><time>2026-05-16T02:47:52.000Z</time></trkpt>
        <trkpt lat="29.529394" lon="103.327777"><ele>2826</ele><time>2026-05-16T02:48:06.000Z</time></trkpt>
        <trkpt lat="29.529302" lon="103.327799"><ele>2826</ele><time>2026-05-16T02:48:30.000Z</time></trkpt>
        <trkpt lat="29.529243" lon="103.327872"><ele>2825</ele><time>2026-05-16T02:48:50.000Z</time></trkpt>
        <trkpt lat="29.529203" lon="103.327966"><ele>2825</ele><time>2026-05-16T02:49:08.000Z</time></trkpt>
        <trkpt lat="29.529172" lon="103.328067"><ele>2826</ele><time>2026-05-16T02:49:28.000Z</time></trkpt>
        <trkpt lat="29.52914" lon="103.32817"><ele>2829</ele><time>2026-05-16T02:49:52.000Z</time></trkpt>
        <trkpt lat="29.529114" lon="103.328278"><ele>2832</ele><time>2026-05-16T02:50:16.000Z</time></trkpt>
        <trkpt lat="29.529089" lon="103.328382"><ele>2837</ele><time>2026-05-16T02:50:36.000Z</time></trkpt>
        <trkpt lat="29.529059" lon="103.328485"><ele>2842</ele><time>2026-05-16T02:51:02.000Z</time></trkpt>
        <trkpt lat="29.529021" lon="103.328582"><ele>2845</ele><time>2026-05-16T02:51:34.000Z</time></trkpt>
        <trkpt lat="29.528979" lon="103.328684"><ele>2848</ele><time>2026-05-16T02:51:50.000Z</time></trkpt>
        <trkpt lat="29.528943" lon="103.328791"><ele>2849</ele><time>2026-05-16T02:52:06.000Z</time></trkpt>
        <trkpt lat="29.528897" lon="103.328888"><ele>2851</ele><time>2026-05-16T02:52:24.000Z</time></trkpt>
        <trkpt lat="29.528851" lon="103.328983"><ele>2854</ele><time>2026-05-16T02:52:42.000Z</time></trkpt>
        <trkpt lat="29.5288" lon="103.329075"><ele>2857</ele><time>2026-05-16T02:53:04.000Z</time></trkpt>
        <trkpt lat="29.528742" lon="103.329168"><ele>2861</ele><time>2026-05-16T02:53:22.000Z</time></trkpt>
        <trkpt lat="29.528689" lon="103.329268"><ele>2862</ele><time>2026-05-16T02:53:38.000Z</time></trkpt>
        <trkpt lat="29.528645" lon="103.329374"><ele>2863</ele><time>2026-05-16T02:53:52.000Z</time></trkpt>
        <trkpt lat="29.528617" lon="103.329476"><ele>2863</ele><time>2026-05-16T02:54:06.000Z</time></trkpt>
        <trkpt lat="29.528589" lon="103.329578"><ele>2863</ele><time>2026-05-16T02:54:22.000Z</time></trkpt>
        <trkpt lat="29.528563" lon="103.329686"><ele>2863</ele><time>2026-05-16T02:54:38.000Z</time></trkpt>
        <trkpt lat="29.528538" lon="103.329792"><ele>2863</ele><time>2026-05-16T02:54:54.000Z</time></trkpt>
        <trkpt lat="29.528513" lon="103.329893"><ele>2864</ele><time>2026-05-16T02:55:10.000Z</time></trkpt>
        <trkpt lat="29.528493" lon="103.330005"><ele>2866</ele><time>2026-05-16T02:56:16.000Z</time></trkpt>
        <trkpt lat="29.52842" lon="103.330097"><ele>2866</ele><time>2026-05-16T02:56:28.000Z</time></trkpt>
        <trkpt lat="29.528364" lon="103.330184"><ele>2867</ele><time>2026-05-16T02:56:38.000Z</time></trkpt>
        <trkpt lat="29.528317" lon="103.330286"><ele>2868</ele><time>2026-05-16T02:56:50.000Z</time></trkpt>
        <trkpt lat="29.528304" lon="103.3304"><ele>2870</ele><time>2026-05-16T02:57:04.000Z</time></trkpt>
        <trkpt lat="29.528296" lon="103.330511"><ele>2872</ele><time>2026-05-16T02:57:24.000Z</time></trkpt>
        <trkpt lat="29.528243" lon="103.330587"><ele>2875</ele><time>2026-05-16T02:57:56.000Z</time></trkpt>
        <trkpt lat="29.528169" lon="103.33065"><ele>2875</ele><time>2026-05-16T02:58:20.000Z</time></trkpt>
        <trkpt lat="29.528097" lon="103.330731"><ele>2876</ele><time>2026-05-16T02:58:36.000Z</time></trkpt>
        <trkpt lat="29.528063" lon="103.330828"><ele>2876</ele><time>2026-05-16T02:58:50.000Z</time></trkpt>
        <trkpt lat="29.528036" lon="103.330928"><ele>2876</ele><time>2026-05-16T02:59:10.000Z</time></trkpt>
        <trkpt lat="29.528007" lon="103.331039"><ele>2880</ele><time>2026-05-16T02:59:34.000Z</time></trkpt>
        <trkpt lat="29.527967" lon="103.331143"><ele>2883</ele><time>2026-05-16T02:59:52.000Z</time></trkpt>
        <trkpt lat="29.527895" lon="103.331215"><ele>2886</ele><time>2026-05-16T03:00:20.000Z</time></trkpt>
        <trkpt lat="29.527829" lon="103.33129"><ele>2888</ele><time>2026-05-16T03:00:36.000Z</time></trkpt>
        <trkpt lat="29.527779" lon="103.331375"><ele>2891</ele><time>2026-05-16T03:00:52.000Z</time></trkpt>
        <trkpt lat="29.527728" lon="103.331472"><ele>2893</ele><time>2026-05-16T03:01:10.000Z</time></trkpt>
        <trkpt lat="29.52768" lon="103.331574"><ele>2894</ele><time>2026-05-16T03:01:26.000Z</time></trkpt>
        <trkpt lat="29.527656" lon="103.33169"><ele>2895</ele><time>2026-05-16T03:01:38.000Z</time></trkpt>
        <trkpt lat="29.527628" lon="103.331806"><ele>2895</ele><time>2026-05-16T03:01:50.000Z</time></trkpt>
        <trkpt lat="29.527606" lon="103.331917"><ele>2896</ele><time>2026-05-16T03:02:02.000Z</time></trkpt>
        <trkpt lat="29.527563" lon="103.33201"><ele>2898</ele><time>2026-05-16T03:02:58.000Z</time></trkpt>
        <trkpt lat="29.527543" lon="103.332115"><ele>2902</ele><time>2026-05-16T03:03:18.000Z</time></trkpt>
        <trkpt lat="29.527558" lon="103.332219"><ele>2903</ele><time>2026-05-16T03:03:32.000Z</time></trkpt>
        <trkpt lat="29.52756" lon="103.332325"><ele>2903</ele><time>2026-05-16T03:03:56.000Z</time></trkpt>
        <trkpt lat="29.527498" lon="103.332381"><ele>2904</ele><time>2026-05-16T03:04:14.000Z</time></trkpt>
        <trkpt lat="29.527414" lon="103.332426"><ele>2905</ele><time>2026-05-16T03:04:30.000Z</time></trkpt>
        <trkpt lat="29.527321" lon="103.332416"><ele>2907</ele><time>2026-05-16T03:04:58.000Z</time></trkpt>
        <trkpt lat="29.527253" lon="103.332335"><ele>2909</ele><time>2026-05-16T03:05:12.000Z</time></trkpt>
        <trkpt lat="29.527174" lon="103.332263"><ele>2911</ele><time>2026-05-16T03:05:28.000Z</time></trkpt>
        <trkpt lat="29.527091" lon="103.332286"><ele>2913</ele><time>2026-05-16T03:05:46.000Z</time></trkpt>
        <trkpt lat="29.527023" lon="103.332361"><ele>2915</ele><time>2026-05-16T03:06:08.000Z</time></trkpt>
        <trkpt lat="29.527" lon="103.332474"><ele>2916</ele><time>2026-05-16T03:06:26.000Z</time></trkpt>
        <trkpt lat="29.527005" lon="103.33259"><ele>2916</ele><time>2026-05-16T03:06:38.000Z</time></trkpt>
        <trkpt lat="29.527002" lon="103.33271"><ele>2918</ele><time>2026-05-16T03:06:58.000Z</time></trkpt>
        <trkpt lat="29.526981" lon="103.332822"><ele>2920</ele><time>2026-05-16T03:07:20.000Z</time></trkpt>
        <trkpt lat="29.526967" lon="103.332938"><ele>2922</ele><time>2026-05-16T03:07:34.000Z</time></trkpt>
        <trkpt lat="29.526997" lon="103.333046"><ele>2923</ele><time>2026-05-16T03:07:46.000Z</time></trkpt>
        <trkpt lat="29.527034" lon="103.333154"><ele>2924</ele><time>2026-05-16T03:07:58.000Z</time></trkpt>
        <trkpt lat="29.527045" lon="103.333262"><ele>2925</ele><time>2026-05-16T03:08:20.000Z</time></trkpt>
        <trkpt lat="29.527004" lon="103.33335"><ele>2927</ele><time>2026-05-16T03:08:42.000Z</time></trkpt>
        <trkpt lat="29.526919" lon="103.333387"><ele>2929</ele><time>2026-05-16T03:09:28.000Z</time></trkpt>
        <trkpt lat="29.526821" lon="103.333417"><ele>2934</ele><time>2026-05-16T03:09:52.000Z</time></trkpt>
        <trkpt lat="29.526723" lon="103.333432"><ele>2939</ele><time>2026-05-16T03:10:22.000Z</time></trkpt>
        <trkpt lat="29.526631" lon="103.333469"><ele>2945</ele><time>2026-05-16T03:11:04.000Z</time></trkpt>
        <trkpt lat="29.526552" lon="103.333524"><ele>2949</ele><time>2026-05-16T03:11:18.000Z</time></trkpt>
        <trkpt lat="29.526466" lon="103.333576"><ele>2952</ele><time>2026-05-16T03:11:38.000Z</time></trkpt>
        <trkpt lat="29.526387" lon="103.333633"><ele>2953</ele><time>2026-05-16T03:11:54.000Z</time></trkpt>
        <trkpt lat="29.526306" lon="103.333694"><ele>2954</ele><time>2026-05-16T03:12:06.000Z</time></trkpt>
        <trkpt lat="29.52622" lon="103.333748"><ele>2953</ele><time>2026-05-16T03:12:20.000Z</time></trkpt>
        <trkpt lat="29.526129" lon="103.333791"><ele>2952</ele><time>2026-05-16T03:12:46.000Z</time></trkpt>
        <trkpt lat="29.526041" lon="103.333844"><ele>2952</ele><time>2026-05-16T03:13:10.000Z</time></trkpt>
        <trkpt lat="29.525953" lon="103.333901"><ele>2953</ele><time>2026-05-16T03:13:24.000Z</time></trkpt>
        <trkpt lat="29.52587" lon="103.333955"><ele>2954</ele><time>2026-05-16T03:13:48.000Z</time></trkpt>
        <trkpt lat="29.525787" lon="103.334012"><ele>2958</ele><time>2026-05-16T03:14:02.000Z</time></trkpt>
        <trkpt lat="29.525705" lon="103.334066"><ele>2961</ele><time>2026-05-16T03:14:22.000Z</time></trkpt>
        <trkpt lat="29.525628" lon="103.334123"><ele>2964</ele><time>2026-05-16T03:14:44.000Z</time></trkpt>
        <trkpt lat="29.525559" lon="103.334205"><ele>2966</ele><time>2026-05-16T03:15:00.000Z</time></trkpt>
        <trkpt lat="29.525495" lon="103.334286"><ele>2967</ele><time>2026-05-16T03:15:16.000Z</time></trkpt>
        <trkpt lat="29.525416" lon="103.334359"><ele>2968</ele><time>2026-05-16T03:15:38.000Z</time></trkpt>
        <trkpt lat="29.525341" lon="103.334429"><ele>2970</ele><time>2026-05-16T03:15:50.000Z</time></trkpt>
        <trkpt lat="29.525269" lon="103.334498"><ele>2971</ele><time>2026-05-16T03:16:08.000Z</time></trkpt>
        <trkpt lat="29.525195" lon="103.334566"><ele>2971</ele><time>2026-05-16T03:16:30.000Z</time></trkpt>
        <trkpt lat="29.525118" lon="103.334623"><ele>2972</ele><time>2026-05-16T03:16:50.000Z</time></trkpt>
        <trkpt lat="29.525042" lon="103.33469"><ele>2974</ele><time>2026-05-16T03:17:12.000Z</time></trkpt>
        <trkpt lat="29.524952" lon="103.334734"><ele>2976</ele><time>2026-05-16T03:17:30.000Z</time></trkpt>
        <trkpt lat="29.524856" lon="103.334727"><ele>2978</ele><time>2026-05-16T03:17:48.000Z</time></trkpt>
        <trkpt lat="29.524762" lon="103.334708"><ele>2981</ele><time>2026-05-16T03:18:14.000Z</time></trkpt>
        <trkpt lat="29.52466" lon="103.334716"><ele>2985</ele><time>2026-05-16T03:18:34.000Z</time></trkpt>
        <trkpt lat="29.524566" lon="103.334757"><ele>2989</ele><time>2026-05-16T03:18:46.000Z</time></trkpt>
        <trkpt lat="29.524481" lon="103.334806"><ele>2993</ele><time>2026-05-16T03:18:54.000Z</time></trkpt>
        <trkpt lat="29.524394" lon="103.334862"><ele>2995</ele><time>2026-05-16T03:19:04.000Z</time></trkpt>
        <trkpt lat="29.524301" lon="103.334888"><ele>2998</ele><time>2026-05-16T03:19:14.000Z</time></trkpt>
        <trkpt lat="29.524205" lon="103.334897"><ele>2999</ele><time>2026-05-16T03:19:24.000Z</time></trkpt>
        <trkpt lat="29.524112" lon="103.334885"><ele>2999</ele><time>2026-05-16T03:19:34.000Z</time></trkpt>
        <trkpt lat="29.524011" lon="103.334875"><ele>2999</ele><time>2026-05-16T03:19:44.000Z</time></trkpt>
        <trkpt lat="29.523911" lon="103.33488"><ele>2998</ele><time>2026-05-16T03:20:02.000Z</time></trkpt>
        <trkpt lat="29.523817" lon="103.334875"><ele>2996</ele><time>2026-05-16T03:20:14.000Z</time></trkpt>
        <trkpt lat="29.523714" lon="103.33486"><ele>2994</ele><time>2026-05-16T03:20:30.000Z</time></trkpt>
        <trkpt lat="29.523612" lon="103.334853"><ele>2992</ele><time>2026-05-16T03:20:40.000Z</time></trkpt>
        <trkpt lat="29.523519" lon="103.334845"><ele>2991</ele><time>2026-05-16T03:20:56.000Z</time></trkpt>
        <trkpt lat="29.523426" lon="103.334819"><ele>2992</ele><time>2026-05-16T03:21:16.000Z</time></trkpt>
        <trkpt lat="29.523335" lon="103.334791"><ele>2994</ele><time>2026-05-16T03:21:28.000Z</time></trkpt>
        <trkpt lat="29.523242" lon="103.334751"><ele>2995</ele><time>2026-05-16T03:21:40.000Z</time></trkpt>
        <trkpt lat="29.523143" lon="103.334719"><ele>2997</ele><time>2026-05-16T03:21:52.000Z</time></trkpt>
        <trkpt lat="29.523049" lon="103.334691"><ele>2999</ele><time>2026-05-16T03:22:08.000Z</time></trkpt>
        <trkpt lat="29.522957" lon="103.334687"><ele>3001</ele><time>2026-05-16T03:22:18.000Z</time></trkpt>
        <trkpt lat="29.522865" lon="103.33469"><ele>3003</ele><time>2026-05-16T03:22:36.000Z</time></trkpt>
        <trkpt lat="29.522773" lon="103.334716"><ele>3006</ele><time>2026-05-16T03:22:52.000Z</time></trkpt>
        <trkpt lat="29.522773" lon="103.334716"><ele>3006</ele><time>2026-05-16T03:23:32.000Z</time></trkpt>
      </trkseg>
  </trk>
</gpx>